Time,TemperatureF,DewpointF,PressureIn,WindDirection,WindDirectionDegrees,WindSpeedMPH,WindSpeedGustMPH,Humidity,HourlyPrecipIn,Conditions,Clouds,dailyrainin,SoftwareType,DateUTC
2013-04-20 00:00:00,52.1,49.3,29.70,WNW,294,0.0,5.0,90,0.07,,,0.71,VWS V14.01,2013-04-20 04:00:00,
2013-04-20 00:01:00,52.1,49.3,29.70,WNW,294,0.0,5.0,90,0.07,,,0.71,VWS V14.01,2013-04-20 04:01:00,
2013-04-20 00:02:00,51.9,49.1,29.70,WNW,298,4.0,5.0,90,0.07,,,0.00,VWS V14.01,2013-04-20 04:02:00,
2013-04-20 00:03:00,51.8,48.7,29.70,West,259,2.0,9.0,89,0.07,,,0.00,VWS V14.01,2013-04-20 04:03:00,
2013-04-20 00:04:00,51.7,48.6,29.70,West,259,0.0,9.0,89,0.07,,,0.00,VWS V14.01,2013-04-20 04:04:00,
2013-04-20 00:05:00,51.6,48.5,29.70,West,259,2.0,9.0,89,0.07,,,0.00,VWS V14.01,2013-04-20 04:05:00,
2013-04-20 00:06:00,51.6,48.5,29.70,West,259,2.0,9.0,89,0.07,,,0.00,VWS V14.01,2013-04-20 04:06:00,
2013-04-20 00:07:00,51.6,48.5,29.70,West,259,2.0,9.0,89,0.07,,,0.00,VWS V14.01,2013-04-20 04:07:00,
2013-04-20 00:08:00,51.6,48.5,29.70,West,259,2.0,9.0,89,0.07,,,0.00,VWS V14.01,2013-04-20 04:08:00,
2013-04-20 00:09:00,51.4,48.3,29.70,NE,47,2.0,9.0,89,0.07,,,0.00,VWS V14.01,2013-04-20 04:09:00,
2013-04-20 00:10:00,51.4,48.3,29.70,NE,47,0.0,9.0,89,0.07,,,0.00,VWS V14.01,2013-04-20 04:10:00,
2013-04-20 00:11:00,51.4,48.3,29.70,NE,45,0.0,9.0,89,0.07,,,0.00,VWS V14.01,2013-04-20 04:11:00,
2013-04-20 00:12:00,51.4,48.3,29.70,NE,45,0.0,9.0,89,0.07,,,0.00,VWS V14.01,2013-04-20 04:12:00,
2013-04-20 00:13:00,51.4,48.3,29.70,NE,45,0.0,9.0,89,0.07,,,0.00,VWS V14.01,2013-04-20 04:13:00,
2013-04-20 00:14:00,51.2,48.1,29.70,South,184,3.0,4.0,89,0.02,,,0.00,VWS V14.01,2013-04-20 04:14:00,
2013-04-20 00:15:00,51.2,48.1,29.68,NE,44,0.0,4.0,89,0.02,,,0.00,VWS V14.01,2013-04-20 04:15:00,
2013-04-20 00:16:00,51.2,48.1,29.68,NE,44,0.0,4.0,89,0.02,,,0.00,VWS V14.01,2013-04-20 04:16:00,
2013-04-20 00:17:00,51.2,48.1,29.68,NE,44,0.0,4.0,89,0.02,,,0.00,VWS V14.01,2013-04-20 04:17:00,
2013-04-20 00:18:00,51.0,47.9,29.68,NW,305,0.0,4.0,89,0.02,,,0.00,VWS V14.01,2013-04-20 04:18:00,
2013-04-20 00:19:00,50.9,47.8,29.68,NW,305,0.0,4.0,89,0.02,,,0.00,VWS V14.01,2013-04-20 04:19:00,
2013-04-20 00:20:00,50.9,47.8,29.68,NW,305,0.0,4.0,89,0.02,,,0.00,VWS V14.01,2013-04-20 04:20:00,
2013-04-20 00:21:00,50.9,47.8,29.68,NW,305,0.0,4.0,89,0.02,,,0.00,VWS V14.01,2013-04-20 04:21:00,
2013-04-20 00:22:00,50.9,47.8,29.68,NW,305,0.0,4.0,89,0.02,,,0.00,VWS V14.01,2013-04-20 04:22:00,
2013-04-20 00:23:00,50.8,47.7,29.68,NW,305,1.0,2.0,89,0.02,,,0.00,VWS V14.01,2013-04-20 04:23:00,
2013-04-20 00:24:00,50.8,47.7,29.68,NW,305,0.0,2.0,89,0.02,,,0.00,VWS V14.01,2013-04-20 04:24:00,
2013-04-20 00:25:00,50.8,47.7,29.68,WNW,286,1.0,3.0,89,0.02,,,0.00,VWS V14.01,2013-04-20 04:25:00,
2013-04-20 00:26:00,50.8,47.7,29.68,WNW,286,0.0,3.0,89,0.02,,,0.00,VWS V14.01,2013-04-20 04:26:00,
2013-04-20 00:27:00,50.8,47.7,29.68,WNW,286,0.0,3.0,89,0.02,,,0.00,VWS V14.01,2013-04-20 04:27:00,
2013-04-20 00:28:00,50.7,47.6,29.68,WSW,246,0.0,3.0,89,0.02,,,0.00,VWS V14.01,2013-04-20 04:28:00,
2013-04-20 00:29:00,50.6,47.5,29.68,WSW,247,1.0,3.0,89,0.02,,,0.00,VWS V14.01,2013-04-20 04:29:00,
2013-04-20 00:30:00,50.6,47.5,29.69,West,271,3.0,5.0,89,0.02,,,0.00,VWS V14.01,2013-04-20 04:30:00,
2013-04-20 00:31:00,50.6,47.5,29.69,West,271,3.0,5.0,89,0.02,,,0.00,VWS V14.01,2013-04-20 04:31:00,
2013-04-20 00:32:00,50.6,47.5,29.69,West,271,3.0,5.0,89,0.02,,,0.00,VWS V14.01,2013-04-20 04:32:00,
2013-04-20 00:33:00,50.5,47.4,29.69,NNW,336,0.0,3.0,89,0.03,,,0.01,VWS V14.01,2013-04-20 04:33:00,
2013-04-20 00:34:00,50.4,47.3,29.69,NNW,335,0.0,3.0,89,0.03,,,0.01,VWS V14.01,2013-04-20 04:34:00,
2013-04-20 00:35:00,50.4,47.3,29.69,NNW,335,0.0,3.0,89,0.03,,,0.01,VWS V14.01,2013-04-20 04:35:00,
2013-04-20 00:36:00,50.4,47.3,29.69,NNW,335,0.0,3.0,89,0.03,,,0.01,VWS V14.01,2013-04-20 04:36:00,
2013-04-20 00:37:00,50.4,47.3,29.69,NNW,335,0.0,3.0,89,0.03,,,0.01,VWS V14.01,2013-04-20 04:37:00,
2013-04-20 00:38:00,50.3,47.2,29.69,NNW,336,0.0,3.0,89,0.03,,,0.01,VWS V14.01,2013-04-20 04:38:00,
2013-04-20 00:39:00,50.2,47.1,29.69,NNW,336,2.0,3.0,89,0.03,,,0.01,VWS V14.01,2013-04-20 04:39:00,
2013-04-20 00:40:00,50.2,47.1,29.69,WSW,252,3.0,3.0,89,0.03,,,0.01,VWS V14.01,2013-04-20 04:40:00,
2013-04-20 00:41:00,50.2,47.1,29.69,West,270,3.0,3.0,89,0.03,,,0.01,VWS V14.01,2013-04-20 04:41:00,
2013-04-20 00:42:00,50.2,47.1,29.69,West,270,3.0,3.0,89,0.03,,,0.01,VWS V14.01,2013-04-20 04:42:00,
2013-04-20 00:43:00,50.1,47.0,29.69,WNW,296,2.0,3.0,89,0.03,,,0.02,VWS V14.01,2013-04-20 04:43:00,
2013-04-20 00:44:00,50.0,46.9,29.69,NW,318,2.0,9.0,89,0.03,,,0.02,VWS V14.01,2013-04-20 04:44:00,
2013-04-20 00:45:00,49.9,46.8,29.69,SW,231,2.0,9.0,89,0.03,,,0.02,VWS V14.01,2013-04-20 04:45:00,
2013-04-20 00:46:00,49.9,46.8,29.69,SW,231,2.0,9.0,89,0.03,,,0.02,VWS V14.01,2013-04-20 04:46:00,
2013-04-20 00:47:00,49.9,46.8,29.69,SW,231,2.0,9.0,89,0.03,,,0.02,VWS V14.01,2013-04-20 04:47:00,
2013-04-20 00:48:00,49.7,46.6,29.69,South,186,0.0,9.0,89,0.03,,,0.02,VWS V14.01,2013-04-20 04:48:00,
2013-04-20 00:49:00,49.7,46.6,29.69,South,186,0.0,9.0,89,0.03,,,0.02,VWS V14.01,2013-04-20 04:49:00,
2013-04-20 00:50:00,49.6,46.5,29.69,West,271,3.0,9.0,89,0.03,,,0.02,VWS V14.01,2013-04-20 04:50:00,
2013-04-20 00:51:00,49.6,46.5,29.69,West,271,3.0,9.0,89,0.03,,,0.02,VWS V14.01,2013-04-20 04:51:00,
2013-04-20 00:52:00,49.6,46.5,29.69,West,271,3.0,9.0,89,0.03,,,0.02,VWS V14.01,2013-04-20 04:52:00,
2013-04-20 00:53:00,49.6,46.5,29.69,West,271,3.0,9.0,89,0.03,,,0.02,VWS V14.01,2013-04-20 04:53:00,
2013-04-20 00:54:00,49.6,46.8,29.69,West,263,5.0,8.0,90,0.02,,,0.02,VWS V14.01,2013-04-20 04:54:00,
2013-04-20 00:55:00,49.5,46.4,29.69,West,263,2.0,8.0,89,0.02,,,0.02,VWS V14.01,2013-04-20 04:55:00,
2013-04-20 00:56:00,49.5,46.4,29.69,West,263,2.0,8.0,89,0.02,,,0.02,VWS V14.01,2013-04-20 04:56:00,
2013-04-20 00:57:00,49.5,46.4,29.69,West,263,2.0,8.0,89,0.02,,,0.02,VWS V14.01,2013-04-20 04:57:00,
2013-04-20 00:58:00,49.5,46.4,29.69,West,263,2.0,8.0,89,0.02,,,0.02,VWS V14.01,2013-04-20 04:58:00,
2013-04-20 00:59:00,49.4,46.6,29.69,WNW,295,5.0,8.0,90,0.03,,,0.03,VWS V14.01,2013-04-20 04:59:00,
2013-04-20 01:00:00,49.4,46.6,29.70,WNW,287,5.0,8.0,90,0.03,,,0.03,VWS V14.01,2013-04-20 05:00:00,
2013-04-20 01:01:00,49.4,46.6,29.70,WNW,287,5.0,8.0,90,0.03,,,0.03,VWS V14.01,2013-04-20 05:01:00,
2013-04-20 01:02:00,49.4,46.6,29.70,WNW,287,5.0,8.0,90,0.03,,,0.03,VWS V14.01,2013-04-20 05:02:00,
2013-04-20 01:03:00,49.4,46.6,29.70,WNW,287,5.0,8.0,90,0.03,,,0.03,VWS V14.01,2013-04-20 05:03:00,
2013-04-20 01:04:00,49.3,46.5,29.70,WSW,246,2.0,5.0,90,0.03,,,0.03,VWS V14.01,2013-04-20 05:04:00,
2013-04-20 01:05:00,49.3,46.5,29.70,WSW,246,0.0,5.0,90,0.03,,,0.03,VWS V14.01,2013-04-20 05:05:00,
2013-04-20 01:06:00,49.3,46.5,29.70,WSW,246,0.0,5.0,90,0.03,,,0.03,VWS V14.01,2013-04-20 05:06:00,
2013-04-20 01:07:00,49.3,46.5,29.70,WSW,246,0.0,5.0,90,0.03,,,0.03,VWS V14.01,2013-04-20 05:07:00,
2013-04-20 01:08:00,49.3,46.5,29.70,WSW,246,0.0,5.0,90,0.03,,,0.03,VWS V14.01,2013-04-20 05:08:00,
2013-04-20 01:09:00,49.2,46.4,29.70,WNW,296,1.0,5.0,90,0.03,,,0.03,VWS V14.01,2013-04-20 05:09:00,
2013-04-20 01:10:00,49.2,46.4,29.70,WNW,296,0.0,5.0,90,0.03,,,0.03,VWS V14.01,2013-04-20 05:10:00,
2013-04-20 01:11:00,49.2,46.4,29.70,WNW,296,0.0,5.0,90,0.03,,,0.03,VWS V14.01,2013-04-20 05:11:00,
2013-04-20 01:12:00,49.2,46.4,29.70,WNW,296,0.0,5.0,90,0.03,,,0.03,VWS V14.01,2013-04-20 05:12:00,
2013-04-20 01:13:00,49.2,46.4,29.70,WNW,296,0.0,5.0,90,0.03,,,0.03,VWS V14.01,2013-04-20 05:13:00,
2013-04-20 01:14:00,49.1,46.6,29.70,WNW,296,0.0,0.0,91,0.04,,,0.04,VWS V14.01,2013-04-20 05:14:00,
2013-04-20 01:15:00,49.1,46.6,29.70,WNW,290,1.0,1.0,91,0.04,,,0.04,VWS V14.01,2013-04-20 05:15:00,
2013-04-20 01:16:00,49.1,46.6,29.70,WNW,290,1.0,1.0,91,0.04,,,0.04,VWS V14.01,2013-04-20 05:16:00,
2013-04-20 01:17:00,49.1,46.6,29.70,WNW,290,1.0,1.0,91,0.04,,,0.04,VWS V14.01,2013-04-20 05:17:00,
2013-04-20 01:18:00,49.1,46.6,29.70,WNW,290,1.0,1.0,91,0.04,,,0.04,VWS V14.01,2013-04-20 05:18:00,
2013-04-20 01:19:00,49.0,46.5,29.70,WNW,282,6.0,6.0,91,0.04,,,0.04,VWS V14.01,2013-04-20 05:19:00,
2013-04-20 01:20:00,49.0,46.5,29.70,WNW,300,3.0,6.0,91,0.04,,,0.04,VWS V14.01,2013-04-20 05:20:00,
2013-04-20 01:21:00,49.0,46.5,29.70,WNW,300,4.0,6.0,91,0.04,,,0.04,VWS V14.01,2013-04-20 05:21:00,
2013-04-20 01:22:00,49.0,46.5,29.70,NW,321,0.0,2.0,91,0.04,,,0.04,VWS V14.01,2013-04-20 05:22:00,
2013-04-20 01:23:00,49.0,46.5,29.70,SSE,150,0.0,3.0,91,0.04,,,0.04,VWS V14.01,2013-04-20 05:23:00,
2013-04-20 01:24:00,49.0,46.5,29.70,SW,232,5.0,6.0,91,0.04,,,0.04,VWS V14.01,2013-04-20 05:24:00,
2013-04-20 01:25:00,49.0,46.5,29.70,West,261,4.0,6.0,91,0.04,,,0.04,VWS V14.01,2013-04-20 05:25:00,
2013-04-20 01:26:00,49.0,46.5,29.70,West,261,1.0,6.0,91,0.04,,,0.04,VWS V14.01,2013-04-20 05:26:00,
2013-04-20 01:27:00,49.0,46.5,29.70,West,261,1.0,6.0,91,0.04,,,0.04,VWS V14.01,2013-04-20 05:27:00,
2013-04-20 01:28:00,49.0,46.5,29.70,WSW,237,2.0,6.0,91,0.04,,,0.04,VWS V14.01,2013-04-20 05:28:00,
2013-04-20 01:29:00,49.0,46.5,29.70,SW,235,2.0,6.0,91,0.04,,,0.04,VWS V14.01,2013-04-20 05:29:00,
2013-04-20 01:30:00,48.9,46.4,29.69,WSW,237,2.0,6.0,91,0.04,,,0.04,VWS V14.01,2013-04-20 05:30:00,
2013-04-20 01:31:00,48.9,46.4,29.69,WSW,237,2.0,6.0,91,0.04,,,0.04,VWS V14.01,2013-04-20 05:31:00,
2013-04-20 01:32:00,48.9,46.4,29.69,WSW,237,2.0,6.0,91,0.04,,,0.04,VWS V14.01,2013-04-20 05:32:00,
2013-04-20 01:33:00,48.9,46.7,29.69,WSW,237,0.0,2.0,92,0.05,,,0.05,VWS V14.01,2013-04-20 05:33:00,
2013-04-20 01:34:00,48.9,46.7,29.69,North,5,2.0,4.0,92,0.05,,,0.05,VWS V14.01,2013-04-20 05:34:00,
2013-04-20 01:35:00,48.9,46.7,29.69,North,360,0.0,4.0,92,0.05,,,0.05,VWS V14.01,2013-04-20 05:35:00,
2013-04-20 01:36:00,48.9,46.7,29.69,North,360,0.0,4.0,92,0.05,,,0.05,VWS V14.01,2013-04-20 05:36:00,
2013-04-20 01:37:00,48.9,46.7,29.69,North,360,0.0,4.0,92,0.05,,,0.05,VWS V14.01,2013-04-20 05:37:00,
2013-04-20 01:38:00,48.8,46.6,29.69,SW,225,2.0,4.0,92,0.05,,,0.05,VWS V14.01,2013-04-20 05:38:00,
2013-04-20 01:39:00,48.9,46.7,29.69,SW,225,0.0,4.0,92,0.05,,,0.05,VWS V14.01,2013-04-20 05:39:00,
2013-04-20 01:40:00,48.8,46.6,29.69,SW,225,0.0,4.0,92,0.05,,,0.05,VWS V14.01,2013-04-20 05:40:00,
2013-04-20 01:41:00,48.8,46.6,29.69,SW,225,0.0,4.0,92,0.05,,,0.05,VWS V14.01,2013-04-20 05:41:00,
2013-04-20 01:42:00,48.8,46.6,29.69,SW,225,0.0,4.0,92,0.05,,,0.05,VWS V14.01,2013-04-20 05:42:00,
2013-04-20 01:43:00,48.8,46.6,29.69,SW,225,0.0,0.0,92,0.04,,,0.05,VWS V14.01,2013-04-20 05:43:00,
2013-04-20 01:44:00,48.8,46.6,29.69,SW,225,0.0,0.0,92,0.04,,,0.05,VWS V14.01,2013-04-20 05:44:00,
2013-04-20 01:45:00,48.8,46.6,29.67,SW,225,0.0,0.0,92,0.04,,,0.05,VWS V14.01,2013-04-20 05:45:00,
2013-04-20 01:46:00,48.8,46.6,29.67,SW,225,0.0,0.0,92,0.04,,,0.05,VWS V14.01,2013-04-20 05:46:00,
2013-04-20 01:47:00,48.8,46.6,29.67,SW,225,0.0,0.0,92,0.04,,,0.05,VWS V14.01,2013-04-20 05:47:00,
2013-04-20 01:48:00,48.8,46.6,29.67,SW,225,0.0,0.0,92,0.04,,,0.05,VWS V14.01,2013-04-20 05:48:00,
2013-04-20 01:49:00,48.8,46.6,29.67,SSW,200,2.0,3.0,92,0.05,,,0.06,VWS V14.01,2013-04-20 05:49:00,
2013-04-20 01:50:00,48.8,46.6,29.67,SSW,200,0.0,3.0,92,0.05,,,0.06,VWS V14.01,2013-04-20 05:50:00,
2013-04-20 01:51:00,48.8,46.6,29.67,SSW,200,0.0,3.0,92,0.05,,,0.06,VWS V14.01,2013-04-20 05:51:00,
2013-04-20 01:52:00,48.8,46.6,29.67,SSW,200,0.0,3.0,92,0.05,,,0.06,VWS V14.01,2013-04-20 05:52:00,
2013-04-20 01:53:00,48.8,46.6,29.67,SSW,200,0.0,3.0,92,0.05,,,0.06,VWS V14.01,2013-04-20 05:53:00,
2013-04-20 01:54:00,48.8,46.6,29.67,SSW,200,0.0,0.0,92,0.04,,,0.06,VWS V14.01,2013-04-20 05:54:00,
2013-04-20 01:55:00,48.8,46.6,29.67,SSW,201,0.0,1.0,92,0.04,,,0.06,VWS V14.01,2013-04-20 05:55:00,
2013-04-20 01:56:00,48.8,46.6,29.67,SSW,200,0.0,1.0,92,0.04,,,0.06,VWS V14.01,2013-04-20 05:56:00,
2013-04-20 01:57:00,48.8,46.6,29.67,SSW,200,0.0,1.0,92,0.04,,,0.06,VWS V14.01,2013-04-20 05:57:00,
2013-04-20 01:58:00,48.8,46.6,29.67,WNW,295,4.0,4.0,92,0.04,,,0.07,VWS V14.01,2013-04-20 05:58:00,
2013-04-20 01:59:00,48.9,46.7,29.67,WSW,254,4.0,5.0,92,0.05,,,0.07,VWS V14.01,2013-04-20 05:59:00,
2013-04-20 02:00:00,48.9,46.7,29.69,SW,232,3.0,5.0,92,0.05,,,0.07,VWS V14.01,2013-04-20 06:00:00,
2013-04-20 02:01:00,48.9,46.7,29.69,SW,232,3.0,5.0,92,0.05,,,0.07,VWS V14.01,2013-04-20 06:01:00,
2013-04-20 02:02:00,48.9,46.7,29.69,SW,232,3.0,5.0,92,0.05,,,0.07,VWS V14.01,2013-04-20 06:02:00,
2013-04-20 02:03:00,48.9,46.7,29.69,WSW,258,1.0,3.0,92,0.04,,,0.07,VWS V14.01,2013-04-20 06:03:00,
2013-04-20 02:04:00,48.8,46.6,29.69,North,355,2.0,5.0,92,0.04,,,0.07,VWS V14.01,2013-04-20 06:04:00,
2013-04-20 02:05:00,48.8,46.6,29.69,WSW,243,1.0,5.0,92,0.04,,,0.07,VWS V14.01,2013-04-20 06:05:00,
2013-04-20 02:06:00,48.8,46.6,29.69,WNW,300,1.0,5.0,92,0.04,,,0.07,VWS V14.01,2013-04-20 06:06:00,
2013-04-20 02:07:00,48.8,46.6,29.69,WSW,239,4.0,5.0,92,0.04,,,0.07,VWS V14.01,2013-04-20 06:07:00,
2013-04-20 02:08:00,48.8,46.9,29.69,SW,222,5.0,5.0,93,0.05,,,0.08,VWS V14.01,2013-04-20 06:08:00,
2013-04-20 02:09:00,48.8,46.9,29.69,West,259,10.0,10.0,93,0.05,,,0.08,VWS V14.01,2013-04-20 06:09:00,
2013-04-20 02:10:00,48.8,46.9,29.69,WSW,241,6.0,10.0,93,0.05,,,0.08,VWS V14.01,2013-04-20 06:10:00,
2013-04-20 02:11:00,48.8,46.9,29.69,WSW,246,4.0,10.0,93,0.05,,,0.08,VWS V14.01,2013-04-20 06:11:00,
2013-04-20 02:12:00,48.8,46.9,29.69,WSW,246,4.0,10.0,93,0.05,,,0.08,VWS V14.01,2013-04-20 06:12:00,
2013-04-20 02:13:00,48.8,46.9,29.69,West,273,1.0,4.0,93,0.05,,,0.08,VWS V14.01,2013-04-20 06:13:00,
2013-04-20 02:14:00,48.8,46.9,29.69,SSW,194,3.0,4.0,93,0.05,,,0.08,VWS V14.01,2013-04-20 06:14:00,
2013-04-20 02:15:00,48.8,46.9,29.72,SSW,194,1.0,4.0,93,0.05,,,0.08,VWS V14.01,2013-04-20 06:15:00,
2013-04-20 02:16:00,48.8,46.9,29.72,SSW,212,2.0,4.0,93,0.05,,,0.08,VWS V14.01,2013-04-20 06:16:00,
2013-04-20 02:17:00,48.8,46.9,29.72,SSW,212,2.0,4.0,93,0.05,,,0.08,VWS V14.01,2013-04-20 06:17:00,
2013-04-20 02:18:00,48.7,46.8,29.72,NW,310,2.0,4.0,93,0.05,,,0.08,VWS V14.01,2013-04-20 06:18:00,
2013-04-20 02:19:00,48.7,46.8,29.72,WSW,252,1.0,5.0,93,0.05,,,0.08,VWS V14.01,2013-04-20 06:19:00,
2013-04-20 02:20:00,48.7,46.8,29.72,SW,214,5.0,6.0,93,0.05,,,0.08,VWS V14.01,2013-04-20 06:20:00,
2013-04-20 02:21:00,48.7,46.8,29.72,West,280,5.0,6.0,93,0.05,,,0.08,VWS V14.01,2013-04-20 06:21:00,
2013-04-20 02:22:00,48.7,46.8,29.72,West,280,5.0,6.0,93,0.05,,,0.08,VWS V14.01,2013-04-20 06:22:00,
2013-04-20 02:23:00,48.7,46.8,29.72,West,279,2.0,5.0,93,0.05,,,0.08,VWS V14.01,2013-04-20 06:23:00,
2013-04-20 02:24:00,48.6,46.7,29.72,West,270,2.0,5.0,93,0.05,,,0.09,VWS V14.01,2013-04-20 06:24:00,
2013-04-20 02:25:00,48.6,46.7,29.72,West,265,2.0,5.0,93,0.05,,,0.09,VWS V14.01,2013-04-20 06:25:00,
2013-04-20 02:26:00,48.6,46.7,29.72,West,259,0.0,5.0,93,0.05,,,0.09,VWS V14.01,2013-04-20 06:26:00,
2013-04-20 02:27:00,48.6,46.7,29.72,West,259,0.0,5.0,93,0.05,,,0.09,VWS V14.01,2013-04-20 06:27:00,
2013-04-20 02:28:00,48.6,46.7,29.72,West,259,0.0,5.0,93,0.05,,,0.09,VWS V14.01,2013-04-20 06:28:00,
2013-04-20 02:29:00,48.6,46.7,29.72,WSW,254,2.0,5.0,93,0.05,,,0.09,VWS V14.01,2013-04-20 06:29:00,
2013-04-20 02:30:00,48.5,46.6,29.71,WSW,254,2.0,5.0,93,0.05,,,0.09,VWS V14.01,2013-04-20 06:30:00,
2013-04-20 02:31:00,48.6,46.7,29.71,WSW,254,2.0,5.0,93,0.05,,,0.09,VWS V14.01,2013-04-20 06:31:00,
2013-04-20 02:32:00,48.6,46.7,29.71,WSW,254,2.0,5.0,93,0.05,,,0.09,VWS V14.01,2013-04-20 06:32:00,
2013-04-20 02:33:00,48.6,46.7,29.71,WSW,254,2.0,5.0,93,0.05,,,0.09,VWS V14.01,2013-04-20 06:33:00,
2013-04-20 02:34:00,48.5,46.6,29.71,SW,217,4.0,5.0,93,0.05,,,0.09,VWS V14.01,2013-04-20 06:34:00,
2013-04-20 02:35:00,48.5,46.6,29.71,WSW,257,2.0,5.0,93,0.05,,,0.09,VWS V14.01,2013-04-20 06:35:00,
2013-04-20 02:36:00,48.5,46.6,29.71,WSW,257,2.0,5.0,93,0.05,,,0.09,VWS V14.01,2013-04-20 06:36:00,
2013-04-20 02:37:00,48.5,46.6,29.71,WSW,257,2.0,5.0,93,0.05,,,0.09,VWS V14.01,2013-04-20 06:37:00,
2013-04-20 02:38:00,48.5,46.6,29.71,WSW,257,2.0,5.0,93,0.05,,,0.09,VWS V14.01,2013-04-20 06:38:00,
2013-04-20 02:39:00,48.4,46.5,29.71,WSW,242,0.0,5.0,93,0.05,,,0.09,VWS V14.01,2013-04-20 06:39:00,
2013-04-20 02:40:00,48.3,46.4,29.71,WSW,244,3.0,8.0,93,0.05,,,0.09,VWS V14.01,2013-04-20 06:40:00,
2013-04-20 02:41:00,48.3,46.4,29.71,WSW,244,3.0,8.0,93,0.05,,,0.09,VWS V14.01,2013-04-20 06:41:00,
2013-04-20 02:42:00,48.3,46.4,29.71,WSW,244,3.0,8.0,93,0.05,,,0.09,VWS V14.01,2013-04-20 06:42:00,
2013-04-20 02:43:00,48.3,46.4,29.71,West,268,2.0,4.0,93,0.04,,,0.09,VWS V14.01,2013-04-20 06:43:00,
2013-04-20 02:44:00,48.3,46.4,29.71,West,268,2.0,4.0,93,0.04,,,0.09,VWS V14.01,2013-04-20 06:44:00,
2013-04-20 02:45:00,48.3,46.4,29.70,WSW,258,0.0,4.0,93,0.04,,,0.09,VWS V14.01,2013-04-20 06:45:00,
2013-04-20 02:46:00,48.3,46.4,29.70,WSW,257,0.0,4.0,93,0.04,,,0.09,VWS V14.01,2013-04-20 06:46:00,
2013-04-20 02:47:00,48.3,46.4,29.70,WSW,257,0.0,4.0,93,0.04,,,0.09,VWS V14.01,2013-04-20 06:47:00,
2013-04-20 02:48:00,48.2,46.3,29.70,West,267,4.0,6.0,93,0.04,,,0.09,VWS V14.01,2013-04-20 06:48:00,
2013-04-20 02:49:00,48.2,46.3,29.70,West,270,1.0,7.0,93,0.04,,,0.09,VWS V14.01,2013-04-20 06:49:00,
2013-04-20 02:50:00,48.2,46.3,29.70,West,270,0.0,7.0,93,0.04,,,0.09,VWS V14.01,2013-04-20 06:50:00,
2013-04-20 02:51:00,48.2,46.3,29.70,SSW,209,5.0,5.0,93,0.03,,,0.09,VWS V14.01,2013-04-20 06:51:00,
2013-04-20 02:52:00,48.2,46.3,29.70,SSW,209,5.0,5.0,93,0.03,,,0.09,VWS V14.01,2013-04-20 06:52:00,
2013-04-20 02:53:00,48.2,46.3,29.70,SSW,209,5.0,5.0,93,0.03,,,0.09,VWS V14.01,2013-04-20 06:53:00,
2013-04-20 02:54:00,48.2,46.3,29.70,SSW,198,0.0,5.0,93,0.03,,,0.09,VWS V14.01,2013-04-20 06:54:00,
2013-04-20 02:55:00,48.2,46.3,29.70,SW,217,2.0,5.0,93,0.03,,,0.09,VWS V14.01,2013-04-20 06:55:00,
2013-04-20 02:56:00,48.2,46.3,29.70,SW,217,2.0,5.0,93,0.03,,,0.09,VWS V14.01,2013-04-20 06:56:00,
2013-04-20 02:57:00,48.2,46.3,29.70,SW,217,2.0,5.0,93,0.03,,,0.09,VWS V14.01,2013-04-20 06:57:00,
2013-04-20 02:58:00,48.2,46.3,29.70,SW,217,2.0,5.0,93,0.03,,,0.09,VWS V14.01,2013-04-20 06:58:00,
2013-04-20 02:59:00,48.1,46.2,29.70,NNW,348,1.0,5.0,93,0.03,,,0.09,VWS V14.01,2013-04-20 06:59:00,
2013-04-20 03:00:00,48.1,46.2,29.70,WNW,291,0.0,5.0,93,0.03,,,0.09,VWS V14.01,2013-04-20 07:00:00,
2013-04-20 03:01:00,48.1,46.2,29.70,WSW,245,1.0,4.0,93,0.02,,,0.09,VWS V14.01,2013-04-20 07:01:00,
2013-04-20 03:02:00,48.1,46.2,29.70,WSW,245,1.0,4.0,93,0.02,,,0.09,VWS V14.01,2013-04-20 07:02:00,
2013-04-20 03:03:00,48.1,46.2,29.70,WNW,284,0.0,4.0,93,0.02,,,0.09,VWS V14.01,2013-04-20 07:03:00,
2013-04-20 03:04:00,48.1,46.2,29.70,South,191,3.0,4.0,93,0.02,,,0.09,VWS V14.01,2013-04-20 07:04:00,
2013-04-20 03:05:00,48.1,46.2,29.70,WSW,247,4.0,5.0,93,0.02,,,0.09,VWS V14.01,2013-04-20 07:05:00,
2013-04-20 03:06:00,48.0,46.1,29.70,WSW,238,9.0,9.0,93,0.02,,,0.09,VWS V14.01,2013-04-20 07:06:00,
2013-04-20 03:07:00,48.0,46.1,29.70,WSW,238,9.0,9.0,93,0.02,,,0.09,VWS V14.01,2013-04-20 07:07:00,
2013-04-20 03:08:00,48.0,46.1,29.70,West,271,1.0,9.0,93,0.02,,,0.09,VWS V14.01,2013-04-20 07:08:00,
2013-04-20 03:09:00,47.9,46.0,29.70,West,265,2.0,9.0,93,0.02,,,0.09,VWS V14.01,2013-04-20 07:09:00,
2013-04-20 03:10:00,47.9,46.0,29.70,WNW,291,6.0,9.0,93,0.02,,,0.09,VWS V14.01,2013-04-20 07:10:00,
2013-04-20 03:11:00,47.9,46.0,29.70,WNW,291,6.0,9.0,93,0.02,,,0.09,VWS V14.01,2013-04-20 07:11:00,
2013-04-20 03:12:00,47.9,46.0,29.70,WNW,291,6.0,9.0,93,0.02,,,0.09,VWS V14.01,2013-04-20 07:12:00,
2013-04-20 03:13:00,47.9,46.0,29.70,WSW,251,4.0,6.0,93,0.01,,,0.09,VWS V14.01,2013-04-20 07:13:00,
2013-04-20 03:14:00,47.9,46.0,29.70,NNW,333,5.0,6.0,93,0.01,,,0.09,VWS V14.01,2013-04-20 07:14:00,
2013-04-20 03:15:00,47.9,46.0,29.71,WNW,283,4.0,6.0,93,0.01,,,0.09,VWS V14.01,2013-04-20 07:15:00,
2013-04-20 03:16:00,47.9,46.0,29.71,WNW,283,4.0,6.0,93,0.01,,,0.09,VWS V14.01,2013-04-20 07:16:00,
2013-04-20 03:17:00,47.9,46.0,29.71,WNW,283,4.0,6.0,93,0.01,,,0.09,VWS V14.01,2013-04-20 07:17:00,
2013-04-20 03:18:00,47.8,45.9,29.71,WSW,246,6.0,9.0,93,0.01,,,0.09,VWS V14.01,2013-04-20 07:18:00,
2013-04-20 03:19:00,47.7,45.8,29.71,West,280,2.0,9.0,93,0.01,,,0.09,VWS V14.01,2013-04-20 07:19:00,
2013-04-20 03:20:00,47.7,45.8,29.71,WNW,290,2.0,9.0,93,0.01,,,0.09,VWS V14.01,2013-04-20 07:20:00,
2013-04-20 03:21:00,47.7,45.8,29.71,WNW,290,0.0,9.0,93,0.01,,,0.09,VWS V14.01,2013-04-20 07:21:00,
2013-04-20 03:22:00,47.7,45.8,29.71,WNW,290,0.0,9.0,93,0.01,,,0.09,VWS V14.01,2013-04-20 07:22:00,
2013-04-20 03:23:00,47.7,45.8,29.71,WNW,290,0.0,9.0,93,0.01,,,0.09,VWS V14.01,2013-04-20 07:23:00,
2013-04-20 03:24:00,47.6,45.7,29.71,SSE,159,0.0,2.0,93,0.01,,,0.09,VWS V14.01,2013-04-20 07:24:00,
2013-04-20 03:25:00,47.6,45.7,29.71,WSW,254,0.0,3.0,93,0.01,,,0.09,VWS V14.01,2013-04-20 07:25:00,
2013-04-20 03:26:00,47.6,45.7,29.71,WSW,254,1.0,3.0,93,0.01,,,0.09,VWS V14.01,2013-04-20 07:26:00,
2013-04-20 03:27:00,47.6,45.7,29.71,WSW,254,1.0,3.0,93,0.01,,,0.09,VWS V14.01,2013-04-20 07:27:00,
2013-04-20 03:28:00,47.6,45.7,29.71,WSW,254,1.0,3.0,93,0.01,,,0.09,VWS V14.01,2013-04-20 07:28:00,
2013-04-20 03:29:00,47.5,45.3,29.71,WSW,257,3.0,5.0,92,0.01,,,0.09,VWS V14.01,2013-04-20 07:29:00,
2013-04-20 03:30:00,47.5,45.3,29.72,NNW,329,1.0,5.0,92,0.01,,,0.09,VWS V14.01,2013-04-20 07:30:00,
2013-04-20 03:31:00,47.4,45.2,29.72,NNW,329,0.0,5.0,92,0.01,,,0.09,VWS V14.01,2013-04-20 07:31:00,
2013-04-20 03:32:00,47.4,45.2,29.72,NNW,329,0.0,5.0,92,0.01,,,0.09,VWS V14.01,2013-04-20 07:32:00,
2013-04-20 03:33:00,47.4,45.2,29.72,NNW,329,0.0,5.0,92,0.01,,,0.09,VWS V14.01,2013-04-20 07:33:00,
2013-04-20 03:34:00,47.4,45.2,29.72,West,267,0.0,1.0,92,0.00,,,0.09,VWS V14.01,2013-04-20 07:34:00,
2013-04-20 03:35:00,47.3,45.1,29.72,West,262,3.0,5.0,92,0.00,,,0.09,VWS V14.01,2013-04-20 07:35:00,
2013-04-20 03:36:00,47.3,45.1,29.72,WSW,237,2.0,5.0,92,0.00,,,0.09,VWS V14.01,2013-04-20 07:36:00,
2013-04-20 03:37:00,47.3,45.1,29.72,WNW,302,8.0,8.0,92,0.00,,,0.09,VWS V14.01,2013-04-20 07:37:00,
2013-04-20 03:38:00,47.2,45.0,29.72,SW,221,3.0,8.0,92,0.00,,,0.09,VWS V14.01,2013-04-20 07:38:00,
2013-04-20 03:39:00,47.2,45.0,29.72,WSW,248,3.0,8.0,92,0.00,,,0.09,VWS V14.01,2013-04-20 07:39:00,
2013-04-20 03:40:00,47.2,45.0,29.72,SSW,208,4.0,8.0,92,0.00,,,0.09,VWS V14.01,2013-04-20 07:40:00,
2013-04-20 03:41:00,47.2,45.0,29.72,WSW,254,7.0,8.0,92,0.00,,,0.09,VWS V14.01,2013-04-20 07:41:00,
2013-04-20 03:42:00,47.2,45.0,29.72,WSW,254,7.0,8.0,92,0.00,,,0.09,VWS V14.01,2013-04-20 07:42:00,
2013-04-20 03:43:00,47.1,44.9,29.72,NW,317,1.0,7.0,92,0.00,,,0.09,VWS V14.01,2013-04-20 07:43:00,
2013-04-20 03:44:00,47.1,44.9,29.72,WNW,286,0.0,7.0,92,0.00,,,0.09,VWS V14.01,2013-04-20 07:44:00,
2013-04-20 03:45:00,47.1,44.9,29.72,West,281,2.0,7.0,92,0.00,,,0.09,VWS V14.01,2013-04-20 07:45:00,
2013-04-20 03:46:00,47.1,44.9,29.72,West,277,4.0,7.0,92,0.00,,,0.09,VWS V14.01,2013-04-20 07:46:00,
2013-04-20 03:47:00,47.1,44.9,29.72,West,277,4.0,7.0,92,0.00,,,0.09,VWS V14.01,2013-04-20 07:47:00,
2013-04-20 03:48:00,47.1,44.9,29.72,WNW,286,3.0,7.0,92,0.00,,,0.09,VWS V14.01,2013-04-20 07:48:00,
2013-04-20 03:49:00,47.0,44.8,29.72,WNW,299,0.0,7.0,92,0.00,,,0.09,VWS V14.01,2013-04-20 07:49:00,
2013-04-20 03:50:00,47.0,44.8,29.72,WNW,292,3.0,7.0,92,0.00,,,0.09,VWS V14.01,2013-04-20 07:50:00,
2013-04-20 03:51:00,47.0,44.8,29.72,WNW,291,2.0,7.0,92,0.00,,,0.09,VWS V14.01,2013-04-20 07:51:00,
2013-04-20 03:52:00,47.0,44.8,29.72,WNW,291,2.0,7.0,92,0.00,,,0.09,VWS V14.01,2013-04-20 07:52:00,
2013-04-20 03:53:00,47.0,44.8,29.72,WNW,291,2.0,7.0,92,0.00,,,0.09,VWS V14.01,2013-04-20 07:53:00,
2013-04-20 03:54:00,47.0,44.5,29.72,WSW,254,5.0,5.0,91,0.00,,,0.09,VWS V14.01,2013-04-20 07:54:00,
2013-04-20 03:55:00,47.0,44.5,29.72,WSW,254,3.0,5.0,91,0.00,,,0.09,VWS V14.01,2013-04-20 07:55:00,
2013-04-20 03:56:00,47.0,44.5,29.72,WSW,254,3.0,5.0,91,0.00,,,0.09,VWS V14.01,2013-04-20 07:56:00,
2013-04-20 03:57:00,47.0,44.5,29.72,WSW,254,3.0,5.0,91,0.00,,,0.09,VWS V14.01,2013-04-20 07:57:00,
2013-04-20 03:58:00,47.0,44.5,29.72,WSW,254,3.0,5.0,91,0.00,,,0.09,VWS V14.01,2013-04-20 07:58:00,
2013-04-20 03:59:00,46.9,44.4,29.72,West,272,2.0,5.0,91,0.00,,,0.09,VWS V14.01,2013-04-20 07:59:00,
2013-04-20 04:00:00,46.9,44.4,29.74,West,265,1.0,5.0,91,0.00,,,0.09,VWS V14.01,2013-04-20 08:00:00,
2013-04-20 04:01:00,46.9,44.4,29.74,West,262,3.0,5.0,91,0.00,,,0.09,VWS V14.01,2013-04-20 08:01:00,
2013-04-20 04:02:00,46.9,44.4,29.74,NW,309,6.0,6.0,91,0.00,,,0.09,VWS V14.01,2013-04-20 08:02:00,
2013-04-20 04:03:00,46.9,44.4,29.74,WNW,302,1.0,6.0,91,0.00,,,0.09,VWS V14.01,2013-04-20 08:03:00,
2013-04-20 04:04:00,46.8,44.3,29.74,NW,313,2.0,7.0,91,0.00,,,0.09,VWS V14.01,2013-04-20 08:04:00,
2013-04-20 04:05:00,46.8,44.3,29.74,West,279,0.0,7.0,91,0.00,,,0.09,VWS V14.01,2013-04-20 08:05:00,
2013-04-20 04:06:00,46.8,44.3,29.74,North,5,2.0,7.0,91,0.00,,,0.09,VWS V14.01,2013-04-20 08:06:00,
2013-04-20 04:07:00,46.8,44.3,29.74,North,9,3.0,7.0,91,0.00,,,0.09,VWS V14.01,2013-04-20 08:07:00,
2013-04-20 04:08:00,46.8,44.3,29.74,NW,324,6.0,7.0,91,0.00,,,0.09,VWS V14.01,2013-04-20 08:08:00,
2013-04-20 04:09:00,46.8,44.3,29.74,NW,319,1.0,7.0,91,0.00,,,0.09,VWS V14.01,2013-04-20 08:09:00,
2013-04-20 04:10:00,46.8,44.3,29.74,WNW,284,3.0,7.0,91,0.00,,,0.09,VWS V14.01,2013-04-20 08:10:00,
2013-04-20 04:11:00,46.8,44.3,29.74,WSW,258,3.0,7.0,91,0.00,,,0.09,VWS V14.01,2013-04-20 08:11:00,
2013-04-20 04:12:00,46.8,44.3,29.74,WSW,258,3.0,7.0,91,0.00,,,0.09,VWS V14.01,2013-04-20 08:12:00,
2013-04-20 04:13:00,46.7,44.2,29.74,NNE,12,0.0,3.0,91,0.00,,,0.09,VWS V14.01,2013-04-20 08:13:00,
2013-04-20 04:14:00,46.7,44.2,29.74,WSW,247,1.0,3.0,91,0.00,,,0.09,VWS V14.01,2013-04-20 08:14:00,
2013-04-20 04:15:00,46.7,44.2,29.74,West,275,0.0,3.0,91,0.00,,,0.09,VWS V14.01,2013-04-20 08:15:00,
2013-04-20 04:16:00,46.7,44.2,29.74,West,275,0.0,3.0,91,0.00,,,0.09,VWS V14.01,2013-04-20 08:16:00,
2013-04-20 04:17:00,46.7,44.2,29.74,West,275,0.0,3.0,91,0.00,,,0.09,VWS V14.01,2013-04-20 08:17:00,
2013-04-20 04:18:00,46.7,44.2,29.74,North,5,1.0,3.0,91,0.00,,,0.09,VWS V14.01,2013-04-20 08:18:00,
2013-04-20 04:19:00,46.7,44.2,29.74,North,5,0.0,3.0,91,0.00,,,0.09,VWS V14.01,2013-04-20 08:19:00,
2013-04-20 04:20:00,46.7,44.2,29.74,WSW,253,3.0,7.0,91,0.00,,,0.09,VWS V14.01,2013-04-20 08:20:00,
2013-04-20 04:21:00,46.7,44.2,29.74,NW,315,4.0,4.0,91,0.00,,,0.09,VWS V14.01,2013-04-20 08:21:00,
2013-04-20 04:22:00,46.7,44.2,29.74,NW,315,4.0,4.0,91,0.00,,,0.09,VWS V14.01,2013-04-20 08:22:00,
2013-04-20 04:23:00,46.7,43.9,29.74,NW,323,0.0,4.0,90,0.00,,,0.09,VWS V14.01,2013-04-20 08:23:00,
2013-04-20 04:24:00,46.7,43.9,29.74,West,275,0.0,4.0,90,0.00,,,0.09,VWS V14.01,2013-04-20 08:24:00,
2013-04-20 04:25:00,46.7,43.9,29.74,SSE,153,5.0,5.0,90,0.00,,,0.09,VWS V14.01,2013-04-20 08:25:00,
2013-04-20 04:26:00,46.7,43.9,29.74,SSW,195,4.0,5.0,90,0.00,,,0.09,VWS V14.01,2013-04-20 08:26:00,
2013-04-20 04:27:00,46.7,43.9,29.74,SSW,195,4.0,5.0,90,0.00,,,0.09,VWS V14.01,2013-04-20 08:27:00,
2013-04-20 04:28:00,46.7,43.9,29.74,SSW,195,4.0,5.0,90,0.00,,,0.09,VWS V14.01,2013-04-20 08:28:00,
2013-04-20 04:29:00,46.7,43.9,29.74,West,265,2.0,5.0,90,0.01,,,0.10,VWS V14.01,2013-04-20 08:29:00,
2013-04-20 04:30:00,46.7,43.9,29.76,NNW,340,4.0,5.0,90,0.01,,,0.10,VWS V14.01,2013-04-20 08:30:00,
2013-04-20 04:31:00,46.7,43.9,29.76,WSW,237,4.0,4.0,90,0.01,,,0.10,VWS V14.01,2013-04-20 08:31:00,
2013-04-20 04:32:00,46.6,43.8,29.76,WSW,257,0.0,4.0,90,0.01,,,0.10,VWS V14.01,2013-04-20 08:32:00,
2013-04-20 04:33:00,46.6,43.8,29.76,WSW,257,0.0,4.0,90,0.01,,,0.10,VWS V14.01,2013-04-20 08:33:00,
2013-04-20 04:34:00,46.6,43.8,29.76,WSW,257,2.0,4.0,90,0.01,,,0.10,VWS V14.01,2013-04-20 08:34:00,
2013-04-20 04:35:00,46.6,43.8,29.76,WSW,257,2.0,4.0,90,0.01,,,0.10,VWS V14.01,2013-04-20 08:35:00,
2013-04-20 04:36:00,46.6,43.8,29.76,WSW,257,1.0,4.0,90,0.01,,,0.10,VWS V14.01,2013-04-20 08:36:00,
2013-04-20 04:37:00,46.6,43.8,29.76,WSW,257,1.0,4.0,90,0.01,,,0.10,VWS V14.01,2013-04-20 08:37:00,
2013-04-20 04:38:00,46.6,43.8,29.76,WSW,257,1.0,4.0,90,0.01,,,0.10,VWS V14.01,2013-04-20 08:38:00,
2013-04-20 04:39:00,46.6,43.8,29.76,West,263,1.0,4.0,90,0.01,,,0.10,VWS V14.01,2013-04-20 08:39:00,
2013-04-20 04:40:00,46.6,43.8,29.76,West,266,1.0,4.0,90,0.01,,,0.10,VWS V14.01,2013-04-20 08:40:00,
2013-04-20 04:41:00,46.6,43.8,29.76,West,266,0.0,4.0,90,0.01,,,0.10,VWS V14.01,2013-04-20 08:41:00,
2013-04-20 04:42:00,46.6,43.8,29.76,West,266,0.0,4.0,90,0.01,,,0.10,VWS V14.01,2013-04-20 08:42:00,
2013-04-20 04:43:00,46.6,43.8,29.76,West,266,0.0,4.0,90,0.01,,,0.10,VWS V14.01,2013-04-20 08:43:00,
2013-04-20 04:44:00,46.5,43.7,29.76,West,264,0.0,3.0,90,0.01,,,0.10,VWS V14.01,2013-04-20 08:44:00,
2013-04-20 04:45:00,46.5,43.7,29.76,West,270,3.0,3.0,90,0.01,,,0.10,VWS V14.01,2013-04-20 08:45:00,
2013-04-20 04:46:00,46.5,43.7,29.76,West,270,2.0,3.0,90,0.01,,,0.10,VWS V14.01,2013-04-20 08:46:00,
2013-04-20 04:47:00,46.5,43.7,29.76,West,270,2.0,3.0,90,0.01,,,0.10,VWS V14.01,2013-04-20 08:47:00,
2013-04-20 04:48:00,46.5,43.7,29.76,West,281,2.0,3.0,90,0.01,,,0.10,VWS V14.01,2013-04-20 08:48:00,
2013-04-20 04:49:00,46.5,43.7,29.76,NW,318,0.0,4.0,90,0.01,,,0.10,VWS V14.01,2013-04-20 08:49:00,
2013-04-20 04:50:00,46.4,43.6,29.76,NNW,339,0.0,4.0,90,0.01,,,0.10,VWS V14.01,2013-04-20 08:50:00,
2013-04-20 04:51:00,46.4,43.6,29.76,NNW,339,0.0,4.0,90,0.01,,,0.10,VWS V14.01,2013-04-20 08:51:00,
2013-04-20 04:52:00,46.4,43.6,29.76,NNW,339,0.0,4.0,90,0.01,,,0.10,VWS V14.01,2013-04-20 08:52:00,
2013-04-20 04:53:00,46.3,43.5,29.76,WSW,241,1.0,4.0,90,0.01,,,0.10,VWS V14.01,2013-04-20 08:53:00,
2013-04-20 04:54:00,46.3,43.5,29.76,West,263,2.0,4.0,90,0.01,,,0.10,VWS V14.01,2013-04-20 08:54:00,
2013-04-20 04:55:00,46.3,43.5,29.76,WSW,257,0.0,4.0,90,0.01,,,0.10,VWS V14.01,2013-04-20 08:55:00,
2013-04-20 04:56:00,46.3,43.5,29.76,WSW,257,0.0,4.0,90,0.01,,,0.10,VWS V14.01,2013-04-20 08:56:00,
2013-04-20 04:57:00,46.3,43.5,29.76,WSW,257,0.0,4.0,90,0.01,,,0.10,VWS V14.01,2013-04-20 08:57:00,
2013-04-20 04:58:00,46.2,43.4,29.76,WNW,294,0.0,4.0,90,0.01,,,0.10,VWS V14.01,2013-04-20 08:58:00,
2013-04-20 04:59:00,46.2,43.4,29.76,West,259,0.0,5.0,90,0.01,,,0.10,VWS V14.01,2013-04-20 08:59:00,
2013-04-20 05:00:00,46.2,43.4,29.78,West,259,0.0,5.0,90,0.01,,,0.10,VWS V14.01,2013-04-20 09:00:00,
2013-04-20 05:01:00,46.2,43.4,29.78,West,259,0.0,5.0,90,0.01,,,0.10,VWS V14.01,2013-04-20 09:01:00,
2013-04-20 05:02:00,46.2,43.4,29.78,West,259,0.0,5.0,90,0.01,,,0.10,VWS V14.01,2013-04-20 09:02:00,
2013-04-20 05:03:00,46.2,43.4,29.78,West,259,0.0,5.0,90,0.01,,,0.10,VWS V14.01,2013-04-20 09:03:00,
2013-04-20 05:04:00,46.1,43.3,29.78,South,173,1.0,2.0,90,0.01,,,0.10,VWS V14.01,2013-04-20 09:04:00,
2013-04-20 05:05:00,46.1,43.3,29.78,NNW,335,0.0,5.0,90,0.01,,,0.10,VWS V14.01,2013-04-20 09:05:00,
2013-04-20 05:06:00,46.1,43.3,29.78,NNW,335,0.0,5.0,90,0.01,,,0.10,VWS V14.01,2013-04-20 09:06:00,
2013-04-20 05:07:00,46.1,43.3,29.78,NNW,335,0.0,5.0,90,0.01,,,0.10,VWS V14.01,2013-04-20 09:07:00,
2013-04-20 05:08:00,46.1,43.3,29.78,NNW,335,0.0,5.0,90,0.01,,,0.10,VWS V14.01,2013-04-20 09:08:00,
2013-04-20 05:09:00,45.9,43.1,29.78,WSW,240,2.0,5.0,90,0.01,,,0.10,VWS V14.01,2013-04-20 09:09:00,
2013-04-20 05:10:00,45.9,43.1,29.78,WSW,240,2.0,5.0,90,0.01,,,0.10,VWS V14.01,2013-04-20 09:10:00,
2013-04-20 05:11:00,45.9,43.1,29.78,WSW,240,3.0,5.0,90,0.01,,,0.10,VWS V14.01,2013-04-20 09:11:00,
2013-04-20 05:12:00,45.9,43.1,29.78,WSW,240,3.0,5.0,90,0.01,,,0.10,VWS V14.01,2013-04-20 09:12:00,
2013-04-20 05:13:00,45.9,43.1,29.78,WSW,240,3.0,5.0,90,0.01,,,0.10,VWS V14.01,2013-04-20 09:13:00,
2013-04-20 05:14:00,45.7,42.7,29.78,West,277,1.0,4.0,89,0.01,,,0.10,VWS V14.01,2013-04-20 09:14:00,
2013-04-20 05:15:00,45.7,42.7,29.79,West,277,0.0,4.0,89,0.01,,,0.10,VWS V14.01,2013-04-20 09:15:00,
2013-04-20 05:16:00,45.7,42.7,29.79,West,277,0.0,4.0,89,0.01,,,0.10,VWS V14.01,2013-04-20 09:16:00,
2013-04-20 05:17:00,45.7,42.7,29.79,West,277,0.0,4.0,89,0.01,,,0.10,VWS V14.01,2013-04-20 09:17:00,
2013-04-20 05:18:00,45.6,42.5,29.79,WSW,257,4.0,6.0,89,0.01,,,0.10,VWS V14.01,2013-04-20 09:18:00,
2013-04-20 05:19:00,45.6,42.5,29.79,WSW,257,1.0,6.0,89,0.01,,,0.10,VWS V14.01,2013-04-20 09:19:00,
2013-04-20 05:20:00,45.6,42.5,29.79,WNW,297,4.0,6.0,89,0.01,,,0.10,VWS V14.01,2013-04-20 09:20:00,
2013-04-20 05:21:00,45.5,42.5,29.79,West,277,4.0,6.0,89,0.01,,,0.10,VWS V14.01,2013-04-20 09:21:00,
2013-04-20 05:22:00,45.5,42.5,29.79,West,277,4.0,6.0,89,0.01,,,0.10,VWS V14.01,2013-04-20 09:22:00,
2013-04-20 05:23:00,45.5,42.5,29.79,SW,219,3.0,4.0,89,0.01,,,0.10,VWS V14.01,2013-04-20 09:23:00,
2013-04-20 05:24:00,45.5,42.5,29.79,SW,220,2.0,4.0,89,0.01,,,0.10,VWS V14.01,2013-04-20 09:24:00,
2013-04-20 05:25:00,45.5,42.5,29.79,SW,223,3.0,4.0,89,0.01,,,0.10,VWS V14.01,2013-04-20 09:25:00,
2013-04-20 05:26:00,45.5,42.5,29.79,WSW,242,4.0,4.0,89,0.01,,,0.10,VWS V14.01,2013-04-20 09:26:00,
2013-04-20 05:27:00,45.5,42.5,29.79,WSW,242,4.0,4.0,89,0.01,,,0.10,VWS V14.01,2013-04-20 09:27:00,
2013-04-20 05:28:00,45.5,42.5,29.79,West,269,0.0,4.0,89,0.01,,,0.10,VWS V14.01,2013-04-20 09:28:00,
2013-04-20 05:29:00,45.5,42.5,29.79,West,269,0.0,4.0,89,0.01,,,0.10,VWS V14.01,2013-04-20 09:29:00,
2013-04-20 05:30:00,45.5,42.5,29.79,WSW,248,0.0,5.0,89,0.01,,,0.10,VWS V14.01,2013-04-20 09:30:00,
2013-04-20 05:31:00,45.5,42.5,29.79,WSW,248,0.0,5.0,89,0.01,,,0.10,VWS V14.01,2013-04-20 09:31:00,
2013-04-20 05:32:00,45.5,42.5,29.79,WSW,248,0.0,5.0,89,0.01,,,0.10,VWS V14.01,2013-04-20 09:32:00,
2013-04-20 05:33:00,45.5,42.5,29.79,WSW,248,0.0,5.0,89,0.01,,,0.10,VWS V14.01,2013-04-20 09:33:00,
2013-04-20 05:34:00,45.5,42.5,29.79,WNW,286,7.0,7.0,89,0.00,,,0.10,VWS V14.01,2013-04-20 09:34:00,
2013-04-20 05:35:00,45.4,42.3,29.79,WNW,290,1.0,7.0,89,0.00,,,0.10,VWS V14.01,2013-04-20 09:35:00,
2013-04-20 05:36:00,45.4,42.3,29.79,WNW,290,1.0,7.0,89,0.00,,,0.10,VWS V14.01,2013-04-20 09:36:00,
2013-04-20 05:37:00,45.4,42.3,29.79,WNW,290,1.0,7.0,89,0.00,,,0.10,VWS V14.01,2013-04-20 09:37:00,
2013-04-20 05:38:00,45.4,42.1,29.79,WNW,285,2.0,7.0,88,0.00,,,0.10,VWS V14.01,2013-04-20 09:38:00,
2013-04-20 05:39:00,45.4,42.3,29.79,WNW,285,0.0,7.0,89,0.00,,,0.10,VWS V14.01,2013-04-20 09:39:00,
2013-04-20 05:40:00,45.5,42.5,29.79,WSW,239,5.0,7.0,89,0.00,,,0.10,VWS V14.01,2013-04-20 09:40:00,
2013-04-20 05:41:00,45.5,42.5,29.79,WSW,242,7.0,7.0,89,0.00,,,0.10,VWS V14.01,2013-04-20 09:41:00,
2013-04-20 05:42:00,45.5,42.5,29.79,WSW,242,7.0,7.0,89,0.00,,,0.10,VWS V14.01,2013-04-20 09:42:00,
2013-04-20 05:43:00,45.5,42.5,29.79,WSW,242,7.0,7.0,89,0.00,,,0.10,VWS V14.01,2013-04-20 09:43:00,
2013-04-20 05:44:00,45.5,42.5,29.79,WSW,258,2.0,4.0,89,0.00,,,0.10,VWS V14.01,2013-04-20 09:44:00,
2013-04-20 05:45:00,45.5,42.5,29.80,West,271,6.0,7.0,89,0.00,,,0.10,VWS V14.01,2013-04-20 09:45:00,
2013-04-20 05:46:00,45.5,42.2,29.80,WNW,296,0.0,7.0,88,0.00,,,0.10,VWS V14.01,2013-04-20 09:46:00,
2013-04-20 05:47:00,45.4,42.1,29.80,WNW,296,0.0,7.0,88,0.00,,,0.10,VWS V14.01,2013-04-20 09:47:00,
2013-04-20 05:48:00,45.5,42.2,29.80,WNW,296,0.0,7.0,88,0.00,,,0.10,VWS V14.01,2013-04-20 09:48:00,
2013-04-20 05:49:00,45.5,42.2,29.80,WSW,252,7.0,7.0,88,0.00,,,0.10,VWS V14.01,2013-04-20 09:49:00,
2013-04-20 05:50:00,45.5,42.2,29.80,West,263,2.0,7.0,88,0.00,,,0.10,VWS V14.01,2013-04-20 09:50:00,
2013-04-20 05:51:00,45.5,42.2,29.80,West,265,3.0,7.0,88,0.00,,,0.10,VWS V14.01,2013-04-20 09:51:00,
2013-04-20 05:52:00,45.5,42.2,29.80,WSW,238,8.0,8.0,88,0.00,,,0.10,VWS V14.01,2013-04-20 09:52:00,
2013-04-20 05:53:00,45.4,42.1,29.80,WSW,240,3.0,8.0,88,0.00,,,0.10,VWS V14.01,2013-04-20 09:53:00,
2013-04-20 05:54:00,45.4,42.1,29.80,WSW,242,1.0,8.0,88,0.00,,,0.10,VWS V14.01,2013-04-20 09:54:00,
2013-04-20 05:55:00,45.4,42.1,29.80,NW,321,2.0,8.0,88,0.00,,,0.10,VWS V14.01,2013-04-20 09:55:00,
2013-04-20 05:56:00,45.4,42.1,29.80,NW,321,2.0,8.0,88,0.00,,,0.10,VWS V14.01,2013-04-20 09:56:00,
2013-04-20 05:57:00,45.4,42.1,29.80,NW,321,2.0,8.0,88,0.00,,,0.10,VWS V14.01,2013-04-20 09:57:00,
2013-04-20 05:58:00,45.5,42.2,29.80,SW,227,0.0,8.0,88,0.00,,,0.10,VWS V14.01,2013-04-20 09:58:00,
2013-04-20 05:59:00,45.5,42.2,29.80,WSW,247,1.0,8.0,88,0.00,,,0.10,VWS V14.01,2013-04-20 09:59:00,
2013-04-20 06:00:00,45.5,41.9,29.80,West,267,5.0,9.0,87,0.00,,,0.10,VWS V14.01,2013-04-20 10:00:00,
2013-04-20 06:01:00,45.5,41.9,29.80,West,267,5.0,9.0,87,0.00,,,0.10,VWS V14.01,2013-04-20 10:01:00,
2013-04-20 06:02:00,45.5,41.9,29.80,West,267,5.0,9.0,87,0.00,,,0.10,VWS V14.01,2013-04-20 10:02:00,
2013-04-20 06:03:00,45.5,41.9,29.80,NW,304,0.0,5.0,87,0.00,,,0.10,VWS V14.01,2013-04-20 10:03:00,
2013-04-20 06:04:00,45.5,41.9,29.80,WNW,298,2.0,5.0,87,0.00,,,0.10,VWS V14.01,2013-04-20 10:04:00,
2013-04-20 06:05:00,45.4,41.8,29.80,WNW,287,2.0,5.0,87,0.00,,,0.10,VWS V14.01,2013-04-20 10:05:00,
2013-04-20 06:06:00,45.4,41.8,29.80,WNW,287,2.0,5.0,87,0.00,,,0.10,VWS V14.01,2013-04-20 10:06:00,
2013-04-20 06:07:00,45.4,41.8,29.80,WNW,287,2.0,5.0,87,0.00,,,0.10,VWS V14.01,2013-04-20 10:07:00,
2013-04-20 06:08:00,45.4,41.8,29.80,WNW,287,2.0,5.0,87,0.00,,,0.10,VWS V14.01,2013-04-20 10:08:00,
2013-04-20 06:09:00,45.4,41.5,29.80,West,279,1.0,5.0,86,0.00,,,0.10,VWS V14.01,2013-04-20 10:09:00,
2013-04-20 06:10:00,45.4,41.2,29.80,NW,309,2.0,13.0,85,0.00,,,0.10,VWS V14.01,2013-04-20 10:10:00,
2013-04-20 06:11:00,45.4,41.2,29.80,NW,309,2.0,13.0,85,0.00,,,0.10,VWS V14.01,2013-04-20 10:11:00,
2013-04-20 06:12:00,45.4,41.2,29.80,NW,309,2.0,13.0,85,0.00,,,0.10,VWS V14.01,2013-04-20 10:12:00,
2013-04-20 06:13:00,45.4,41.2,29.80,West,277,5.0,6.0,85,0.00,,,0.10,VWS V14.01,2013-04-20 10:13:00,
2013-04-20 06:14:00,45.4,41.2,29.80,West,259,0.0,6.0,85,0.00,,,0.10,VWS V14.01,2013-04-20 10:14:00,
2013-04-20 06:15:00,45.4,41.2,29.82,SW,227,1.0,6.0,85,0.00,,,0.10,VWS V14.01,2013-04-20 10:15:00,
2013-04-20 06:16:00,45.4,41.2,29.82,SW,227,1.0,6.0,85,0.00,,,0.10,VWS V14.01,2013-04-20 10:16:00,
2013-04-20 06:17:00,45.4,41.2,29.82,SW,227,1.0,6.0,85,0.00,,,0.10,VWS V14.01,2013-04-20 10:17:00,
2013-04-20 06:18:00,45.4,41.2,29.82,SW,227,1.0,6.0,85,0.00,,,0.10,VWS V14.01,2013-04-20 10:18:00,
2013-04-20 06:19:00,45.4,40.5,29.82,WNW,297,1.0,6.0,83,0.00,,,0.10,VWS V14.01,2013-04-20 10:19:00,
2013-04-20 06:20:00,45.4,40.5,29.82,WNW,296,0.0,6.0,83,0.00,,,0.10,VWS V14.01,2013-04-20 10:20:00,
2013-04-20 06:21:00,45.4,40.5,29.82,SW,234,3.0,3.0,83,0.00,,,0.10,VWS V14.01,2013-04-20 10:21:00,
2013-04-20 06:22:00,45.4,40.5,29.82,SW,234,3.0,3.0,83,0.00,,,0.10,VWS V14.01,2013-04-20 10:22:00,
2013-04-20 06:23:00,45.4,40.5,29.82,SW,234,0.0,4.0,83,0.00,,,0.10,VWS V14.01,2013-04-20 10:23:00,
2013-04-20 06:24:00,45.4,40.2,29.82,SW,223,2.0,4.0,82,0.00,,,0.10,VWS V14.01,2013-04-20 10:24:00,
2013-04-20 06:25:00,45.3,40.1,29.82,West,281,6.0,9.0,82,0.00,,,0.10,VWS V14.01,2013-04-20 10:25:00,
2013-04-20 06:26:00,45.4,40.2,29.82,West,259,3.0,9.0,82,0.00,,,0.10,VWS V14.01,2013-04-20 10:26:00,
2013-04-20 06:27:00,45.4,40.2,29.82,West,259,3.0,9.0,82,0.00,,,0.10,VWS V14.01,2013-04-20 10:27:00,
2013-04-20 06:28:00,45.3,39.8,29.82,NNW,330,5.0,10.0,81,0.00,,,0.10,VWS V14.01,2013-04-20 10:28:00,
2013-04-20 06:29:00,45.3,39.5,29.82,West,281,8.0,10.0,80,0.00,,,0.10,VWS V14.01,2013-04-20 10:29:00,
2013-04-20 06:30:00,45.3,39.5,29.82,West,263,0.0,10.0,80,0.00,,,0.10,VWS V14.01,2013-04-20 10:30:00,
2013-04-20 06:31:00,45.3,39.5,29.82,West,263,0.0,10.0,80,0.00,,,0.10,VWS V14.01,2013-04-20 10:31:00,
2013-04-20 06:32:00,45.3,39.5,29.82,West,263,0.0,10.0,80,0.00,,,0.10,VWS V14.01,2013-04-20 10:32:00,
2013-04-20 06:33:00,45.3,39.5,29.82,West,263,0.0,10.0,80,0.00,,,0.10,VWS V14.01,2013-04-20 10:33:00,
2013-04-20 06:34:00,45.2,39.1,29.82,NW,304,2.0,6.0,79,0.00,,,0.10,VWS V14.01,2013-04-20 10:34:00,
2013-04-20 06:35:00,45.2,39.1,29.82,West,277,7.0,7.0,79,0.00,,,0.10,VWS V14.01,2013-04-20 10:35:00,
2013-04-20 06:36:00,45.2,39.1,29.82,West,277,7.0,7.0,79,0.00,,,0.10,VWS V14.01,2013-04-20 10:36:00,
2013-04-20 06:37:00,45.2,39.1,29.82,West,277,7.0,7.0,79,0.00,,,0.10,VWS V14.01,2013-04-20 10:37:00,
2013-04-20 06:38:00,45.2,39.1,29.82,West,277,7.0,7.0,79,0.00,,,0.10,VWS V14.01,2013-04-20 10:38:00,
2013-04-20 06:39:00,45.2,39.1,29.82,WSW,246,9.0,9.0,79,0.00,,,0.10,VWS V14.01,2013-04-20 10:39:00,
2013-04-20 06:40:00,45.2,38.8,29.82,West,279,4.0,9.0,78,0.00,,,0.10,VWS V14.01,2013-04-20 10:40:00,
2013-04-20 06:41:00,45.2,38.8,29.82,West,279,4.0,9.0,78,0.00,,,0.10,VWS V14.01,2013-04-20 10:41:00,
2013-04-20 06:42:00,45.2,38.8,29.82,West,279,4.0,9.0,78,0.00,,,0.10,VWS V14.01,2013-04-20 10:42:00,
2013-04-20 06:43:00,45.2,39.1,29.82,WSW,258,10.0,10.0,79,0.00,,,0.10,VWS V14.01,2013-04-20 10:43:00,
2013-04-20 06:44:00,45.2,39.1,29.82,WSW,255,3.0,10.0,79,0.00,,,0.10,VWS V14.01,2013-04-20 10:44:00,
2013-04-20 06:45:00,45.2,38.8,29.83,WSW,248,4.0,10.0,78,0.00,,,0.10,VWS V14.01,2013-04-20 10:45:00,
2013-04-20 06:46:00,45.2,38.8,29.83,WSW,248,4.0,10.0,78,0.00,,,0.10,VWS V14.01,2013-04-20 10:46:00,
2013-04-20 06:47:00,45.2,38.8,29.83,WSW,248,4.0,10.0,78,0.00,,,0.10,VWS V14.01,2013-04-20 10:47:00,
2013-04-20 06:48:00,45.2,38.8,29.83,WSW,248,4.0,10.0,78,0.00,,,0.10,VWS V14.01,2013-04-20 10:48:00,
2013-04-20 06:49:00,45.1,38.3,29.83,WSW,237,2.0,10.0,77,0.00,,,0.10,VWS V14.01,2013-04-20 10:49:00,
2013-04-20 06:50:00,45.1,38.0,29.83,West,277,3.0,10.0,76,0.00,,,0.10,VWS V14.01,2013-04-20 10:50:00,
2013-04-20 06:51:00,45.1,38.0,29.83,West,276,1.0,10.0,76,0.00,,,0.10,VWS V14.01,2013-04-20 10:51:00,
2013-04-20 06:52:00,45.1,38.0,29.83,West,276,1.0,10.0,76,0.00,,,0.10,VWS V14.01,2013-04-20 10:52:00,
2013-04-20 06:53:00,45.0,37.6,29.83,SSW,203,3.0,3.0,75,0.00,,,0.10,VWS V14.01,2013-04-20 10:53:00,
2013-04-20 06:54:00,45.1,37.7,29.83,SSW,203,1.0,3.0,75,0.00,,,0.10,VWS V14.01,2013-04-20 10:54:00,
2013-04-20 06:55:00,45.1,37.7,29.83,WNW,287,5.0,5.0,75,0.00,,,0.10,VWS V14.01,2013-04-20 10:55:00,
2013-04-20 06:56:00,45.1,37.7,29.83,WSW,256,12.0,12.0,75,0.00,,,0.10,VWS V14.01,2013-04-20 10:56:00,
2013-04-20 06:57:00,45.1,37.7,29.83,WSW,256,12.0,12.0,75,0.00,,,0.10,VWS V14.01,2013-04-20 10:57:00,
2013-04-20 06:58:00,45.0,37.2,29.83,West,269,12.0,13.0,74,0.00,,,0.10,VWS V14.01,2013-04-20 10:58:00,
2013-04-20 06:59:00,45.0,37.2,29.83,WNW,302,7.0,13.0,74,0.00,,,0.10,VWS V14.01,2013-04-20 10:59:00,
2013-04-20 07:00:00,45.0,37.2,29.84,WSW,240,5.0,13.0,74,0.00,,,0.10,VWS V14.01,2013-04-20 11:00:00,
2013-04-20 07:01:00,45.0,37.2,29.84,WSW,238,3.0,13.0,74,0.00,,,0.10,VWS V14.01,2013-04-20 11:01:00,
2013-04-20 07:02:00,45.0,37.2,29.84,SW,233,5.0,7.0,74,0.00,,,0.10,VWS V14.01,2013-04-20 11:02:00,
2013-04-20 07:03:00,45.0,37.2,29.84,West,263,1.0,7.0,74,0.00,,,0.10,VWS V14.01,2013-04-20 11:03:00,
2013-04-20 07:04:00,45.0,37.2,29.84,West,263,0.0,7.0,74,0.00,,,0.10,VWS V14.01,2013-04-20 11:04:00,
2013-04-20 07:05:00,45.0,37.2,29.84,West,263,1.0,7.0,74,0.00,,,0.10,VWS V14.01,2013-04-20 11:05:00,
2013-04-20 07:06:00,45.0,37.2,29.84,West,263,2.0,7.0,74,0.00,,,0.10,VWS V14.01,2013-04-20 11:06:00,
2013-04-20 07:07:00,45.0,37.2,29.84,WSW,256,4.0,7.0,74,0.00,,,0.10,VWS V14.01,2013-04-20 11:07:00,
2013-04-20 07:08:00,45.0,37.2,29.84,West,275,4.0,7.0,74,0.00,,,0.10,VWS V14.01,2013-04-20 11:08:00,
2013-04-20 07:09:00,45.0,37.2,29.84,WSW,250,8.0,8.0,74,0.00,,,0.10,VWS V14.01,2013-04-20 11:09:00,
2013-04-20 07:10:00,45.0,37.2,29.84,NW,317,9.0,10.0,74,0.00,,,0.10,VWS V14.01,2013-04-20 11:10:00,
2013-04-20 07:11:00,45.0,37.2,29.84,NW,317,9.0,10.0,74,0.00,,,0.10,VWS V14.01,2013-04-20 11:11:00,
2013-04-20 07:12:00,45.0,37.2,29.84,NW,317,9.0,10.0,74,0.00,,,0.10,VWS V14.01,2013-04-20 11:12:00,
2013-04-20 07:13:00,45.0,37.2,29.84,NW,317,9.0,10.0,74,0.00,,,0.10,VWS V14.01,2013-04-20 11:13:00,
2013-04-20 07:14:00,44.9,36.8,29.84,WNW,284,5.0,9.0,73,0.00,,,0.10,VWS V14.01,2013-04-20 11:14:00,
2013-04-20 07:15:00,44.9,36.8,29.84,WNW,284,1.0,9.0,73,0.00,,,0.10,VWS V14.01,2013-04-20 11:15:00,
2013-04-20 07:16:00,44.9,36.8,29.84,WNW,282,2.0,9.0,73,0.00,,,0.10,VWS V14.01,2013-04-20 11:16:00,
2013-04-20 07:17:00,44.9,36.8,29.84,WNW,282,2.0,9.0,73,0.00,,,0.10,VWS V14.01,2013-04-20 11:17:00,
2013-04-20 07:18:00,44.9,36.8,29.84,SW,232,3.0,9.0,73,0.00,,,0.10,VWS V14.01,2013-04-20 11:18:00,
2013-04-20 07:19:00,44.9,36.4,29.84,NNW,340,5.0,9.0,72,0.00,,,0.10,VWS V14.01,2013-04-20 11:19:00,
2013-04-20 07:20:00,44.9,36.4,29.84,NE,55,2.0,9.0,72,0.00,,,0.10,VWS V14.01,2013-04-20 11:20:00,
2013-04-20 07:21:00,44.9,36.4,29.84,NE,55,2.0,9.0,72,0.00,,,0.10,VWS V14.01,2013-04-20 11:21:00,
2013-04-20 07:22:00,44.9,36.4,29.84,NE,55,2.0,9.0,72,0.00,,,0.10,VWS V14.01,2013-04-20 11:22:00,
2013-04-20 07:23:00,44.9,36.4,29.84,NE,55,2.0,9.0,72,0.00,,,0.10,VWS V14.01,2013-04-20 11:23:00,
2013-04-20 07:24:00,44.9,36.4,29.84,SW,231,3.0,5.0,72,0.00,,,0.10,VWS V14.01,2013-04-20 11:24:00,
2013-04-20 07:25:00,44.9,36.4,29.84,South,178,3.0,8.0,72,0.00,,,0.10,VWS V14.01,2013-04-20 11:25:00,
2013-04-20 07:26:00,44.9,36.4,29.84,WSW,254,6.0,8.0,72,0.00,,,0.10,VWS V14.01,2013-04-20 11:26:00,
2013-04-20 07:27:00,44.9,36.4,29.84,WSW,254,6.0,8.0,72,0.00,,,0.10,VWS V14.01,2013-04-20 11:27:00,
2013-04-20 07:28:00,44.9,36.4,29.84,West,265,8.0,8.0,72,0.00,,,0.10,VWS V14.01,2013-04-20 11:28:00,
2013-04-20 07:29:00,44.9,36.1,29.84,SSW,201,2.0,8.0,71,0.00,,,0.10,VWS V14.01,2013-04-20 11:29:00,
2013-04-20 07:30:00,44.9,36.1,29.85,WNW,287,3.0,8.0,71,0.00,,,0.10,VWS V14.01,2013-04-20 11:30:00,
2013-04-20 07:31:00,44.9,36.1,29.85,SW,223,7.0,8.0,71,0.00,,,0.10,VWS V14.01,2013-04-20 11:31:00,
2013-04-20 07:32:00,44.9,36.1,29.85,SW,223,7.0,8.0,71,0.00,,,0.10,VWS V14.01,2013-04-20 11:32:00,
2013-04-20 07:33:00,44.9,36.4,29.85,WSW,247,9.0,9.0,72,0.00,,,0.10,VWS V14.01,2013-04-20 11:33:00,
2013-04-20 07:34:00,44.9,36.4,29.85,WNW,293,7.0,13.0,72,0.00,,,0.10,VWS V14.01,2013-04-20 11:34:00,
2013-04-20 07:35:00,44.9,36.1,29.85,West,270,4.0,13.0,71,0.00,,,0.10,VWS V14.01,2013-04-20 11:35:00,
2013-04-20 07:36:00,44.9,36.1,29.85,WSW,244,5.0,13.0,71,0.00,,,0.10,VWS V14.01,2013-04-20 11:36:00,
2013-04-20 07:37:00,44.9,36.1,29.85,WSW,244,5.0,13.0,71,0.00,,,0.10,VWS V14.01,2013-04-20 11:37:00,
2013-04-20 07:38:00,44.9,36.1,29.85,WSW,244,5.0,13.0,71,0.00,,,0.10,VWS V14.01,2013-04-20 11:38:00,
2013-04-20 07:39:00,45.0,36.5,29.85,WSW,246,7.0,13.0,72,0.00,,,0.10,VWS V14.01,2013-04-20 11:39:00,
2013-04-20 07:40:00,44.9,36.4,29.85,West,277,2.0,13.0,72,0.00,,,0.10,VWS V14.01,2013-04-20 11:40:00,
2013-04-20 07:41:00,44.9,36.4,29.85,West,277,2.0,13.0,72,0.00,,,0.10,VWS V14.01,2013-04-20 11:41:00,
2013-04-20 07:42:00,44.9,36.4,29.85,West,277,2.0,13.0,72,0.00,,,0.10,VWS V14.01,2013-04-20 11:42:00,
2013-04-20 07:43:00,45.0,36.2,29.85,South,189,4.0,4.0,71,0.00,,,0.10,VWS V14.01,2013-04-20 11:43:00,
2013-04-20 07:44:00,45.1,36.6,29.85,West,281,2.0,4.0,72,0.00,,,0.10,VWS V14.01,2013-04-20 11:44:00,
2013-04-20 07:45:00,45.1,36.3,29.85,SW,219,5.0,12.0,71,0.00,,,0.10,VWS V14.01,2013-04-20 11:45:00,
2013-04-20 07:46:00,45.1,36.3,29.85,SSW,197,2.0,12.0,71,0.00,,,0.10,VWS V14.01,2013-04-20 11:46:00,
2013-04-20 07:47:00,45.1,36.3,29.85,SSW,197,2.0,12.0,71,0.00,,,0.10,VWS V14.01,2013-04-20 11:47:00,
2013-04-20 07:48:00,45.2,36.4,29.85,West,267,8.0,12.0,71,0.00,,,0.10,VWS V14.01,2013-04-20 11:48:00,
2013-04-20 07:49:00,45.3,36.5,29.85,SW,233,6.0,12.0,71,0.00,,,0.10,VWS V14.01,2013-04-20 11:49:00,
2013-04-20 07:50:00,45.3,36.5,29.85,WSW,256,3.0,12.0,71,0.00,,,0.10,VWS V14.01,2013-04-20 11:50:00,
2013-04-20 07:51:00,45.3,36.5,29.85,NNW,335,10.0,12.0,71,0.00,,,0.10,VWS V14.01,2013-04-20 11:51:00,
2013-04-20 07:52:00,45.3,36.5,29.85,NNW,335,10.0,12.0,71,0.00,,,0.10,VWS V14.01,2013-04-20 11:52:00,
2013-04-20 07:53:00,45.3,36.5,29.85,NNW,335,10.0,12.0,71,0.00,,,0.10,VWS V14.01,2013-04-20 11:53:00,
2013-04-20 07:54:00,45.4,36.6,29.85,WSW,240,7.0,10.0,71,0.00,,,0.10,VWS V14.01,2013-04-20 11:54:00,
2013-04-20 07:55:00,45.5,36.7,29.85,NW,318,7.0,10.0,71,0.00,,,0.10,VWS V14.01,2013-04-20 11:55:00,
2013-04-20 07:56:00,45.5,36.7,29.85,NNW,344,9.0,10.0,71,0.00,,,0.10,VWS V14.01,2013-04-20 11:56:00,
2013-04-20 07:57:00,45.5,36.7,29.85,NNW,344,9.0,10.0,71,0.00,,,0.10,VWS V14.01,2013-04-20 11:57:00,
2013-04-20 07:58:00,45.5,36.7,29.85,NNW,344,9.0,10.0,71,0.00,,,0.10,VWS V14.01,2013-04-20 11:58:00,
2013-04-20 07:59:00,45.6,36.8,29.85,SE,139,2.0,10.0,71,0.00,,,0.10,VWS V14.01,2013-04-20 11:59:00,
2013-04-20 08:00:00,45.6,36.8,29.86,West,271,4.0,11.0,71,0.00,,,0.10,VWS V14.01,2013-04-20 12:00:00,
2013-04-20 08:01:00,45.6,36.8,29.86,West,271,4.0,11.0,71,0.00,,,0.10,VWS V14.01,2013-04-20 12:01:00,
2013-04-20 08:02:00,45.6,36.8,29.86,WSW,248,3.0,4.0,71,0.00,,,0.10,VWS V14.01,2013-04-20 12:02:00,
2013-04-20 08:03:00,45.7,36.8,29.86,WSW,246,3.0,4.0,71,0.00,,,0.10,VWS V14.01,2013-04-20 12:03:00,
2013-04-20 08:04:00,45.7,37.2,29.86,WSW,246,0.0,4.0,72,0.00,,,0.10,VWS V14.01,2013-04-20 12:04:00,
2013-04-20 08:05:00,45.7,37.2,29.86,NNE,24,3.0,7.0,72,0.00,,,0.10,VWS V14.01,2013-04-20 12:05:00,
2013-04-20 08:06:00,45.7,37.2,29.86,ENE,60,3.0,7.0,72,0.00,,,0.10,VWS V14.01,2013-04-20 12:06:00,
2013-04-20 08:07:00,45.7,37.2,29.86,ENE,60,3.0,7.0,72,0.00,,,0.10,VWS V14.01,2013-04-20 12:07:00,
2013-04-20 08:08:00,45.7,36.8,29.86,NNW,346,6.0,8.0,71,0.00,,,0.10,VWS V14.01,2013-04-20 12:08:00,
2013-04-20 08:09:00,45.7,36.5,29.86,SSW,205,2.0,8.0,70,0.00,,,0.10,VWS V14.01,2013-04-20 12:09:00,
2013-04-20 08:10:00,45.7,36.5,29.86,SSW,205,1.0,8.0,70,0.00,,,0.10,VWS V14.01,2013-04-20 12:10:00,
2013-04-20 08:11:00,45.7,36.5,29.86,SSW,209,5.0,8.0,70,0.00,,,0.10,VWS V14.01,2013-04-20 12:11:00,
2013-04-20 08:12:00,45.7,36.5,29.86,SSW,209,5.0,8.0,70,0.00,,,0.10,VWS V14.01,2013-04-20 12:12:00,
2013-04-20 08:13:00,45.7,36.5,29.86,SW,225,6.0,6.0,70,0.00,,,0.10,VWS V14.01,2013-04-20 12:13:00,
2013-04-20 08:14:00,45.7,36.1,29.86,SW,230,1.0,7.0,69,0.00,,,0.10,VWS V14.01,2013-04-20 12:14:00,
2013-04-20 08:15:00,45.6,36.0,29.86,WNW,283,7.0,10.0,69,0.00,,,0.10,VWS V14.01,2013-04-20 12:15:00,
2013-04-20 08:16:00,45.6,36.0,29.86,West,279,6.0,10.0,69,0.00,,,0.10,VWS V14.01,2013-04-20 12:16:00,
2013-04-20 08:17:00,45.6,36.0,29.86,West,279,6.0,10.0,69,0.00,,,0.10,VWS V14.01,2013-04-20 12:17:00,
2013-04-20 08:18:00,45.6,36.0,29.86,South,170,4.0,10.0,69,0.00,,,0.10,VWS V14.01,2013-04-20 12:18:00,
2013-04-20 08:19:00,45.6,36.0,29.86,NNW,329,4.0,10.0,69,0.00,,,0.10,VWS V14.01,2013-04-20 12:19:00,
2013-04-20 08:20:00,45.6,36.0,29.86,NW,305,11.0,11.0,69,0.00,,,0.10,VWS V14.01,2013-04-20 12:20:00,
2013-04-20 08:21:00,45.6,36.0,29.86,NW,305,11.0,11.0,69,0.00,,,0.10,VWS V14.01,2013-04-20 12:21:00,
2013-04-20 08:22:00,45.6,36.0,29.86,NW,305,11.0,11.0,69,0.00,,,0.10,VWS V14.01,2013-04-20 12:22:00,
2013-04-20 08:23:00,45.6,36.0,29.86,NW,305,11.0,11.0,69,0.00,,,0.10,VWS V14.01,2013-04-20 12:23:00,
2013-04-20 08:24:00,45.5,35.6,29.86,WSW,241,7.0,11.0,68,0.00,,,0.10,VWS V14.01,2013-04-20 12:24:00,
2013-04-20 08:25:00,45.6,35.7,29.86,WSW,239,8.0,12.0,68,0.00,,,0.10,VWS V14.01,2013-04-20 12:25:00,
2013-04-20 08:26:00,45.6,35.7,29.86,WSW,239,8.0,12.0,68,0.00,,,0.10,VWS V14.01,2013-04-20 12:26:00,
2013-04-20 08:27:00,45.6,35.7,29.86,WSW,239,8.0,12.0,68,0.00,,,0.10,VWS V14.01,2013-04-20 12:27:00,
2013-04-20 08:28:00,45.6,35.7,29.86,WSW,239,8.0,12.0,68,0.00,,,0.10,VWS V14.01,2013-04-20 12:28:00,
2013-04-20 08:29:00,45.5,35.2,29.86,West,262,7.0,12.0,67,0.00,,,0.10,VWS V14.01,2013-04-20 12:29:00,
2013-04-20 08:30:00,45.5,35.2,29.86,WSW,239,2.0,12.0,67,0.00,,,0.10,VWS V14.01,2013-04-20 12:30:00,
2013-04-20 08:31:00,45.5,35.2,29.86,SW,229,3.0,12.0,67,0.00,,,0.10,VWS V14.01,2013-04-20 12:31:00,
2013-04-20 08:32:00,45.5,35.2,29.86,SW,229,3.0,12.0,67,0.00,,,0.10,VWS V14.01,2013-04-20 12:32:00,
2013-04-20 08:33:00,45.6,35.7,29.86,WNW,296,3.0,7.0,68,0.00,,,0.10,VWS V14.01,2013-04-20 12:33:00,
2013-04-20 08:34:00,45.6,35.3,29.86,WNW,293,5.0,7.0,67,0.00,,,0.10,VWS V14.01,2013-04-20 12:34:00,
2013-04-20 08:39:00,45.6,35.3,29.86,NW,307,10.0,10.0,67,0.00,,,0.10,VWS V14.01,2013-04-20 12:39:00,
2013-04-20 08:40:00,45.6,35.3,29.86,NW,317,6.0,10.0,67,0.00,,,0.10,VWS V14.01,2013-04-20 12:40:00,
2013-04-20 08:41:00,45.7,35.4,29.86,NNW,330,7.0,10.0,67,0.00,,,0.10,VWS V14.01,2013-04-20 12:41:00,
2013-04-20 08:42:00,45.6,34.9,29.86,WSW,244,5.0,7.0,66,0.00,,,0.10,VWS V14.01,2013-04-20 12:42:00,
2013-04-20 08:43:00,45.6,34.9,29.86,WSW,254,3.0,7.0,66,0.00,,,0.10,VWS V14.01,2013-04-20 12:43:00,
2013-04-20 08:44:00,45.6,34.9,29.86,ESE,105,7.0,8.0,66,0.00,,,0.10,VWS V14.01,2013-04-20 12:44:00,
2013-04-20 08:45:00,45.6,34.9,29.86,SSE,150,1.0,10.0,66,0.00,,,0.10,VWS V14.01,2013-04-20 12:45:00,
2013-04-20 08:46:00,45.6,34.9,29.86,West,261,6.0,10.0,66,0.00,,,0.10,VWS V14.01,2013-04-20 12:46:00,
2013-04-20 08:47:00,45.6,34.9,29.86,West,261,6.0,10.0,66,0.00,,,0.10,VWS V14.01,2013-04-20 12:47:00,
2013-04-20 08:48:00,45.6,34.1,29.86,ESE,107,4.0,10.0,64,0.00,,,0.10,VWS V14.01,2013-04-20 12:48:00,
2013-04-20 08:49:00,45.6,34.5,29.86,WSW,252,2.0,10.0,65,0.00,,,0.10,VWS V14.01,2013-04-20 12:49:00,
2013-04-20 08:50:00,45.6,34.5,29.86,WNW,300,4.0,10.0,65,0.00,,,0.10,VWS V14.01,2013-04-20 12:50:00,
2013-04-20 08:51:00,45.6,34.5,29.86,WNW,300,4.0,10.0,65,0.00,,,0.10,VWS V14.01,2013-04-20 12:51:00,
2013-04-20 08:52:00,45.6,34.5,29.86,WNW,300,4.0,10.0,65,0.00,,,0.10,VWS V14.01,2013-04-20 12:52:00,
2013-04-20 08:53:00,45.6,34.5,29.86,WNW,299,10.0,10.0,65,0.00,,,0.10,VWS V14.01,2013-04-20 12:53:00,
2013-04-20 08:54:00,45.7,34.6,29.86,WSW,242,11.0,12.0,65,0.00,,,0.10,VWS V14.01,2013-04-20 12:54:00,
2013-04-20 08:55:00,45.7,34.2,29.86,SW,229,5.0,15.0,64,0.00,,,0.10,VWS V14.01,2013-04-20 12:55:00,
2013-04-20 08:56:00,45.7,34.2,29.86,SW,234,4.0,15.0,64,0.00,,,0.10,VWS V14.01,2013-04-20 12:56:00,
2013-04-20 08:57:00,45.7,34.2,29.86,SW,234,4.0,15.0,64,0.00,,,0.10,VWS V14.01,2013-04-20 12:57:00,
2013-04-20 08:58:00,45.7,34.2,29.86,West,261,3.0,15.0,64,0.00,,,0.10,VWS V14.01,2013-04-20 12:58:00,
2013-04-20 08:59:00,45.8,34.3,29.86,West,267,4.0,15.0,64,0.00,,,0.10,VWS V14.01,2013-04-20 12:59:00,
2013-04-20 09:00:00,45.8,33.9,29.87,WNW,295,7.0,15.0,63,0.00,,,0.10,VWS V14.01,2013-04-20 13:00:00,
2013-04-20 09:01:00,45.8,33.9,29.87,WNW,295,7.0,15.0,63,0.00,,,0.10,VWS V14.01,2013-04-20 13:01:00,
2013-04-20 09:02:00,45.8,33.9,29.87,West,259,3.0,7.0,63,0.00,,,0.10,VWS V14.01,2013-04-20 13:02:00,
2013-04-20 09:03:00,45.8,34.3,29.87,NW,323,3.0,7.0,64,0.00,,,0.10,VWS V14.01,2013-04-20 13:03:00,
2013-04-20 09:04:00,45.8,33.9,29.87,West,275,2.0,7.0,63,0.00,,,0.10,VWS V14.01,2013-04-20 13:04:00,
2013-04-20 09:05:00,45.9,34.4,29.87,West,267,7.0,9.0,64,0.00,,,0.10,VWS V14.01,2013-04-20 13:05:00,
2013-04-20 09:06:00,45.9,34.4,29.87,West,267,7.0,9.0,64,0.00,,,0.10,VWS V14.01,2013-04-20 13:06:00,
2013-04-20 09:07:00,45.9,34.4,29.87,West,267,7.0,9.0,64,0.00,,,0.10,VWS V14.01,2013-04-20 13:07:00,
2013-04-20 09:08:00,45.9,34.4,29.87,West,267,7.0,9.0,64,0.00,,,0.10,VWS V14.01,2013-04-20 13:08:00,
2013-04-20 09:09:00,45.9,33.6,29.87,SW,219,4.0,9.0,62,0.00,,,0.10,VWS V14.01,2013-04-20 13:09:00,
2013-04-20 09:10:00,45.9,33.6,29.87,West,274,0.0,9.0,62,0.00,,,0.10,VWS V14.01,2013-04-20 13:10:00,
2013-04-20 09:11:00,45.9,33.6,29.87,West,274,0.0,9.0,62,0.00,,,0.10,VWS V14.01,2013-04-20 13:11:00,
2013-04-20 09:12:00,45.9,33.6,29.87,West,274,0.0,9.0,62,0.00,,,0.10,VWS V14.01,2013-04-20 13:12:00,
2013-04-20 09:13:00,45.9,33.6,29.87,West,274,0.0,9.0,62,0.00,,,0.10,VWS V14.01,2013-04-20 13:13:00,
2013-04-20 09:14:00,46.0,33.7,29.87,WNW,285,1.0,2.0,62,0.00,,,0.10,VWS V14.01,2013-04-20 13:14:00,
2013-04-20 09:15:00,46.0,33.7,29.89,West,265,10.0,11.0,62,0.00,,,0.10,VWS V14.01,2013-04-20 13:15:00,
2013-04-20 09:16:00,46.0,33.7,29.89,West,265,10.0,11.0,62,0.00,,,0.10,VWS V14.01,2013-04-20 13:16:00,
2013-04-20 09:17:00,46.0,33.7,29.89,West,265,10.0,11.0,62,0.00,,,0.10,VWS V14.01,2013-04-20 13:17:00,
2013-04-20 09:18:00,46.0,33.3,29.89,SW,229,5.0,11.0,61,0.00,,,0.10,VWS V14.01,2013-04-20 13:18:00,
2013-04-20 09:19:00,46.0,33.3,29.89,SW,230,0.0,11.0,61,0.00,,,0.10,VWS V14.01,2013-04-20 13:19:00,
2013-04-20 09:20:00,46.0,33.7,29.89,WNW,299,7.0,11.0,62,0.00,,,0.10,VWS V14.01,2013-04-20 13:20:00,
2013-04-20 09:21:00,46.1,33.8,29.89,WSW,255,5.0,11.0,62,0.00,,,0.10,VWS V14.01,2013-04-20 13:21:00,
2013-04-20 09:22:00,46.1,33.8,29.89,WSW,255,5.0,11.0,62,0.00,,,0.10,VWS V14.01,2013-04-20 13:22:00,
2013-04-20 09:23:00,46.2,33.9,29.89,WNW,290,4.0,7.0,62,0.00,,,0.10,VWS V14.01,2013-04-20 13:23:00,
2013-04-20 09:24:00,46.2,33.5,29.89,West,281,9.0,14.0,61,0.00,,,0.10,VWS V14.01,2013-04-20 13:24:00,
2013-04-20 09:25:00,46.2,33.1,29.89,SW,236,5.0,14.0,60,0.00,,,0.10,VWS V14.01,2013-04-20 13:25:00,
2013-04-20 09:26:00,46.2,33.1,29.89,WSW,252,5.0,14.0,60,0.00,,,0.10,VWS V14.01,2013-04-20 13:26:00,
2013-04-20 09:27:00,46.2,33.1,29.89,WSW,252,5.0,14.0,60,0.00,,,0.10,VWS V14.01,2013-04-20 13:27:00,
2013-04-20 09:28:00,46.1,33.0,29.89,WNW,282,5.0,14.0,60,0.00,,,0.10,VWS V14.01,2013-04-20 13:28:00,
2013-04-20 09:29:00,46.1,33.0,29.89,West,274,7.0,14.0,60,0.00,,,0.10,VWS V14.01,2013-04-20 13:29:00,
2013-04-20 09:30:00,46.1,32.6,29.89,WNW,300,5.0,14.0,59,0.00,,,0.10,VWS V14.01,2013-04-20 13:30:00,
2013-04-20 09:31:00,46.1,32.6,29.89,WNW,298,4.0,14.0,59,0.00,,,0.10,VWS V14.01,2013-04-20 13:31:00,
2013-04-20 09:32:00,46.1,32.6,29.89,WNW,298,4.0,14.0,59,0.00,,,0.10,VWS V14.01,2013-04-20 13:32:00,
2013-04-20 09:33:00,46.1,32.6,29.89,WNW,298,4.0,14.0,59,0.00,,,0.10,VWS V14.01,2013-04-20 13:33:00,
2013-04-20 09:34:00,46.0,32.1,29.89,North,360,5.0,13.0,58,0.00,,,0.10,VWS V14.01,2013-04-20 13:34:00,
2013-04-20 09:35:00,45.9,32.0,29.89,WNW,287,1.0,13.0,58,0.00,,,0.10,VWS V14.01,2013-04-20 13:35:00,
2013-04-20 09:36:00,45.9,32.0,29.89,WNW,287,1.0,13.0,58,0.00,,,0.10,VWS V14.01,2013-04-20 13:36:00,
2013-04-20 09:37:00,45.9,32.0,29.89,WNW,287,1.0,13.0,58,0.00,,,0.10,VWS V14.01,2013-04-20 13:37:00,
2013-04-20 09:38:00,45.9,32.0,29.89,WNW,287,1.0,13.0,58,0.00,,,0.10,VWS V14.01,2013-04-20 13:38:00,
2013-04-20 09:39:00,45.9,32.4,29.89,West,276,7.0,13.0,59,0.00,,,0.10,VWS V14.01,2013-04-20 13:39:00,
2013-04-20 09:40:00,45.8,32.3,29.89,West,281,6.0,13.0,59,0.00,,,0.10,VWS V14.01,2013-04-20 13:40:00,
2013-04-20 09:41:00,45.9,32.4,29.89,NW,316,11.0,13.0,59,0.00,,,0.10,VWS V14.01,2013-04-20 13:41:00,
2013-04-20 09:42:00,45.9,32.4,29.89,NW,316,11.0,13.0,59,0.00,,,0.10,VWS V14.01,2013-04-20 13:42:00,
2013-04-20 09:43:00,45.9,32.4,29.89,NW,316,11.0,13.0,59,0.00,,,0.10,VWS V14.01,2013-04-20 13:43:00,
2013-04-20 09:44:00,45.8,32.3,29.89,SW,225,9.0,16.0,59,0.00,,,0.10,VWS V14.01,2013-04-20 13:44:00,
2013-04-20 09:45:00,45.9,32.0,29.91,WSW,256,6.0,16.0,58,0.00,,,0.10,VWS V14.01,2013-04-20 13:45:00,
2013-04-20 09:46:00,45.9,32.0,29.91,WSW,256,6.0,16.0,58,0.00,,,0.10,VWS V14.01,2013-04-20 13:46:00,
2013-04-20 09:47:00,45.9,32.0,29.91,WSW,256,6.0,16.0,58,0.00,,,0.10,VWS V14.01,2013-04-20 13:47:00,
2013-04-20 09:48:00,45.9,32.0,29.91,WSW,256,6.0,16.0,58,0.00,,,0.10,VWS V14.01,2013-04-20 13:48:00,
2013-04-20 09:49:00,45.9,31.5,29.91,WSW,240,10.0,16.0,57,0.00,,,0.10,VWS V14.01,2013-04-20 13:49:00,
2013-04-20 09:50:00,45.9,31.5,29.91,SW,235,3.0,16.0,57,0.00,,,0.10,VWS V14.01,2013-04-20 13:50:00,
2013-04-20 09:51:00,45.9,31.5,29.91,SW,235,1.0,16.0,57,0.00,,,0.10,VWS V14.01,2013-04-20 13:51:00,
2013-04-20 09:52:00,45.9,31.5,29.91,SW,235,1.0,16.0,57,0.00,,,0.10,VWS V14.01,2013-04-20 13:52:00,
2013-04-20 09:53:00,45.9,31.5,29.91,SW,235,1.0,16.0,57,0.00,,,0.10,VWS V14.01,2013-04-20 13:53:00,
2013-04-20 09:54:00,45.8,31.5,29.91,WSW,246,6.0,6.0,57,0.00,,,0.10,VWS V14.01,2013-04-20 13:54:00,
2013-04-20 09:55:00,45.8,31.5,29.91,WNW,294,2.0,6.0,57,0.00,,,0.10,VWS V14.01,2013-04-20 13:55:00,
2013-04-20 09:56:00,45.8,31.5,29.91,West,277,3.0,6.0,57,0.00,,,0.10,VWS V14.01,2013-04-20 13:56:00,
2013-04-20 09:57:00,45.8,31.5,29.91,West,277,3.0,6.0,57,0.00,,,0.10,VWS V14.01,2013-04-20 13:57:00,
2013-04-20 09:58:00,45.8,31.5,29.91,West,277,3.0,6.0,57,0.00,,,0.10,VWS V14.01,2013-04-20 13:58:00,
2013-04-20 09:59:00,45.9,31.5,29.91,West,271,5.0,8.0,57,0.00,,,0.10,VWS V14.01,2013-04-20 13:59:00,
2013-04-20 10:00:00,45.9,31.5,29.92,WSW,242,5.0,8.0,57,0.00,,,0.10,VWS V14.01,2013-04-20 14:00:00,
2013-04-20 10:01:00,45.9,31.5,29.92,WSW,242,5.0,8.0,57,0.00,,,0.10,VWS V14.01,2013-04-20 14:01:00,
2013-04-20 10:02:00,45.9,31.5,29.92,WSW,242,5.0,8.0,57,0.00,,,0.10,VWS V14.01,2013-04-20 14:02:00,
2013-04-20 10:03:00,46.0,32.1,29.92,SSW,196,2.0,6.0,58,0.00,,,0.10,VWS V14.01,2013-04-20 14:03:00,
2013-04-20 10:04:00,46.0,31.6,29.92,WNW,290,5.0,7.0,57,0.00,,,0.10,VWS V14.01,2013-04-20 14:04:00,
2013-04-20 10:05:00,46.1,32.2,29.92,NW,312,5.0,7.0,58,0.00,,,0.10,VWS V14.01,2013-04-20 14:05:00,
2013-04-20 10:06:00,46.1,32.2,29.92,NW,311,3.0,7.0,58,0.00,,,0.10,VWS V14.01,2013-04-20 14:06:00,
2013-04-20 10:07:00,46.1,32.2,29.92,NW,311,3.0,7.0,58,0.00,,,0.10,VWS V14.01,2013-04-20 14:07:00,
2013-04-20 10:08:00,46.3,32.3,29.92,SE,146,4.0,7.0,58,0.00,,,0.10,VWS V14.01,2013-04-20 14:08:00,
2013-04-20 10:09:00,46.3,31.9,29.92,West,274,3.0,7.0,57,0.00,,,0.10,VWS V14.01,2013-04-20 14:09:00,
2013-04-20 10:10:00,46.4,32.4,29.92,WNW,290,6.0,10.0,58,0.00,,,0.10,VWS V14.01,2013-04-20 14:10:00,
2013-04-20 10:11:00,46.4,32.4,29.92,WNW,294,4.0,6.0,58,0.00,,,0.10,VWS V14.01,2013-04-20 14:11:00,
2013-04-20 10:12:00,46.4,32.4,29.92,WNW,294,4.0,6.0,58,0.00,,,0.10,VWS V14.01,2013-04-20 14:12:00,
2013-04-20 10:13:00,46.4,31.1,29.92,WNW,295,6.0,8.0,55,0.00,,,0.10,VWS V14.01,2013-04-20 14:13:00,
2013-04-20 10:14:00,46.4,31.1,29.92,WNW,298,3.0,10.0,55,0.00,,,0.10,VWS V14.01,2013-04-20 14:14:00,
2013-04-20 10:15:00,46.4,31.6,29.94,NW,321,1.0,10.0,56,0.00,,,0.10,VWS V14.01,2013-04-20 14:15:00,
2013-04-20 10:16:00,46.4,31.6,29.94,NW,321,1.0,10.0,56,0.00,,,0.10,VWS V14.01,2013-04-20 14:16:00,
2013-04-20 10:17:00,46.4,31.6,29.94,NW,321,1.0,10.0,56,0.00,,,0.10,VWS V14.01,2013-04-20 14:17:00,
2013-04-20 10:18:00,46.4,31.6,29.94,NW,321,1.0,10.0,56,0.00,,,0.10,VWS V14.01,2013-04-20 14:18:00,
2013-04-20 10:19:00,46.5,31.7,29.94,SW,229,0.0,10.0,56,0.00,,,0.10,VWS V14.01,2013-04-20 14:19:00,
2013-04-20 10:20:00,46.6,31.8,29.94,SW,220,5.0,10.0,56,0.00,,,0.10,VWS V14.01,2013-04-20 14:20:00,
2013-04-20 10:21:00,46.6,31.8,29.94,WSW,244,6.0,10.0,56,0.00,,,0.10,VWS V14.01,2013-04-20 14:21:00,
2013-04-20 10:22:00,46.6,31.8,29.94,WSW,244,6.0,10.0,56,0.00,,,0.10,VWS V14.01,2013-04-20 14:22:00,
2013-04-20 10:23:00,46.6,31.8,29.94,WSW,244,6.0,10.0,56,0.00,,,0.10,VWS V14.01,2013-04-20 14:23:00,
2013-04-20 10:24:00,46.7,31.9,29.94,NNW,342,2.0,7.0,56,0.00,,,0.10,VWS V14.01,2013-04-20 14:24:00,
2013-04-20 10:25:00,46.7,31.9,29.94,SSW,198,3.0,7.0,56,0.00,,,0.10,VWS V14.01,2013-04-20 14:25:00,
2013-04-20 10:26:00,46.7,31.9,29.94,SSW,198,2.0,7.0,56,0.00,,,0.10,VWS V14.01,2013-04-20 14:26:00,
2013-04-20 10:27:00,46.7,31.9,29.94,SSW,198,2.0,7.0,56,0.00,,,0.10,VWS V14.01,2013-04-20 14:27:00,
2013-04-20 10:28:00,46.7,31.9,29.94,SSW,198,2.0,7.0,56,0.00,,,0.10,VWS V14.01,2013-04-20 14:28:00,
2013-04-20 10:29:00,46.8,32.0,29.94,West,269,4.0,7.0,56,0.00,,,0.10,VWS V14.01,2013-04-20 14:29:00,
2013-04-20 10:30:00,46.8,32.0,29.94,WSW,252,2.0,7.0,56,0.00,,,0.10,VWS V14.01,2013-04-20 14:30:00,
2013-04-20 10:31:00,46.8,32.0,29.94,WSW,252,0.0,7.0,56,0.00,,,0.10,VWS V14.01,2013-04-20 14:31:00,
2013-04-20 10:32:00,46.8,32.0,29.94,WSW,252,0.0,7.0,56,0.00,,,0.10,VWS V14.01,2013-04-20 14:32:00,
2013-04-20 10:33:00,46.8,32.0,29.94,WSW,252,0.0,7.0,56,0.00,,,0.10,VWS V14.01,2013-04-20 14:33:00,
2013-04-20 10:34:00,47.0,32.6,29.94,West,269,2.0,3.0,57,0.00,,,0.10,VWS V14.01,2013-04-20 14:34:00,
2013-04-20 10:35:00,47.1,33.9,29.94,West,277,3.0,5.0,60,0.00,,,0.10,VWS V14.01,2013-04-20 14:35:00,
2013-04-20 10:36:00,47.1,33.9,29.94,West,277,3.0,5.0,60,0.00,,,0.10,VWS V14.01,2013-04-20 14:36:00,
2013-04-20 10:37:00,47.1,33.9,29.94,West,277,3.0,5.0,60,0.00,,,0.10,VWS V14.01,2013-04-20 14:37:00,
2013-04-20 10:38:00,47.3,32.4,29.94,West,280,8.0,8.0,56,0.00,,,0.10,VWS V14.01,2013-04-20 14:38:00,
2013-04-20 10:39:00,47.3,32.4,29.94,West,277,2.0,10.0,56,0.00,,,0.10,VWS V14.01,2013-04-20 14:39:00,
2013-04-20 10:40:00,47.4,33.0,29.94,WNW,297,4.0,10.0,57,0.00,,,0.10,VWS V14.01,2013-04-20 14:40:00,
2013-04-20 10:41:00,47.4,33.0,29.94,WNW,297,4.0,10.0,57,0.00,,,0.10,VWS V14.01,2013-04-20 14:41:00,
2013-04-20 10:42:00,47.4,33.0,29.94,WNW,297,4.0,10.0,57,0.00,,,0.10,VWS V14.01,2013-04-20 14:42:00,
2013-04-20 10:43:00,47.4,33.0,29.94,WNW,297,4.0,10.0,57,0.00,,,0.10,VWS V14.01,2013-04-20 14:43:00,
2013-04-20 10:44:00,47.4,33.0,29.94,West,261,1.0,9.0,57,0.00,,,0.10,VWS V14.01,2013-04-20 14:44:00,
2013-04-20 10:45:00,47.5,33.5,29.95,WNW,284,10.0,10.0,58,0.00,,,0.10,VWS V14.01,2013-04-20 14:45:00,
2013-04-20 10:46:00,47.5,33.5,29.95,NW,311,7.0,10.0,58,0.00,,,0.10,VWS V14.01,2013-04-20 14:46:00,
2013-04-20 10:47:00,47.5,33.5,29.95,NW,311,7.0,10.0,58,0.00,,,0.10,VWS V14.01,2013-04-20 14:47:00,
2013-04-20 10:48:00,47.5,33.5,29.95,NW,311,7.0,10.0,58,0.00,,,0.10,VWS V14.01,2013-04-20 14:48:00,
2013-04-20 10:49:00,47.6,33.1,29.95,WSW,249,11.0,11.0,57,0.00,,,0.10,VWS V14.01,2013-04-20 14:49:00,
2013-04-20 10:50:00,47.6,32.7,29.95,West,281,3.0,11.0,56,0.00,,,0.10,VWS V14.01,2013-04-20 14:50:00,
2013-04-20 10:51:00,47.6,32.7,29.95,West,281,3.0,11.0,56,0.00,,,0.10,VWS V14.01,2013-04-20 14:51:00,
2013-04-20 10:52:00,47.6,32.7,29.95,West,281,3.0,11.0,56,0.00,,,0.10,VWS V14.01,2013-04-20 14:52:00,
2013-04-20 10:53:00,47.7,33.7,29.95,SW,232,8.0,8.0,58,0.00,,,0.10,VWS V14.01,2013-04-20 14:53:00,
2013-04-20 10:54:00,47.7,33.2,29.95,WSW,239,5.0,9.0,57,0.00,,,0.10,VWS V14.01,2013-04-20 14:54:00,
2013-04-20 10:55:00,47.7,32.8,29.95,West,273,7.0,9.0,56,0.00,,,0.10,VWS V14.01,2013-04-20 14:55:00,
2013-04-20 10:56:00,47.7,32.3,29.95,West,261,8.0,9.0,55,0.00,,,0.10,VWS V14.01,2013-04-20 14:56:00,
2013-04-20 10:57:00,47.7,32.3,29.95,West,261,8.0,9.0,55,0.00,,,0.10,VWS V14.01,2013-04-20 14:57:00,
2013-04-20 10:58:00,47.7,32.3,29.95,NW,313,13.0,13.0,55,0.00,,,0.10,VWS V14.01,2013-04-20 14:58:00,
2013-04-20 10:59:00,47.8,33.8,29.95,WSW,248,5.0,13.0,58,0.00,,,0.10,VWS V14.01,2013-04-20 14:59:00,
2013-04-20 11:00:00,48.0,33.9,29.95,WSW,248,3.0,13.0,58,0.00,,,0.10,VWS V14.01,2013-04-20 15:00:00,
2013-04-20 11:01:00,48.0,33.9,29.95,WSW,248,1.0,13.0,58,0.00,,,0.10,VWS V14.01,2013-04-20 15:01:00,
2013-04-20 11:02:00,48.2,33.3,29.95,WSW,257,4.0,4.0,56,0.00,,,0.10,VWS V14.01,2013-04-20 15:02:00,
2013-04-20 11:03:00,48.2,33.3,29.95,WSW,253,1.0,8.0,56,0.00,,,0.10,VWS V14.01,2013-04-20 15:03:00,
2013-04-20 11:04:00,48.3,33.8,29.95,WSW,249,6.0,12.0,57,0.00,,,0.10,VWS V14.01,2013-04-20 15:04:00,
2013-04-20 11:05:00,48.3,33.3,29.95,WNW,294,6.0,12.0,56,0.00,,,0.10,VWS V14.01,2013-04-20 15:05:00,
2013-04-20 11:06:00,48.3,33.3,29.95,WSW,238,6.0,12.0,56,0.00,,,0.10,VWS V14.01,2013-04-20 15:06:00,
2013-04-20 11:07:00,48.3,33.3,29.95,WSW,238,6.0,12.0,56,0.00,,,0.10,VWS V14.01,2013-04-20 15:07:00,
2013-04-20 11:08:00,48.5,34.0,29.95,West,261,8.0,12.0,57,0.00,,,0.10,VWS V14.01,2013-04-20 15:08:00,
2013-04-20 11:09:00,48.5,33.5,29.95,East,84,3.0,12.0,56,0.00,,,0.10,VWS V14.01,2013-04-20 15:09:00,
2013-04-20 11:10:00,48.7,34.2,29.95,South,182,3.0,12.0,57,0.00,,,0.10,VWS V14.01,2013-04-20 15:10:00,
2013-04-20 11:11:00,48.7,34.2,29.95,South,182,3.0,12.0,57,0.00,,,0.10,VWS V14.01,2013-04-20 15:11:00,
2013-04-20 11:12:00,48.7,34.2,29.95,South,182,3.0,12.0,57,0.00,,,0.10,VWS V14.01,2013-04-20 15:12:00,
2013-04-20 11:13:00,48.7,34.2,29.95,South,182,3.0,12.0,57,0.00,,,0.10,VWS V14.01,2013-04-20 15:13:00,
2013-04-20 11:14:00,49.4,35.3,29.95,WNW,290,1.0,12.0,58,0.00,,,0.10,VWS V14.01,2013-04-20 15:14:00,
2013-04-20 11:15:00,49.6,35.9,29.95,NNW,344,9.0,12.0,59,0.00,,,0.10,VWS V14.01,2013-04-20 15:15:00,
2013-04-20 11:16:00,49.6,35.9,29.95,NNW,344,9.0,12.0,59,0.00,,,0.10,VWS V14.01,2013-04-20 15:16:00,
2013-04-20 11:17:00,49.6,35.9,29.95,NNW,344,9.0,12.0,59,0.00,,,0.10,VWS V14.01,2013-04-20 15:17:00,
2013-04-20 11:18:00,49.9,34.4,29.95,West,264,6.0,12.0,55,0.00,,,0.10,VWS V14.01,2013-04-20 15:18:00,
2013-04-20 11:19:00,49.9,35.3,29.95,WSW,249,2.0,12.0,57,0.00,,,0.10,VWS V14.01,2013-04-20 15:19:00,
2013-04-20 11:20:00,49.9,34.4,29.95,SW,224,3.0,12.0,55,0.00,,,0.10,VWS V14.01,2013-04-20 15:20:00,
2013-04-20 11:21:00,49.9,34.4,29.95,SW,224,3.0,12.0,55,0.00,,,0.10,VWS V14.01,2013-04-20 15:21:00,
2013-04-20 11:22:00,49.9,34.4,29.95,SW,224,3.0,12.0,55,0.00,,,0.10,VWS V14.01,2013-04-20 15:22:00,
2013-04-20 11:23:00,50.1,34.6,29.95,WNW,282,3.0,3.0,55,0.00,,,0.10,VWS V14.01,2013-04-20 15:23:00,
2013-04-20 11:24:00,50.2,35.1,29.95,WSW,256,5.0,7.0,56,0.00,,,0.10,VWS V14.01,2013-04-20 15:24:00,
2013-04-20 11:25:00,50.2,34.7,29.95,SSW,196,1.0,8.0,55,0.00,,,0.10,VWS V14.01,2013-04-20 15:25:00,
2013-04-20 11:26:00,50.2,34.2,29.95,SSE,165,2.0,8.0,54,0.00,,,0.10,VWS V14.01,2013-04-20 15:26:00,
2013-04-20 11:27:00,50.2,34.2,29.95,SSE,165,2.0,8.0,54,0.00,,,0.10,VWS V14.01,2013-04-20 15:27:00,
2013-04-20 11:28:00,50.2,34.2,29.95,SSE,165,2.0,8.0,54,0.00,,,0.10,VWS V14.01,2013-04-20 15:28:00,
2013-04-20 11:29:00,50.4,34.9,29.95,WNW,282,4.0,8.0,55,0.00,,,0.10,VWS V14.01,2013-04-20 15:29:00,
2013-04-20 11:30:00,50.4,35.3,29.94,SW,234,9.0,9.0,56,0.00,,,0.10,VWS V14.01,2013-04-20 15:30:00,
2013-04-20 11:31:00,50.5,35.4,29.94,WSW,254,9.0,9.0,56,0.00,,,0.10,VWS V14.01,2013-04-20 15:31:00,
2013-04-20 11:32:00,50.5,35.4,29.94,WSW,254,9.0,9.0,56,0.00,,,0.10,VWS V14.01,2013-04-20 15:32:00,
2013-04-20 11:33:00,50.5,35.4,29.94,WSW,254,9.0,9.0,56,0.00,,,0.10,VWS V14.01,2013-04-20 15:33:00,
2013-04-20 11:34:00,50.5,34.5,29.94,SSW,213,7.0,9.0,54,0.00,,,0.10,VWS V14.01,2013-04-20 15:34:00,
2013-04-20 11:35:00,50.5,34.5,29.94,NW,314,5.0,9.0,54,0.00,,,0.10,VWS V14.01,2013-04-20 15:35:00,
2013-04-20 11:36:00,50.5,34.5,29.94,NW,314,5.0,9.0,54,0.00,,,0.10,VWS V14.01,2013-04-20 15:36:00,
2013-04-20 11:37:00,50.5,34.5,29.94,NW,314,5.0,9.0,54,0.00,,,0.10,VWS V14.01,2013-04-20 15:37:00,
2013-04-20 11:38:00,50.6,33.6,29.94,SW,221,6.0,18.0,52,0.00,,,0.10,VWS V14.01,2013-04-20 15:38:00,
2013-04-20 11:39:00,50.7,34.2,29.94,West,260,6.0,18.0,53,0.00,,,0.10,VWS V14.01,2013-04-20 15:39:00,
2013-04-20 11:40:00,50.7,33.2,29.94,SSE,167,1.0,18.0,51,0.00,,,0.10,VWS V14.01,2013-04-20 15:40:00,
2013-04-20 11:41:00,50.7,33.2,29.94,SSE,167,2.0,18.0,51,0.00,,,0.10,VWS V14.01,2013-04-20 15:41:00,
2013-04-20 11:42:00,50.9,34.9,29.94,West,269,7.0,8.0,54,0.00,,,0.10,VWS V14.01,2013-04-20 15:42:00,
2013-04-20 11:43:00,51.0,33.0,29.94,SW,224,4.0,8.0,50,0.00,,,0.10,VWS V14.01,2013-04-20 15:43:00,
2013-04-20 11:44:00,51.1,33.6,29.94,WSW,258,5.0,8.0,51,0.00,,,0.10,VWS V14.01,2013-04-20 15:44:00,
2013-04-20 11:45:00,51.2,34.2,29.94,WSW,254,10.0,10.0,52,0.00,,,0.10,VWS V14.01,2013-04-20 15:45:00,
2013-04-20 11:46:00,51.2,34.2,29.94,West,263,8.0,10.0,52,0.00,,,0.10,VWS V14.01,2013-04-20 15:46:00,
2013-04-20 11:47:00,51.4,33.4,29.94,WNW,300,16.0,16.0,50,0.00,,,0.10,VWS V14.01,2013-04-20 15:47:00,
2013-04-20 11:48:00,51.4,33.4,29.94,WNW,300,16.0,16.0,50,0.00,,,0.10,VWS V14.01,2013-04-20 15:48:00,
2013-04-20 11:49:00,51.3,32.3,29.94,WSW,250,10.0,18.0,48,0.00,,,0.10,VWS V14.01,2013-04-20 15:49:00,
2013-04-20 11:50:00,51.3,33.3,29.94,WSW,250,4.0,18.0,50,0.00,,,0.10,VWS V14.01,2013-04-20 15:50:00,
2013-04-20 11:51:00,51.3,33.3,29.94,WSW,250,4.0,18.0,50,0.00,,,0.10,VWS V14.01,2013-04-20 15:51:00,
2013-04-20 11:52:00,51.4,33.4,29.94,WSW,241,11.0,11.0,50,0.00,,,0.10,VWS V14.01,2013-04-20 15:52:00,
2013-04-20 11:53:00,51.4,33.4,29.94,WSW,241,11.0,11.0,50,0.00,,,0.10,VWS V14.01,2013-04-20 15:53:00,
2013-04-20 11:54:00,51.4,32.9,29.94,West,272,11.0,15.0,49,0.00,,,0.10,VWS V14.01,2013-04-20 15:54:00,
2013-04-20 11:55:00,51.4,31.9,29.94,WSW,248,9.0,15.0,47,0.00,,,0.10,VWS V14.01,2013-04-20 15:55:00,
2013-04-20 11:56:00,51.4,31.9,29.94,WSW,248,9.0,15.0,47,0.00,,,0.10,VWS V14.01,2013-04-20 15:56:00,
2013-04-20 11:57:00,51.4,31.9,29.94,WSW,248,9.0,15.0,47,0.00,,,0.10,VWS V14.01,2013-04-20 15:57:00,
2013-04-20 11:58:00,51.4,31.9,29.94,WSW,248,9.0,15.0,47,0.00,,,0.10,VWS V14.01,2013-04-20 15:58:00,
2013-04-20 11:59:00,51.3,33.3,29.94,West,281,12.0,15.0,50,0.00,,,0.10,VWS V14.01,2013-04-20 15:59:00,
2013-04-20 12:00:00,51.4,32.9,29.94,West,276,5.0,15.0,49,0.00,,,0.10,VWS V14.01,2013-04-20 16:00:00,
2013-04-20 12:01:00,51.4,32.9,29.94,NNW,342,1.0,5.0,49,0.00,,,0.10,VWS V14.01,2013-04-20 16:01:00,
2013-04-20 12:02:00,51.5,34.0,29.94,West,261,9.0,9.0,51,0.00,,,0.10,VWS V14.01,2013-04-20 16:02:00,
2013-04-20 12:03:00,51.5,33.0,29.94,WSW,254,3.0,9.0,49,0.00,,,0.10,VWS V14.01,2013-04-20 16:03:00,
2013-04-20 12:04:00,51.5,33.5,29.94,WSW,246,2.0,12.0,50,0.00,,,0.10,VWS V14.01,2013-04-20 16:04:00,
2013-04-20 12:05:00,51.6,33.1,29.94,SW,225,5.0,12.0,49,0.00,,,0.10,VWS V14.01,2013-04-20 16:05:00,
2013-04-20 12:06:00,51.6,33.1,29.94,WSW,245,4.0,12.0,49,0.00,,,0.10,VWS V14.01,2013-04-20 16:06:00,
2013-04-20 12:07:00,51.6,33.1,29.94,WSW,245,4.0,12.0,49,0.00,,,0.10,VWS V14.01,2013-04-20 16:07:00,
2013-04-20 12:08:00,51.6,33.1,29.94,SW,227,5.0,12.0,49,0.00,,,0.10,VWS V14.01,2013-04-20 16:08:00,
2013-04-20 12:09:00,51.6,32.6,29.94,NNW,346,2.0,12.0,48,0.00,,,0.10,VWS V14.01,2013-04-20 16:09:00,
2013-04-20 12:10:00,51.7,33.2,29.94,NNW,346,1.0,12.0,49,0.00,,,0.10,VWS V14.01,2013-04-20 16:10:00,
2013-04-20 12:11:00,51.7,33.2,29.94,NNW,346,1.0,12.0,49,0.00,,,0.10,VWS V14.01,2013-04-20 16:11:00,
2013-04-20 12:12:00,51.7,33.2,29.94,NNW,346,1.0,12.0,49,0.00,,,0.10,VWS V14.01,2013-04-20 16:12:00,
2013-04-20 12:13:00,51.6,31.5,29.94,West,264,8.0,8.0,46,0.00,,,0.10,VWS V14.01,2013-04-20 16:13:00,
2013-04-20 12:14:00,51.6,32.6,29.94,West,269,1.0,8.0,48,0.00,,,0.10,VWS V14.01,2013-04-20 16:14:00,
2013-04-20 12:15:00,51.6,33.6,29.94,West,264,4.0,8.0,50,0.00,,,0.10,VWS V14.01,2013-04-20 16:15:00,
2013-04-20 12:16:00,51.6,33.6,29.94,NW,313,3.0,8.0,50,0.00,,,0.10,VWS V14.01,2013-04-20 16:16:00,
2013-04-20 12:17:00,51.6,33.6,29.94,NW,313,3.0,8.0,50,0.00,,,0.10,VWS V14.01,2013-04-20 16:17:00,
2013-04-20 12:18:00,51.8,32.2,29.94,West,259,9.0,14.0,47,0.00,,,0.10,VWS V14.01,2013-04-20 16:18:00,
2013-04-20 12:19:00,51.8,32.2,29.94,North,350,1.0,14.0,47,0.00,,,0.10,VWS V14.01,2013-04-20 16:19:00,
2013-04-20 12:20:00,51.9,33.4,29.94,WSW,244,2.0,14.0,49,0.00,,,0.10,VWS V14.01,2013-04-20 16:20:00,
2013-04-20 12:21:00,51.9,33.4,29.94,WSW,244,2.0,14.0,49,0.00,,,0.10,VWS V14.01,2013-04-20 16:21:00,
2013-04-20 12:22:00,51.9,33.4,29.94,WSW,244,2.0,14.0,49,0.00,,,0.10,VWS V14.01,2013-04-20 16:22:00,
2013-04-20 12:23:00,52.1,33.0,29.94,WSW,247,4.0,13.0,48,0.00,,,0.10,VWS V14.01,2013-04-20 16:23:00,
2013-04-20 12:24:00,52.1,33.0,29.94,SSW,200,2.0,13.0,48,0.00,,,0.10,VWS V14.01,2013-04-20 16:24:00,
2013-04-20 12:25:00,52.0,32.4,29.94,NW,321,8.0,13.0,47,0.00,,,0.10,VWS V14.01,2013-04-20 16:25:00,
2013-04-20 12:26:00,52.0,32.4,29.94,WNW,283,5.0,13.0,47,0.00,,,0.10,VWS V14.01,2013-04-20 16:26:00,
2013-04-20 12:27:00,52.0,32.9,29.94,West,261,5.0,13.0,48,0.00,,,0.10,VWS V14.01,2013-04-20 16:27:00,
2013-04-20 12:28:00,52.0,31.9,29.94,West,276,4.0,13.0,46,0.00,,,0.10,VWS V14.01,2013-04-20 16:28:00,
2013-04-20 12:29:00,52.0,31.9,29.94,SE,134,3.0,13.0,46,0.00,,,0.10,VWS V14.01,2013-04-20 16:29:00,
2013-04-20 12:30:00,52.1,32.5,29.94,NNE,14,10.0,13.0,47,0.00,,,0.10,VWS V14.01,2013-04-20 16:30:00,
2013-04-20 12:31:00,52.1,33.0,29.94,SE,137,3.0,13.0,48,0.00,,,0.10,VWS V14.01,2013-04-20 16:31:00,
2013-04-20 12:32:00,52.2,32.1,29.94,SW,235,3.0,11.0,46,0.00,,,0.10,VWS V14.01,2013-04-20 16:32:00,
2013-04-20 12:33:00,52.3,32.7,29.94,SW,216,5.0,11.0,47,0.00,,,0.10,VWS V14.01,2013-04-20 16:33:00,
2013-04-20 12:34:00,52.3,33.7,29.94,NW,313,5.0,15.0,49,0.00,,,0.10,VWS V14.01,2013-04-20 16:34:00,
2013-04-20 12:35:00,52.4,33.3,29.94,WSW,252,5.0,15.0,48,0.00,,,0.10,VWS V14.01,2013-04-20 16:35:00,
2013-04-20 12:36:00,52.4,33.3,29.94,SW,219,7.0,15.0,48,0.00,,,0.10,VWS V14.01,2013-04-20 16:36:00,
2013-04-20 12:37:00,52.4,33.3,29.94,West,259,4.0,15.0,48,0.00,,,0.10,VWS V14.01,2013-04-20 16:37:00,
2013-04-20 12:38:00,52.5,33.4,29.94,WSW,251,3.0,15.0,48,0.00,,,0.10,VWS V14.01,2013-04-20 16:38:00,
2013-04-20 12:39:00,52.4,32.2,29.94,NW,319,12.0,15.0,46,0.00,,,0.10,VWS V14.01,2013-04-20 16:39:00,
2013-04-20 12:40:00,52.4,32.2,29.94,SW,217,5.0,22.0,46,0.00,,,0.10,VWS V14.01,2013-04-20 16:40:00,
2013-04-20 12:41:00,52.4,32.2,29.94,SW,236,8.0,22.0,46,0.00,,,0.10,VWS V14.01,2013-04-20 16:41:00,
2013-04-20 12:42:00,52.2,32.1,29.94,WSW,239,7.0,8.0,46,0.00,,,0.10,VWS V14.01,2013-04-20 16:42:00,
2013-04-20 12:43:00,52.0,32.9,29.94,WSW,253,2.0,9.0,48,0.00,,,0.10,VWS V14.01,2013-04-20 16:43:00,
2013-04-20 12:44:00,51.9,32.3,29.94,WSW,242,3.0,9.0,47,0.00,,,0.10,VWS V14.01,2013-04-20 16:44:00,
2013-04-20 12:45:00,51.9,32.3,29.94,NW,325,2.0,9.0,47,0.00,,,0.10,VWS V14.01,2013-04-20 16:45:00,
2013-04-20 12:46:00,51.9,33.4,29.94,SSW,200,4.0,9.0,49,0.00,,,0.10,VWS V14.01,2013-04-20 16:46:00,
2013-04-20 12:47:00,52.0,32.9,29.94,NNW,348,5.0,9.0,48,0.00,,,0.10,VWS V14.01,2013-04-20 16:47:00,
2013-04-20 12:48:00,52.0,31.9,29.94,SSW,209,4.0,9.0,46,0.00,,,0.10,VWS V14.01,2013-04-20 16:48:00,
2013-04-20 12:49:00,51.9,31.8,29.94,West,261,4.0,9.0,46,0.00,,,0.10,VWS V14.01,2013-04-20 16:49:00,
2013-04-20 12:50:00,51.9,32.3,29.94,West,259,2.0,11.0,47,0.00,,,0.10,VWS V14.01,2013-04-20 16:50:00,
2013-04-20 12:51:00,51.7,31.1,29.94,SSE,159,2.0,4.0,45,0.00,,,0.10,VWS V14.01,2013-04-20 16:51:00,
2013-04-20 12:52:00,51.7,31.6,29.94,WNW,300,13.0,13.0,46,0.00,,,0.10,VWS V14.01,2013-04-20 16:52:00,
2013-04-20 12:53:00,51.6,31.5,29.94,WSW,245,6.0,13.0,46,0.00,,,0.10,VWS V14.01,2013-04-20 16:53:00,
2013-04-20 12:54:00,51.5,31.4,29.94,SSW,197,3.0,13.0,46,0.00,,,0.10,VWS V14.01,2013-04-20 16:54:00,
2013-04-20 12:55:00,51.5,32.0,29.94,NNE,26,2.0,13.0,47,0.00,,,0.10,VWS V14.01,2013-04-20 16:55:00,
2013-04-20 12:56:00,51.6,32.6,29.94,South,188,1.0,13.0,48,0.00,,,0.10,VWS V14.01,2013-04-20 16:56:00,
2013-04-20 12:57:00,51.6,32.6,29.94,WNW,284,3.0,13.0,48,0.00,,,0.10,VWS V14.01,2013-04-20 16:57:00,
2013-04-20 12:58:00,51.7,32.1,29.94,WNW,284,0.0,13.0,47,0.00,,,0.10,VWS V14.01,2013-04-20 16:58:00,
2013-04-20 12:59:00,51.8,32.2,29.94,SSW,211,6.0,13.0,47,0.00,,,0.10,VWS V14.01,2013-04-20 16:59:00,
2013-04-20 13:00:00,51.8,31.7,29.94,WSW,252,10.0,13.0,46,0.00,,,0.10,VWS V14.01,2013-04-20 17:00:00,
2013-04-20 13:01:00,51.8,31.7,29.94,WSW,252,10.0,13.0,46,0.00,,,0.10,VWS V14.01,2013-04-20 17:01:00,
2013-04-20 13:02:00,51.8,31.1,29.94,SW,225,4.0,10.0,45,0.00,,,0.10,VWS V14.01,2013-04-20 17:02:00,
2013-04-20 13:03:00,51.9,32.3,29.94,WNW,283,1.0,10.0,47,0.00,,,0.10,VWS V14.01,2013-04-20 17:03:00,
2013-04-20 13:04:00,52.0,32.4,29.94,WSW,246,8.0,12.0,47,0.00,,,0.10,VWS V14.01,2013-04-20 17:04:00,
2013-04-20 13:05:00,52.2,32.6,29.94,WNW,294,4.0,14.0,47,0.00,,,0.10,VWS V14.01,2013-04-20 17:05:00,
2013-04-20 13:06:00,52.3,32.2,29.94,SW,228,6.0,15.0,46,0.00,,,0.10,VWS V14.01,2013-04-20 17:06:00,
2013-04-20 13:07:00,52.3,32.2,29.94,South,182,5.0,15.0,46,0.00,,,0.10,VWS V14.01,2013-04-20 17:07:00,
2013-04-20 13:08:00,52.4,31.7,29.94,WSW,258,10.0,15.0,45,0.00,,,0.10,VWS V14.01,2013-04-20 17:08:00,
2013-04-20 13:09:00,52.4,31.1,29.94,SW,235,9.0,15.0,44,0.00,,,0.10,VWS V14.01,2013-04-20 17:09:00,
2013-04-20 13:10:00,52.4,31.7,29.94,SW,227,4.0,15.0,45,0.00,,,0.10,VWS V14.01,2013-04-20 17:10:00,
2013-04-20 13:11:00,52.5,32.3,29.94,East,81,5.0,5.0,46,0.00,,,0.10,VWS V14.01,2013-04-20 17:11:00,
2013-04-20 13:12:00,52.6,32.4,29.94,WSW,245,4.0,18.0,46,0.00,,,0.10,VWS V14.01,2013-04-20 17:12:00,
2013-04-20 13:13:00,52.6,31.3,29.94,West,264,11.0,18.0,44,0.00,,,0.10,VWS V14.01,2013-04-20 17:13:00,
2013-04-20 13:14:00,52.6,31.3,29.94,SW,230,9.0,18.0,44,0.00,,,0.10,VWS V14.01,2013-04-20 17:14:00,
2013-04-20 13:15:00,52.6,31.3,29.94,ESE,108,2.0,18.0,44,0.00,,,0.10,VWS V14.01,2013-04-20 17:15:00,
2013-04-20 13:16:00,52.6,31.3,29.94,NW,321,5.0,18.0,44,0.00,,,0.10,VWS V14.01,2013-04-20 17:16:00,
2013-04-20 13:17:00,52.6,31.3,29.94,NW,321,5.0,18.0,44,0.00,,,0.10,VWS V14.01,2013-04-20 17:17:00,
2013-04-20 13:18:00,52.7,31.4,29.94,West,274,3.0,18.0,44,0.00,,,0.10,VWS V14.01,2013-04-20 17:18:00,
2013-04-20 13:19:00,52.7,30.9,29.94,NW,310,11.0,18.0,43,0.00,,,0.10,VWS V14.01,2013-04-20 17:19:00,
2013-04-20 13:20:00,52.7,31.4,29.94,NW,317,6.0,18.0,44,0.00,,,0.10,VWS V14.01,2013-04-20 17:20:00,
2013-04-20 13:21:00,52.7,31.4,29.94,West,276,11.0,18.0,44,0.00,,,0.10,VWS V14.01,2013-04-20 17:21:00,
2013-04-20 13:22:00,52.7,31.4,29.94,West,276,11.0,18.0,44,0.00,,,0.10,VWS V14.01,2013-04-20 17:22:00,
2013-04-20 13:23:00,52.7,32.0,29.94,NNE,16,2.0,11.0,45,0.00,,,0.10,VWS V14.01,2013-04-20 17:23:00,
2013-04-20 13:24:00,52.7,32.0,29.94,North,360,11.0,11.0,45,0.00,,,0.10,VWS V14.01,2013-04-20 17:24:00,
2013-04-20 13:25:00,52.7,31.4,29.94,NW,315,17.0,17.0,44,0.00,,,0.10,VWS V14.01,2013-04-20 17:25:00,
2013-04-20 13:26:00,52.7,31.4,29.94,WSW,248,7.0,17.0,44,0.00,,,0.10,VWS V14.01,2013-04-20 17:26:00,
2013-04-20 13:27:00,52.7,31.4,29.94,WSW,248,7.0,17.0,44,0.00,,,0.10,VWS V14.01,2013-04-20 17:27:00,
2013-04-20 13:28:00,52.5,30.7,29.94,WSW,252,11.0,17.0,43,0.00,,,0.10,VWS V14.01,2013-04-20 17:28:00,
2013-04-20 13:29:00,52.4,31.1,29.94,SSW,203,5.0,17.0,44,0.00,,,0.10,VWS V14.01,2013-04-20 17:29:00,
2013-04-20 13:30:00,52.4,31.1,29.94,West,269,16.0,17.0,44,0.00,,,0.10,VWS V14.01,2013-04-20 17:30:00,
2013-04-20 13:31:00,52.4,31.1,29.94,West,269,16.0,17.0,44,0.00,,,0.10,VWS V14.01,2013-04-20 17:31:00,
2013-04-20 13:32:00,52.3,31.0,29.94,NW,311,8.0,16.0,44,0.00,,,0.10,VWS V14.01,2013-04-20 17:32:00,
2013-04-20 13:33:00,52.2,31.0,29.94,SW,236,9.0,16.0,44,0.00,,,0.10,VWS V14.01,2013-04-20 17:33:00,
2013-04-20 13:34:00,52.1,30.9,29.94,WSW,255,2.0,16.0,44,0.00,,,0.10,VWS V14.01,2013-04-20 17:34:00,
2013-04-20 13:35:00,52.0,30.8,29.94,WNW,297,9.0,16.0,44,0.00,,,0.10,VWS V14.01,2013-04-20 17:35:00,
2013-04-20 13:36:00,52.0,30.8,29.94,WNW,297,9.0,16.0,44,0.00,,,0.10,VWS V14.01,2013-04-20 17:36:00,
2013-04-20 13:37:00,51.9,31.2,29.94,NW,322,0.0,16.0,45,0.00,,,0.10,VWS V14.01,2013-04-20 17:37:00,
2013-04-20 13:38:00,51.9,31.2,29.94,NW,322,0.0,16.0,45,0.00,,,0.10,VWS V14.01,2013-04-20 17:38:00,
2013-04-20 13:39:00,52.0,31.9,29.94,North,360,6.0,16.0,46,0.00,,,0.10,VWS V14.01,2013-04-20 17:39:00,
2013-04-20 13:40:00,52.0,31.3,29.94,West,277,2.0,16.0,45,0.00,,,0.10,VWS V14.01,2013-04-20 17:40:00,
2013-04-20 13:41:00,52.0,30.8,29.94,NW,324,2.0,16.0,44,0.00,,,0.10,VWS V14.01,2013-04-20 17:41:00,
2013-04-20 13:42:00,52.1,30.9,29.94,ENE,73,2.0,2.0,44,0.00,,,0.10,VWS V14.01,2013-04-20 17:42:00,
2013-04-20 13:43:00,52.0,30.8,29.94,NNE,27,0.0,2.0,44,0.00,,,0.10,VWS V14.01,2013-04-20 17:43:00,
2013-04-20 13:44:00,52.1,30.9,29.94,NW,305,2.0,6.0,44,0.00,,,0.10,VWS V14.01,2013-04-20 17:44:00,
2013-04-20 13:45:00,52.1,30.9,29.94,WNW,302,0.0,6.0,44,0.00,,,0.10,VWS V14.01,2013-04-20 17:45:00,
2013-04-20 13:46:00,52.1,30.9,29.94,WNW,302,0.0,6.0,44,0.00,,,0.10,VWS V14.01,2013-04-20 17:46:00,
2013-04-20 13:47:00,52.2,31.0,29.94,NW,325,2.0,6.0,44,0.00,,,0.10,VWS V14.01,2013-04-20 17:47:00,
2013-04-20 13:48:00,52.2,31.0,29.94,West,281,4.0,6.0,44,0.00,,,0.10,VWS V14.01,2013-04-20 17:48:00,
2013-04-20 13:49:00,52.5,31.8,29.94,NE,40,1.0,11.0,45,0.00,,,0.10,VWS V14.01,2013-04-20 17:49:00,
2013-04-20 13:50:00,52.6,31.3,29.94,North,5,5.0,11.0,44,0.00,,,0.10,VWS V14.01,2013-04-20 17:50:00,
2013-04-20 13:51:00,52.6,31.3,29.94,North,5,5.0,11.0,44,0.00,,,0.10,VWS V14.01,2013-04-20 17:51:00,
2013-04-20 13:52:00,52.6,30.8,29.94,West,273,4.0,5.0,43,0.00,,,0.10,VWS V14.01,2013-04-20 17:52:00,
2013-04-20 13:53:00,52.6,30.8,29.94,West,273,4.0,5.0,43,0.00,,,0.10,VWS V14.01,2013-04-20 17:53:00,
2013-04-20 13:54:00,52.8,30.9,29.94,WNW,292,3.0,18.0,43,0.00,,,0.10,VWS V14.01,2013-04-20 17:54:00,
2013-04-20 13:55:00,52.7,30.9,29.94,SE,128,1.0,18.0,43,0.00,,,0.10,VWS V14.01,2013-04-20 17:55:00,
2013-04-20 13:56:00,52.8,30.9,29.94,SE,129,1.0,18.0,43,0.00,,,0.10,VWS V14.01,2013-04-20 17:56:00,
2013-04-20 13:57:00,52.8,30.9,29.94,SE,129,1.0,18.0,43,0.00,,,0.10,VWS V14.01,2013-04-20 17:57:00,
2013-04-20 13:58:00,52.8,30.9,29.94,SE,129,1.0,18.0,43,0.00,,,0.10,VWS V14.01,2013-04-20 17:58:00,
2013-04-20 13:59:00,53.0,31.7,29.94,WSW,257,6.0,18.0,44,0.00,,,0.10,VWS V14.01,2013-04-20 17:59:00,
2013-04-20 14:00:00,53.1,30.6,29.94,WNW,290,14.0,18.0,42,0.00,,,0.10,VWS V14.01,2013-04-20 18:00:00,
2013-04-20 14:01:00,53.2,31.9,29.94,WSW,253,10.0,14.0,44,0.00,,,0.10,VWS V14.01,2013-04-20 18:01:00,
2013-04-20 14:02:00,53.2,31.3,29.94,NW,304,17.0,17.0,43,0.00,,,0.10,VWS V14.01,2013-04-20 18:02:00,
2013-04-20 14:03:00,53.3,30.8,29.94,ESE,102,3.0,18.0,42,0.00,,,0.10,VWS V14.01,2013-04-20 18:03:00,
2013-04-20 14:04:00,53.4,32.0,29.94,West,266,4.0,18.0,44,0.00,,,0.10,VWS V14.01,2013-04-20 18:04:00,
2013-04-20 14:05:00,53.5,31.6,29.94,SW,225,5.0,18.0,43,0.00,,,0.10,VWS V14.01,2013-04-20 18:05:00,
2013-04-20 14:06:00,53.5,31.6,29.94,SW,225,5.0,18.0,43,0.00,,,0.10,VWS V14.01,2013-04-20 18:06:00,
2013-04-20 14:07:00,53.5,31.6,29.94,SW,225,5.0,18.0,43,0.00,,,0.10,VWS V14.01,2013-04-20 18:07:00,
2013-04-20 14:08:00,53.9,32.5,29.94,SW,236,7.0,18.0,44,0.00,,,0.10,VWS V14.01,2013-04-20 18:08:00,
2013-04-20 14:09:00,54.0,31.5,29.94,NW,306,7.0,18.0,42,0.00,,,0.10,VWS V14.01,2013-04-20 18:09:00,
2013-04-20 14:10:00,54.1,32.1,29.94,WNW,292,6.0,18.0,43,0.00,,,0.10,VWS V14.01,2013-04-20 18:10:00,
2013-04-20 14:11:00,54.1,32.1,29.94,WNW,292,6.0,18.0,43,0.00,,,0.10,VWS V14.01,2013-04-20 18:11:00,
2013-04-20 14:12:00,54.1,32.1,29.94,WNW,292,6.0,18.0,43,0.00,,,0.10,VWS V14.01,2013-04-20 18:12:00,
2013-04-20 14:13:00,54.2,31.0,29.94,SSW,206,7.0,7.0,41,0.00,,,0.10,VWS V14.01,2013-04-20 18:13:00,
2013-04-20 14:14:00,54.3,31.1,29.94,South,173,2.0,7.0,41,0.00,,,0.10,VWS V14.01,2013-04-20 18:14:00,
2013-04-20 14:15:00,54.4,31.2,29.94,West,277,11.0,11.0,41,0.00,,,0.10,VWS V14.01,2013-04-20 18:15:00,
2013-04-20 14:16:00,54.4,33.5,29.94,WNW,295,11.0,11.0,45,0.00,,,0.10,VWS V14.01,2013-04-20 18:16:00,
2013-04-20 14:17:00,54.7,32.7,29.94,West,277,7.0,11.0,43,0.00,,,0.10,VWS V14.01,2013-04-20 18:17:00,
2013-04-20 14:18:00,54.8,32.2,29.94,WSW,248,7.0,11.0,42,0.00,,,0.10,VWS V14.01,2013-04-20 18:18:00,
2013-04-20 14:19:00,54.8,32.2,29.94,SSW,209,3.0,11.0,42,0.00,,,0.10,VWS V14.01,2013-04-20 18:19:00,
2013-04-20 14:20:00,54.9,32.8,29.94,SW,236,6.0,11.0,43,0.00,,,0.10,VWS V14.01,2013-04-20 18:20:00,
2013-04-20 14:21:00,54.9,32.8,29.94,WSW,246,5.0,11.0,43,0.00,,,0.10,VWS V14.01,2013-04-20 18:21:00,
2013-04-20 14:22:00,55.0,31.8,29.94,SW,223,9.0,9.0,41,0.00,,,0.10,VWS V14.01,2013-04-20 18:22:00,
2013-04-20 14:23:00,55.0,31.1,29.94,WSW,251,6.0,16.0,40,0.00,,,0.10,VWS V14.01,2013-04-20 18:23:00,
2013-04-20 14:24:00,54.9,31.7,29.94,ESE,111,4.0,16.0,41,0.00,,,0.10,VWS V14.01,2013-04-20 18:24:00,
2013-04-20 14:25:00,55.0,31.1,29.94,SE,141,2.0,16.0,40,0.00,,,0.10,VWS V14.01,2013-04-20 18:25:00,
2013-04-20 14:26:00,55.0,31.1,29.94,SE,143,4.0,16.0,40,0.00,,,0.10,VWS V14.01,2013-04-20 18:26:00,
2013-04-20 14:27:00,55.0,31.8,29.94,WSW,257,2.0,16.0,41,0.00,,,0.10,VWS V14.01,2013-04-20 18:27:00,
2013-04-20 14:28:00,55.0,31.8,29.94,West,262,6.0,16.0,41,0.00,,,0.10,VWS V14.01,2013-04-20 18:28:00,
2013-04-20 14:29:00,55.1,32.4,29.94,North,360,3.0,16.0,42,0.00,,,0.10,VWS V14.01,2013-04-20 18:29:00,
2013-04-20 14:30:00,55.1,31.8,29.94,West,266,5.0,16.0,41,0.00,,,0.10,VWS V14.01,2013-04-20 18:30:00,
2013-04-20 14:31:00,55.1,31.8,29.94,West,266,5.0,16.0,41,0.00,,,0.10,VWS V14.01,2013-04-20 18:31:00,
2013-04-20 14:32:00,55.1,32.4,29.94,West,263,7.0,16.0,42,0.00,,,0.10,VWS V14.01,2013-04-20 18:32:00,
2013-04-20 14:33:00,55.1,30.6,29.94,East,84,1.0,16.0,39,0.00,,,0.10,VWS V14.01,2013-04-20 18:33:00,
2013-04-20 14:34:00,55.2,33.1,29.94,ESE,107,5.0,16.0,43,0.00,,,0.10,VWS V14.01,2013-04-20 18:34:00,
2013-04-20 14:35:00,55.3,31.4,29.94,NNW,327,5.0,16.0,40,0.00,,,0.10,VWS V14.01,2013-04-20 18:35:00,
2013-04-20 14:36:00,55.3,31.4,29.94,NNW,327,5.0,16.0,40,0.00,,,0.10,VWS V14.01,2013-04-20 18:36:00,
2013-04-20 14:37:00,55.3,31.4,29.94,SW,223,4.0,16.0,40,0.00,,,0.10,VWS V14.01,2013-04-20 18:37:00,
2013-04-20 14:38:00,55.4,31.5,29.94,WSW,257,5.0,16.0,40,0.00,,,0.10,VWS V14.01,2013-04-20 18:38:00,
2013-04-20 14:39:00,55.5,31.6,29.94,West,273,5.0,16.0,40,0.00,,,0.10,VWS V14.01,2013-04-20 18:39:00,
2013-04-20 14:40:00,55.4,30.2,29.94,West,280,7.0,16.0,38,0.00,,,0.10,VWS V14.01,2013-04-20 18:40:00,
2013-04-20 14:41:00,55.4,30.2,29.94,West,280,7.0,16.0,38,0.00,,,0.10,VWS V14.01,2013-04-20 18:41:00,
2013-04-20 14:42:00,55.2,30.7,29.94,WSW,242,5.0,7.0,39,0.00,,,0.10,VWS V14.01,2013-04-20 18:42:00,
2013-04-20 14:43:00,55.1,30.6,29.94,WSW,250,10.0,13.0,39,0.00,,,0.10,VWS V14.01,2013-04-20 18:43:00,
2013-04-20 14:44:00,55.1,30.6,29.94,SW,222,5.0,13.0,39,0.00,,,0.10,VWS V14.01,2013-04-20 18:44:00,
2013-04-20 14:45:00,55.0,29.2,29.95,West,277,3.0,16.0,37,0.00,,,0.10,VWS V14.01,2013-04-20 18:45:00,
2013-04-20 14:46:00,55.0,29.2,29.95,West,269,5.0,16.0,37,0.00,,,0.10,VWS V14.01,2013-04-20 18:46:00,
2013-04-20 14:47:00,54.9,30.4,29.95,West,277,9.0,16.0,39,0.00,,,0.10,VWS V14.01,2013-04-20 18:47:00,
2013-04-20 14:48:00,54.9,30.4,29.95,West,277,9.0,16.0,39,0.00,,,0.10,VWS V14.01,2013-04-20 18:48:00,
2013-04-20 14:49:00,54.8,29.7,29.95,NNE,16,1.0,16.0,38,0.00,,,0.10,VWS V14.01,2013-04-20 18:49:00,
2013-04-20 14:50:00,54.8,31.0,29.95,ENE,71,3.0,16.0,40,0.00,,,0.10,VWS V14.01,2013-04-20 18:50:00,
2013-04-20 14:51:00,54.8,30.3,29.95,ENE,61,1.0,3.0,39,0.00,,,0.10,VWS V14.01,2013-04-20 18:51:00,
2013-04-20 14:52:00,54.8,29.7,29.95,SW,236,12.0,12.0,38,0.00,,,0.10,VWS V14.01,2013-04-20 18:52:00,
2013-04-20 14:53:00,54.8,29.7,29.95,SW,236,12.0,12.0,38,0.00,,,0.10,VWS V14.01,2013-04-20 18:53:00,
2013-04-20 14:54:00,54.8,29.7,29.95,West,271,9.0,12.0,38,0.00,,,0.10,VWS V14.01,2013-04-20 18:54:00,
2013-04-20 14:55:00,54.8,31.0,29.95,WSW,238,3.0,12.0,40,0.00,,,0.10,VWS V14.01,2013-04-20 18:55:00,
2013-04-20 14:56:00,54.8,31.0,29.95,SW,226,1.0,12.0,40,0.00,,,0.10,VWS V14.01,2013-04-20 18:56:00,
2013-04-20 14:57:00,54.7,30.2,29.95,NE,34,2.0,12.0,39,0.00,,,0.10,VWS V14.01,2013-04-20 18:57:00,
2013-04-20 14:58:00,54.7,30.2,29.95,NE,34,2.0,12.0,39,0.00,,,0.10,VWS V14.01,2013-04-20 18:58:00,
2013-04-20 14:59:00,54.6,29.5,29.95,West,272,4.0,13.0,38,0.00,,,0.10,VWS V14.01,2013-04-20 18:59:00,
2013-04-20 15:00:00,54.6,29.5,29.96,WNW,303,7.0,13.0,38,0.00,,,0.10,VWS V14.01,2013-04-20 19:00:00,
2013-04-20 15:01:00,54.6,29.5,29.96,NW,306,13.0,13.0,38,0.00,,,0.10,VWS V14.01,2013-04-20 19:01:00,
2013-04-20 15:02:00,54.6,29.5,29.96,SW,227,2.0,13.0,38,0.00,,,0.10,VWS V14.01,2013-04-20 19:02:00,
2013-04-20 15:03:00,54.6,30.2,29.96,NW,313,4.0,13.0,39,0.00,,,0.10,VWS V14.01,2013-04-20 19:03:00,
2013-04-20 15:04:00,54.6,30.2,29.96,West,273,4.0,13.0,39,0.00,,,0.10,VWS V14.01,2013-04-20 19:04:00,
2013-04-20 15:05:00,54.6,30.2,29.96,NNW,336,1.0,13.0,39,0.00,,,0.10,VWS V14.01,2013-04-20 19:05:00,
2013-04-20 15:06:00,54.6,30.2,29.96,NNW,336,1.0,13.0,39,0.00,,,0.10,VWS V14.01,2013-04-20 19:06:00,
2013-04-20 15:07:00,54.6,30.2,29.96,NNW,336,1.0,13.0,39,0.00,,,0.10,VWS V14.01,2013-04-20 19:07:00,
2013-04-20 15:08:00,54.7,30.2,29.96,SSE,163,2.0,13.0,39,0.00,,,0.10,VWS V14.01,2013-04-20 19:08:00,
2013-04-20 15:09:00,54.8,31.0,29.96,SSW,204,4.0,13.0,40,0.00,,,0.10,VWS V14.01,2013-04-20 19:09:00,
2013-04-20 15:10:00,54.9,31.7,29.96,WSW,242,11.0,13.0,41,0.00,,,0.10,VWS V14.01,2013-04-20 19:10:00,
2013-04-20 15:11:00,55.0,30.5,29.96,WNW,300,7.0,7.0,39,0.00,,,0.10,VWS V14.01,2013-04-20 19:11:00,
2013-04-20 15:12:00,55.0,30.5,29.96,WNW,300,7.0,7.0,39,0.00,,,0.10,VWS V14.01,2013-04-20 19:12:00,
2013-04-20 15:13:00,55.2,31.3,29.96,SW,223,6.0,12.0,40,0.00,,,0.10,VWS V14.01,2013-04-20 19:13:00,
2013-04-20 15:14:00,55.3,30.8,29.96,West,273,4.0,12.0,39,0.00,,,0.10,VWS V14.01,2013-04-20 19:14:00,
2013-04-20 15:15:00,55.4,30.2,29.96,West,264,17.0,17.0,38,0.00,,,0.10,VWS V14.01,2013-04-20 19:15:00,
2013-04-20 15:16:00,55.4,30.2,29.96,West,264,17.0,17.0,38,0.00,,,0.10,VWS V14.01,2013-04-20 19:16:00,
2013-04-20 15:17:00,55.4,30.2,29.96,West,264,17.0,17.0,38,0.00,,,0.10,VWS V14.01,2013-04-20 19:17:00,
2013-04-20 15:18:00,55.3,29.5,29.96,WSW,244,7.0,17.0,37,0.00,,,0.10,VWS V14.01,2013-04-20 19:18:00,
2013-04-20 15:19:00,55.3,30.1,29.96,West,277,3.0,17.0,38,0.00,,,0.10,VWS V14.01,2013-04-20 19:19:00,
2013-04-20 15:20:00,55.3,31.4,29.96,WSW,240,1.0,17.0,40,0.00,,,0.10,VWS V14.01,2013-04-20 19:20:00,
2013-04-20 15:21:00,55.3,31.4,29.96,WSW,240,1.0,17.0,40,0.00,,,0.10,VWS V14.01,2013-04-20 19:21:00,
2013-04-20 15:22:00,55.4,30.2,29.96,NW,326,8.0,8.0,38,0.00,,,0.10,VWS V14.01,2013-04-20 19:22:00,
2013-04-20 15:23:00,55.5,30.3,29.96,WNW,302,12.0,12.0,38,0.00,,,0.10,VWS V14.01,2013-04-20 19:23:00,
2013-04-20 15:24:00,55.5,30.3,29.96,West,277,6.0,16.0,38,0.00,,,0.10,VWS V14.01,2013-04-20 19:24:00,
2013-04-20 15:25:00,55.5,29.7,29.96,West,269,4.0,16.0,37,0.00,,,0.10,VWS V14.01,2013-04-20 19:25:00,
2013-04-20 15:26:00,55.5,29.7,29.96,West,269,4.0,16.0,37,0.00,,,0.10,VWS V14.01,2013-04-20 19:26:00,
2013-04-20 15:27:00,55.5,31.0,29.96,SW,232,3.0,16.0,39,0.00,,,0.10,VWS V14.01,2013-04-20 19:27:00,
2013-04-20 15:28:00,55.5,30.3,29.96,WSW,252,2.0,16.0,38,0.00,,,0.10,VWS V14.01,2013-04-20 19:28:00,
2013-04-20 15:29:00,55.4,29.6,29.96,WSW,238,9.0,16.0,37,0.00,,,0.10,VWS V14.01,2013-04-20 19:29:00,
2013-04-20 15:30:00,55.4,29.6,29.97,WSW,245,6.0,16.0,37,0.00,,,0.10,VWS V14.01,2013-04-20 19:30:00,
2013-04-20 15:31:00,55.4,29.6,29.97,WSW,245,6.0,16.0,37,0.00,,,0.10,VWS V14.01,2013-04-20 19:31:00,
2013-04-20 15:32:00,55.4,29.6,29.97,NW,310,3.0,6.0,37,0.00,,,0.10,VWS V14.01,2013-04-20 19:32:00,
2013-04-20 15:33:00,55.3,29.5,29.97,West,273,8.0,8.0,37,0.00,,,0.10,VWS V14.01,2013-04-20 19:33:00,
2013-04-20 15:34:00,55.3,29.5,29.97,West,263,5.0,10.0,37,0.00,,,0.10,VWS V14.01,2013-04-20 19:34:00,
2013-04-20 15:35:00,55.3,30.1,29.97,WNW,297,3.0,10.0,38,0.00,,,0.10,VWS V14.01,2013-04-20 19:35:00,
2013-04-20 15:36:00,55.3,30.1,29.97,West,281,4.0,10.0,38,0.00,,,0.10,VWS V14.01,2013-04-20 19:36:00,
2013-04-20 15:37:00,55.3,30.1,29.97,West,281,4.0,10.0,38,0.00,,,0.10,VWS V14.01,2013-04-20 19:37:00,
2013-04-20 15:38:00,55.5,30.3,29.97,ENE,71,2.0,10.0,38,0.00,,,0.10,VWS V14.01,2013-04-20 19:38:00,
2013-04-20 15:39:00,55.6,31.1,29.97,West,275,12.0,14.0,39,0.00,,,0.10,VWS V14.01,2013-04-20 19:39:00,
2013-04-20 15:40:00,55.6,29.8,29.97,NW,311,10.0,14.0,37,0.00,,,0.10,VWS V14.01,2013-04-20 19:40:00,
2013-04-20 15:41:00,55.6,29.8,29.97,NW,311,10.0,14.0,37,0.00,,,0.10,VWS V14.01,2013-04-20 19:41:00,
2013-04-20 15:42:00,55.7,29.9,29.97,NNE,14,0.0,10.0,37,0.00,,,0.10,VWS V14.01,2013-04-20 19:42:00,
2013-04-20 15:43:00,55.7,29.9,29.97,NNE,14,0.0,10.0,37,0.00,,,0.10,VWS V14.01,2013-04-20 19:43:00,
2013-04-20 15:44:00,55.7,29.9,29.97,WSW,238,5.0,10.0,37,0.00,,,0.10,VWS V14.01,2013-04-20 19:44:00,
2013-04-20 15:45:00,55.7,29.9,29.98,West,259,5.0,10.0,37,0.00,,,0.10,VWS V14.01,2013-04-20 19:45:00,
2013-04-20 15:46:00,55.7,29.9,29.98,West,275,8.0,10.0,37,0.00,,,0.10,VWS V14.01,2013-04-20 19:46:00,
2013-04-20 15:47:00,55.7,29.9,29.98,West,275,8.0,10.0,37,0.00,,,0.10,VWS V14.01,2013-04-20 19:47:00,
2013-04-20 15:48:00,55.7,29.9,29.98,West,275,8.0,10.0,37,0.00,,,0.10,VWS V14.01,2013-04-20 19:48:00,
2013-04-20 15:49:00,55.9,31.3,29.98,SW,215,5.0,10.0,39,0.00,,,0.10,VWS V14.01,2013-04-20 19:49:00,
2013-04-20 15:50:00,55.9,31.3,29.98,SW,225,2.0,10.0,39,0.00,,,0.10,VWS V14.01,2013-04-20 19:50:00,
2013-04-20 15:51:00,55.9,31.3,29.98,SW,225,2.0,10.0,39,0.00,,,0.10,VWS V14.01,2013-04-20 19:51:00,
2013-04-20 15:52:00,55.9,29.4,29.98,WNW,283,5.0,5.0,36,0.00,,,0.10,VWS V14.01,2013-04-20 19:52:00,
2013-04-20 15:53:00,55.9,30.0,29.98,WSW,239,7.0,12.0,37,0.00,,,0.10,VWS V14.01,2013-04-20 19:53:00,
2013-04-20 15:54:00,55.9,30.0,29.98,SW,233,6.0,12.0,37,0.00,,,0.10,VWS V14.01,2013-04-20 19:54:00,
2013-04-20 15:55:00,55.8,30.6,29.98,WSW,242,9.0,12.0,38,0.00,,,0.10,VWS V14.01,2013-04-20 19:55:00,
2013-04-20 15:56:00,55.8,30.6,29.98,West,265,14.0,14.0,38,0.00,,,0.10,VWS V14.01,2013-04-20 19:56:00,
2013-04-20 15:57:00,55.6,29.1,29.98,NW,318,9.0,14.0,36,0.00,,,0.10,VWS V14.01,2013-04-20 19:57:00,
2013-04-20 15:58:00,55.5,29.7,29.98,SSW,200,8.0,14.0,37,0.00,,,0.10,VWS V14.01,2013-04-20 19:58:00,
2013-04-20 15:59:00,55.3,28.8,29.98,North,5,8.0,14.0,36,0.00,,,0.10,VWS V14.01,2013-04-20 19:59:00,
2013-04-20 16:00:00,55.2,28.7,29.98,West,267,0.0,14.0,36,0.00,,,0.10,VWS V14.01,2013-04-20 20:00:00,
2013-04-20 16:01:00,55.2,28.7,29.98,West,267,0.0,14.0,36,0.00,,,0.10,VWS V14.01,2013-04-20 20:01:00,
2013-04-20 16:02:00,55.0,28.6,29.98,WNW,289,8.0,8.0,36,0.00,,,0.10,VWS V14.01,2013-04-20 20:02:00,
2013-04-20 16:03:00,55.0,28.6,29.98,North,360,4.0,8.0,36,0.00,,,0.10,VWS V14.01,2013-04-20 20:03:00,
2013-04-20 16:04:00,54.9,28.5,29.98,NW,313,10.0,15.0,36,0.00,,,0.10,VWS V14.01,2013-04-20 20:04:00,
2013-04-20 16:05:00,54.9,28.5,29.98,WNW,290,2.0,15.0,36,0.00,,,0.10,VWS V14.01,2013-04-20 20:05:00,
2013-04-20 16:06:00,54.9,28.5,29.98,WNW,290,2.0,15.0,36,0.00,,,0.10,VWS V14.01,2013-04-20 20:06:00,
2013-04-20 16:07:00,54.9,28.5,29.98,WNW,290,2.0,15.0,36,0.00,,,0.10,VWS V14.01,2013-04-20 20:07:00,
2013-04-20 16:08:00,54.9,28.5,29.98,WNW,290,2.0,15.0,36,0.00,,,0.10,VWS V14.01,2013-04-20 20:08:00,
2013-04-20 16:09:00,55.0,28.6,29.98,SSW,203,7.0,15.0,36,0.00,,,0.10,VWS V14.01,2013-04-20 20:09:00,
2013-04-20 16:10:00,55.0,27.9,29.98,WNW,289,5.0,15.0,35,0.00,,,0.10,VWS V14.01,2013-04-20 20:10:00,
2013-04-20 16:11:00,55.0,27.9,29.98,WNW,289,5.0,15.0,35,0.00,,,0.10,VWS V14.01,2013-04-20 20:11:00,
2013-04-20 16:12:00,55.0,27.9,29.98,WNW,289,5.0,15.0,35,0.00,,,0.10,VWS V14.01,2013-04-20 20:12:00,
2013-04-20 16:13:00,55.1,28.6,29.98,West,273,2.0,6.0,36,0.00,,,0.10,VWS V14.01,2013-04-20 20:13:00,
2013-04-20 16:14:00,55.1,28.6,29.98,WSW,249,10.0,14.0,36,0.00,,,0.10,VWS V14.01,2013-04-20 20:14:00,
2013-04-20 16:15:00,55.1,28.0,29.99,West,266,8.0,15.0,35,0.00,,,0.10,VWS V14.01,2013-04-20 20:15:00,
2013-04-20 16:16:00,55.1,28.0,29.99,NW,311,3.0,15.0,35,0.00,,,0.10,VWS V14.01,2013-04-20 20:16:00,
2013-04-20 16:17:00,55.1,29.3,29.99,SW,220,4.0,15.0,37,0.00,,,0.10,VWS V14.01,2013-04-20 20:17:00,
2013-04-20 16:18:00,55.1,28.6,29.99,SW,223,7.0,15.0,36,0.00,,,0.10,VWS V14.01,2013-04-20 20:18:00,
2013-04-20 16:19:00,55.1,28.0,29.99,WNW,286,8.0,15.0,35,0.00,,,0.10,VWS V14.01,2013-04-20 20:19:00,
2013-04-20 16:20:00,55.1,28.6,29.99,NW,305,6.0,15.0,36,0.00,,,0.10,VWS V14.01,2013-04-20 20:20:00,
2013-04-20 16:21:00,55.1,28.6,29.99,NW,305,6.0,15.0,36,0.00,,,0.10,VWS V14.01,2013-04-20 20:21:00,
2013-04-20 16:22:00,55.1,28.6,29.99,NW,306,4.0,10.0,36,0.00,,,0.10,VWS V14.01,2013-04-20 20:22:00,
2013-04-20 16:23:00,55.0,28.6,29.99,WSW,256,6.0,15.0,36,0.00,,,0.10,VWS V14.01,2013-04-20 20:23:00,
2013-04-20 16:24:00,55.0,28.6,29.99,WSW,257,6.0,15.0,36,0.00,,,0.10,VWS V14.01,2013-04-20 20:24:00,
2013-04-20 16:25:00,55.0,28.6,29.99,SSW,209,7.0,15.0,36,0.00,,,0.10,VWS V14.01,2013-04-20 20:25:00,
2013-04-20 16:26:00,55.0,28.6,29.99,WSW,254,7.0,15.0,36,0.00,,,0.10,VWS V14.01,2013-04-20 20:26:00,
2013-04-20 16:27:00,55.0,28.6,29.99,SW,236,6.0,15.0,36,0.00,,,0.10,VWS V14.01,2013-04-20 20:27:00,
2013-04-20 16:28:00,55.0,29.2,29.99,West,269,12.0,17.0,37,0.00,,,0.10,VWS V14.01,2013-04-20 20:28:00,
2013-04-20 16:29:00,55.0,28.6,29.99,West,278,11.0,17.0,36,0.00,,,0.10,VWS V14.01,2013-04-20 20:29:00,
2013-04-20 16:30:00,54.9,28.5,30.00,North,350,6.0,17.0,36,0.00,,,0.10,VWS V14.01,2013-04-20 20:30:00,
2013-04-20 16:31:00,54.9,28.5,30.00,North,350,6.0,17.0,36,0.00,,,0.10,VWS V14.01,2013-04-20 20:31:00,
2013-04-20 16:32:00,54.9,28.5,30.00,North,350,6.0,17.0,36,0.00,,,0.10,VWS V14.01,2013-04-20 20:32:00,
2013-04-20 16:33:00,54.5,28.1,30.00,NW,317,6.0,7.0,36,0.00,,,0.10,VWS V14.01,2013-04-20 20:33:00,
2013-04-20 16:34:00,54.3,28.6,30.00,WNW,289,8.0,12.0,37,0.00,,,0.10,VWS V14.01,2013-04-20 20:34:00,
2013-04-20 16:35:00,54.2,27.9,30.00,WSW,249,5.0,12.0,36,0.00,,,0.10,VWS V14.01,2013-04-20 20:35:00,
2013-04-20 16:36:00,54.2,28.5,30.00,WSW,253,2.0,12.0,37,0.00,,,0.10,VWS V14.01,2013-04-20 20:36:00,
2013-04-20 16:37:00,53.9,28.2,30.00,West,274,6.0,12.0,37,0.00,,,0.10,VWS V14.01,2013-04-20 20:37:00,
2013-04-20 16:38:00,53.7,28.1,30.00,WSW,244,4.0,12.0,37,0.00,,,0.10,VWS V14.01,2013-04-20 20:38:00,
2013-04-20 16:39:00,53.7,28.7,30.00,SSW,207,5.0,12.0,38,0.00,,,0.10,VWS V14.01,2013-04-20 20:39:00,
2013-04-20 16:40:00,53.6,28.0,30.00,NNE,22,3.0,12.0,37,0.00,,,0.10,VWS V14.01,2013-04-20 20:40:00,
2013-04-20 16:41:00,53.6,28.0,30.00,NNE,22,1.0,12.0,37,0.00,,,0.10,VWS V14.01,2013-04-20 20:41:00,
2013-04-20 16:42:00,53.6,28.0,30.00,NNE,22,1.0,12.0,37,0.00,,,0.10,VWS V14.01,2013-04-20 20:42:00,
2013-04-20 16:43:00,53.6,28.0,30.00,NNE,22,1.0,12.0,37,0.00,,,0.10,VWS V14.01,2013-04-20 20:43:00,
2013-04-20 16:44:00,53.5,28.5,30.00,SSE,162,3.0,6.0,38,0.00,,,0.10,VWS V14.01,2013-04-20 20:44:00,
2013-04-20 16:45:00,53.5,28.5,30.01,SE,132,3.0,6.0,38,0.00,,,0.10,VWS V14.01,2013-04-20 20:45:00,
2013-04-20 16:46:00,53.5,28.5,30.01,WNW,285,7.0,7.0,38,0.00,,,0.10,VWS V14.01,2013-04-20 20:46:00,
2013-04-20 16:47:00,53.6,28.6,30.01,West,280,7.0,7.0,38,0.00,,,0.10,VWS V14.01,2013-04-20 20:47:00,
2013-04-20 16:48:00,53.6,28.6,30.01,WSW,258,4.0,7.0,38,0.00,,,0.10,VWS V14.01,2013-04-20 20:48:00,
2013-04-20 16:49:00,53.7,28.7,30.01,NNW,335,3.0,8.0,38,0.00,,,0.10,VWS V14.01,2013-04-20 20:49:00,
2013-04-20 16:50:00,53.7,28.7,30.01,NW,318,5.0,8.0,38,0.00,,,0.10,VWS V14.01,2013-04-20 20:50:00,
2013-04-20 16:51:00,53.8,28.8,30.01,SSW,198,3.0,4.0,38,0.00,,,0.10,VWS V14.01,2013-04-20 20:51:00,
2013-04-20 16:52:00,53.8,28.8,30.01,SSW,198,3.0,4.0,38,0.00,,,0.10,VWS V14.01,2013-04-20 20:52:00,
2013-04-20 16:53:00,53.9,28.9,30.01,WNW,298,2.0,6.0,38,0.00,,,0.10,VWS V14.01,2013-04-20 20:53:00,
2013-04-20 16:54:00,54.0,29.6,30.01,West,265,2.0,6.0,39,0.00,,,0.10,VWS V14.01,2013-04-20 20:54:00,
2013-04-20 16:55:00,54.1,29.7,30.01,West,273,3.0,6.0,39,0.00,,,0.10,VWS V14.01,2013-04-20 20:55:00,
2013-04-20 16:56:00,54.3,29.9,30.01,West,264,9.0,9.0,39,0.00,,,0.10,VWS V14.01,2013-04-20 20:56:00,
2013-04-20 16:57:00,54.3,29.9,30.01,West,264,9.0,9.0,39,0.00,,,0.10,VWS V14.01,2013-04-20 20:57:00,
2013-04-20 16:58:00,54.4,28.7,30.01,North,9,2.0,9.0,37,0.00,,,0.10,VWS V14.01,2013-04-20 20:58:00,
2013-04-20 16:59:00,54.5,28.1,30.01,WSW,258,4.0,10.0,36,0.00,,,0.10,VWS V14.01,2013-04-20 20:59:00,
2013-04-20 17:00:00,54.5,28.1,30.01,West,259,0.0,10.0,36,0.00,,,0.10,VWS V14.01,2013-04-20 21:00:00,
2013-04-20 17:01:00,54.5,28.1,30.01,West,259,1.0,10.0,36,0.00,,,0.10,VWS V14.01,2013-04-20 21:01:00,
2013-04-20 17:02:00,54.5,28.1,30.01,West,259,1.0,10.0,36,0.00,,,0.10,VWS V14.01,2013-04-20 21:02:00,
2013-04-20 17:03:00,54.7,28.3,30.01,SW,226,8.0,8.0,36,0.00,,,0.10,VWS V14.01,2013-04-20 21:03:00,
2013-04-20 17:04:00,54.7,29.0,30.01,SE,138,0.0,8.0,37,0.00,,,0.10,VWS V14.01,2013-04-20 21:04:00,
2013-04-20 17:05:00,54.7,29.0,30.01,WSW,237,3.0,8.0,37,0.00,,,0.10,VWS V14.01,2013-04-20 21:05:00,
2013-04-20 17:06:00,54.7,29.0,30.01,WSW,237,3.0,8.0,37,0.00,,,0.10,VWS V14.01,2013-04-20 21:06:00,
2013-04-20 17:07:00,54.7,28.3,30.01,WSW,251,2.0,8.0,36,0.00,,,0.10,VWS V14.01,2013-04-20 21:07:00,
2013-04-20 17:08:00,54.7,29.6,30.01,SW,235,11.0,11.0,38,0.00,,,0.10,VWS V14.01,2013-04-20 21:08:00,
2013-04-20 17:09:00,54.8,29.0,30.01,SW,220,9.0,11.0,37,0.00,,,0.10,VWS V14.01,2013-04-20 21:09:00,
2013-04-20 17:10:00,54.7,28.3,30.01,West,266,4.0,11.0,36,0.00,,,0.10,VWS V14.01,2013-04-20 21:10:00,
2013-04-20 17:11:00,54.6,28.2,30.01,West,269,3.0,11.0,36,0.00,,,0.10,VWS V14.01,2013-04-20 21:11:00,
2013-04-20 17:12:00,54.5,28.1,30.01,WSW,243,6.0,6.0,36,0.00,,,0.10,VWS V14.01,2013-04-20 21:12:00,
2013-04-20 17:13:00,54.5,27.4,30.01,SSW,199,2.0,10.0,35,0.00,,,0.10,VWS V14.01,2013-04-20 21:13:00,
2013-04-20 17:14:00,54.4,27.3,30.01,South,179,2.0,10.0,35,0.00,,,0.10,VWS V14.01,2013-04-20 21:14:00,
2013-04-20 17:15:00,54.3,27.9,30.02,NNW,342,1.0,10.0,36,0.00,,,0.10,VWS V14.01,2013-04-20 21:15:00,
2013-04-20 17:16:00,54.3,27.9,30.02,NNW,340,0.0,10.0,36,0.00,,,0.10,VWS V14.01,2013-04-20 21:16:00,
2013-04-20 17:17:00,54.1,28.4,30.02,SW,223,3.0,10.0,37,0.00,,,0.10,VWS V14.01,2013-04-20 21:17:00,
2013-04-20 17:18:00,54.1,28.4,30.02,SW,223,3.0,10.0,37,0.00,,,0.10,VWS V14.01,2013-04-20 21:18:00,
2013-04-20 17:19:00,54.1,28.4,30.02,West,266,6.0,10.0,37,0.00,,,0.10,VWS V14.01,2013-04-20 21:19:00,
2013-04-20 17:20:00,54.0,27.7,30.02,West,281,4.0,10.0,36,0.00,,,0.10,VWS V14.01,2013-04-20 21:20:00,
2013-04-20 17:21:00,54.0,27.7,30.02,West,281,4.0,10.0,36,0.00,,,0.10,VWS V14.01,2013-04-20 21:21:00,
2013-04-20 17:22:00,54.0,28.3,30.02,WSW,240,6.0,11.0,37,0.00,,,0.10,VWS V14.01,2013-04-20 21:22:00,
2013-04-20 17:23:00,54.0,28.3,30.02,NW,321,6.0,11.0,37,0.00,,,0.10,VWS V14.01,2013-04-20 21:23:00,
2013-04-20 17:24:00,54.0,28.3,30.02,WNW,298,7.0,11.0,37,0.00,,,0.10,VWS V14.01,2013-04-20 21:24:00,
2013-04-20 17:25:00,54.0,28.3,30.02,WSW,258,9.0,11.0,37,0.00,,,0.10,VWS V14.01,2013-04-20 21:25:00,
2013-04-20 17:26:00,53.9,28.2,30.02,WNW,283,5.0,11.0,37,0.00,,,0.10,VWS V14.01,2013-04-20 21:26:00,
2013-04-20 17:27:00,53.9,27.6,30.02,NW,313,8.0,11.0,36,0.00,,,0.10,VWS V14.01,2013-04-20 21:27:00,
2013-04-20 17:28:00,53.9,27.6,30.02,WNW,292,7.0,11.0,36,0.00,,,0.10,VWS V14.01,2013-04-20 21:28:00,
2013-04-20 17:29:00,53.9,28.2,30.02,SSW,210,6.0,11.0,37,0.00,,,0.10,VWS V14.01,2013-04-20 21:29:00,
2013-04-20 17:30:00,53.9,28.9,30.03,WSW,240,8.0,13.0,38,0.00,,,0.10,VWS V14.01,2013-04-20 21:30:00,
2013-04-20 17:31:00,53.9,28.9,30.03,WSW,242,8.0,13.0,38,0.00,,,0.10,VWS V14.01,2013-04-20 21:31:00,
2013-04-20 17:32:00,53.8,28.2,30.03,West,269,6.0,8.0,37,0.00,,,0.10,VWS V14.01,2013-04-20 21:32:00,
2013-04-20 17:33:00,53.8,28.2,30.03,West,269,6.0,8.0,37,0.00,,,0.10,VWS V14.01,2013-04-20 21:33:00,
2013-04-20 17:34:00,53.7,28.1,30.03,SW,234,5.0,8.0,37,0.00,,,0.10,VWS V14.01,2013-04-20 21:34:00,
2013-04-20 17:35:00,53.7,28.1,30.03,SSW,213,1.0,8.0,37,0.00,,,0.10,VWS V14.01,2013-04-20 21:35:00,
2013-04-20 17:36:00,53.7,28.1,30.03,SSW,213,1.0,8.0,37,0.00,,,0.10,VWS V14.01,2013-04-20 21:36:00,
2013-04-20 17:37:00,53.6,28.0,30.03,NW,321,0.0,8.0,37,0.00,,,0.10,VWS V14.01,2013-04-20 21:37:00,
2013-04-20 17:38:00,53.6,28.0,30.03,NW,320,1.0,8.0,37,0.00,,,0.10,VWS V14.01,2013-04-20 21:38:00,
2013-04-20 17:39:00,53.6,28.6,30.03,West,260,4.0,8.0,38,0.00,,,0.10,VWS V14.01,2013-04-20 21:39:00,
2013-04-20 17:40:00,53.6,28.0,30.03,WNW,286,5.0,8.0,37,0.00,,,0.10,VWS V14.01,2013-04-20 21:40:00,
2013-04-20 17:41:00,53.6,27.3,30.03,SSW,213,4.0,8.0,36,0.00,,,0.10,VWS V14.01,2013-04-20 21:41:00,
2013-04-20 17:42:00,53.6,27.3,30.03,SW,218,2.0,4.0,36,0.00,,,0.10,VWS V14.01,2013-04-20 21:42:00,
2013-04-20 17:43:00,53.6,27.3,30.03,SW,233,2.0,4.0,36,0.00,,,0.10,VWS V14.01,2013-04-20 21:43:00,
2013-04-20 17:44:00,53.5,27.9,30.03,SW,225,9.0,9.0,37,0.00,,,0.10,VWS V14.01,2013-04-20 21:44:00,
2013-04-20 17:45:00,53.5,27.9,30.04,SW,227,17.0,17.0,37,0.00,,,0.10,VWS V14.01,2013-04-20 21:45:00,
2013-04-20 17:46:00,53.5,27.9,30.04,SW,215,6.0,17.0,37,0.00,,,0.10,VWS V14.01,2013-04-20 21:46:00,
2013-04-20 17:47:00,53.5,27.9,30.04,SW,215,6.0,17.0,37,0.00,,,0.10,VWS V14.01,2013-04-20 21:47:00,
2013-04-20 17:48:00,53.5,27.9,30.04,SW,215,6.0,17.0,37,0.00,,,0.10,VWS V14.01,2013-04-20 21:48:00,
2013-04-20 17:49:00,53.2,27.6,30.04,SW,225,9.0,17.0,37,0.00,,,0.10,VWS V14.01,2013-04-20 21:49:00,
2013-04-20 17:50:00,53.2,27.0,30.04,West,265,7.0,17.0,36,0.00,,,0.10,VWS V14.01,2013-04-20 21:50:00,
2013-04-20 17:51:00,53.2,27.0,30.04,West,265,7.0,17.0,36,0.00,,,0.10,VWS V14.01,2013-04-20 21:51:00,
2013-04-20 17:52:00,53.2,27.0,30.04,West,265,7.0,17.0,36,0.00,,,0.10,VWS V14.01,2013-04-20 21:52:00,
2013-04-20 17:53:00,53.0,26.8,30.04,West,270,6.0,13.0,36,0.00,,,0.10,VWS V14.01,2013-04-20 21:53:00,
2013-04-20 17:54:00,53.0,27.4,30.04,West,272,4.0,13.0,37,0.00,,,0.10,VWS V14.01,2013-04-20 21:54:00,
2013-04-20 17:55:00,52.9,26.7,30.04,West,259,5.0,13.0,36,0.00,,,0.10,VWS V14.01,2013-04-20 21:55:00,
2013-04-20 17:56:00,52.9,26.7,30.04,West,259,5.0,13.0,36,0.00,,,0.10,VWS V14.01,2013-04-20 21:56:00,
2013-04-20 17:57:00,52.9,26.7,30.04,West,259,5.0,13.0,36,0.00,,,0.10,VWS V14.01,2013-04-20 21:57:00,
2013-04-20 17:58:00,52.8,27.9,30.04,SW,227,7.0,13.0,38,0.00,,,0.10,VWS V14.01,2013-04-20 21:58:00,
2013-04-20 17:59:00,52.8,27.9,30.04,SSW,194,1.0,13.0,38,0.00,,,0.10,VWS V14.01,2013-04-20 21:59:00,
2013-04-20 18:00:00,52.7,27.2,30.05,SSW,193,0.0,13.0,37,0.00,,,0.10,VWS V14.01,2013-04-20 22:00:00,
2013-04-20 18:01:00,52.7,27.2,30.05,SSW,193,0.0,13.0,37,0.00,,,0.10,VWS V14.01,2013-04-20 22:01:00,
2013-04-20 18:02:00,52.7,27.2,30.05,SSW,193,0.0,13.0,37,0.00,,,0.10,VWS V14.01,2013-04-20 22:02:00,
2013-04-20 18:03:00,52.6,27.7,30.05,WSW,237,5.0,7.0,38,0.00,,,0.10,VWS V14.01,2013-04-20 22:03:00,
2013-04-20 18:04:00,52.6,27.7,30.05,SW,223,6.0,7.0,38,0.00,,,0.10,VWS V14.01,2013-04-20 22:04:00,
2013-04-20 18:05:00,52.5,27.0,30.05,WNW,293,2.0,7.0,37,0.00,,,0.10,VWS V14.01,2013-04-20 22:05:00,
2013-04-20 18:06:00,52.5,27.0,30.05,WNW,293,2.0,7.0,37,0.00,,,0.10,VWS V14.01,2013-04-20 22:06:00,
2013-04-20 18:07:00,52.5,27.6,30.05,WSW,251,3.0,8.0,38,0.00,,,0.10,VWS V14.01,2013-04-20 22:07:00,
2013-04-20 18:08:00,52.5,27.6,30.05,WSW,254,1.0,8.0,38,0.00,,,0.10,VWS V14.01,2013-04-20 22:08:00,
2013-04-20 18:09:00,52.5,27.6,30.05,North,355,4.0,8.0,38,0.00,,,0.10,VWS V14.01,2013-04-20 22:09:00,
2013-04-20 18:10:00,52.5,27.0,30.05,WSW,242,9.0,10.0,37,0.00,,,0.10,VWS V14.01,2013-04-20 22:10:00,
2013-04-20 18:11:00,52.5,27.0,30.05,WSW,242,9.0,10.0,37,0.00,,,0.10,VWS V14.01,2013-04-20 22:11:00,
2013-04-20 18:12:00,52.4,26.9,30.05,WNW,294,12.0,12.0,37,0.00,,,0.10,VWS V14.01,2013-04-20 22:12:00,
2013-04-20 18:13:00,52.4,27.6,30.05,WSW,246,1.0,12.0,38,0.00,,,0.10,VWS V14.01,2013-04-20 22:13:00,
2013-04-20 18:14:00,52.4,26.9,30.05,SSE,165,4.0,12.0,37,0.00,,,0.10,VWS V14.01,2013-04-20 22:14:00,
2013-04-20 18:15:00,52.4,27.6,30.06,WSW,258,7.0,12.0,38,0.00,,,0.10,VWS V14.01,2013-04-20 22:15:00,
2013-04-20 18:16:00,52.4,27.6,30.06,WSW,248,4.0,12.0,38,0.00,,,0.10,VWS V14.01,2013-04-20 22:16:00,
2013-04-20 18:17:00,52.4,27.6,30.06,SW,217,5.0,12.0,38,0.00,,,0.10,VWS V14.01,2013-04-20 22:17:00,
2013-04-20 18:18:00,52.4,27.6,30.06,SW,233,0.0,12.0,38,0.00,,,0.10,VWS V14.01,2013-04-20 22:18:00,
2013-04-20 18:19:00,52.3,27.5,30.06,SSE,156,3.0,12.0,38,0.00,,,0.10,VWS V14.01,2013-04-20 22:19:00,
2013-04-20 18:20:00,52.3,27.5,30.06,WNW,289,2.0,12.0,38,0.00,,,0.10,VWS V14.01,2013-04-20 22:20:00,
2013-04-20 18:21:00,52.3,27.5,30.06,WNW,290,0.0,12.0,38,0.00,,,0.10,VWS V14.01,2013-04-20 22:21:00,
2013-04-20 18:22:00,52.3,27.5,30.06,WNW,290,0.0,12.0,38,0.00,,,0.10,VWS V14.01,2013-04-20 22:22:00,
2013-04-20 18:23:00,52.2,28.0,30.06,NW,311,5.0,5.0,39,0.00,,,0.10,VWS V14.01,2013-04-20 22:23:00,
2013-04-20 18:24:00,52.2,28.0,30.06,WNW,288,1.0,5.0,39,0.00,,,0.10,VWS V14.01,2013-04-20 22:24:00,
2013-04-20 18:25:00,52.2,28.6,30.06,NNW,329,4.0,5.0,40,0.00,,,0.10,VWS V14.01,2013-04-20 22:25:00,
2013-04-20 18:26:00,52.2,28.6,30.06,NW,325,2.0,5.0,40,0.00,,,0.10,VWS V14.01,2013-04-20 22:26:00,
2013-04-20 18:27:00,52.2,28.6,30.06,NW,325,2.0,5.0,40,0.00,,,0.10,VWS V14.01,2013-04-20 22:27:00,
2013-04-20 18:28:00,52.2,28.6,30.06,NW,325,2.0,5.0,40,0.00,,,0.10,VWS V14.01,2013-04-20 22:28:00,
2013-04-20 18:29:00,52.1,27.9,30.06,North,5,2.0,7.0,39,0.00,,,0.10,VWS V14.01,2013-04-20 22:29:00,
2013-04-20 18:30:00,52.1,27.9,30.06,SSW,194,2.0,7.0,39,0.00,,,0.10,VWS V14.01,2013-04-20 22:30:00,
2013-04-20 18:31:00,52.1,27.9,30.06,SSW,194,2.0,7.0,39,0.00,,,0.10,VWS V14.01,2013-04-20 22:31:00,
2013-04-20 18:32:00,52.0,27.8,30.06,WSW,254,1.0,2.0,39,0.00,,,0.10,VWS V14.01,2013-04-20 22:32:00,
2013-04-20 18:33:00,52.0,27.8,30.06,WSW,254,2.0,2.0,39,0.00,,,0.10,VWS V14.01,2013-04-20 22:33:00,
2013-04-20 18:34:00,52.0,27.8,30.06,NW,309,4.0,9.0,39,0.00,,,0.10,VWS V14.01,2013-04-20 22:34:00,
2013-04-20 18:35:00,51.9,27.7,30.06,SW,230,2.0,9.0,39,0.00,,,0.10,VWS V14.01,2013-04-20 22:35:00,
2013-04-20 18:36:00,51.9,27.7,30.06,SW,230,2.0,9.0,39,0.00,,,0.10,VWS V14.01,2013-04-20 22:36:00,
2013-04-20 18:37:00,51.8,27.6,30.06,WSW,240,5.0,9.0,39,0.00,,,0.10,VWS V14.01,2013-04-20 22:37:00,
2013-04-20 18:38:00,51.7,27.6,30.06,West,270,4.0,13.0,39,0.00,,,0.10,VWS V14.01,2013-04-20 22:38:00,
2013-04-20 18:39:00,51.7,27.6,30.06,SW,227,5.0,13.0,39,0.00,,,0.10,VWS V14.01,2013-04-20 22:39:00,
2013-04-20 18:40:00,51.6,27.5,30.06,WNW,298,3.0,13.0,39,0.00,,,0.10,VWS V14.01,2013-04-20 22:40:00,
2013-04-20 18:41:00,51.6,27.5,30.06,WNW,298,3.0,13.0,39,0.00,,,0.10,VWS V14.01,2013-04-20 22:41:00,
2013-04-20 18:42:00,51.6,27.5,30.06,WNW,298,3.0,13.0,39,0.00,,,0.10,VWS V14.01,2013-04-20 22:42:00,
2013-04-20 18:43:00,51.6,27.5,30.06,WNW,298,3.0,13.0,39,0.00,,,0.10,VWS V14.01,2013-04-20 22:43:00,
2013-04-20 18:44:00,51.3,27.2,30.06,WNW,296,3.0,13.0,39,0.00,,,0.10,VWS V14.01,2013-04-20 22:44:00,
2013-04-20 18:45:00,51.3,27.2,30.07,SW,219,2.0,13.0,39,0.00,,,0.10,VWS V14.01,2013-04-20 22:45:00,
2013-04-20 18:46:00,51.3,27.2,30.07,SW,219,2.0,13.0,39,0.00,,,0.10,VWS V14.01,2013-04-20 22:46:00,
2013-04-20 18:47:00,51.3,27.2,30.07,SW,219,2.0,13.0,39,0.00,,,0.10,VWS V14.01,2013-04-20 22:47:00,
2013-04-20 18:48:00,51.2,27.7,30.07,WSW,238,7.0,13.0,40,0.00,,,0.10,VWS V14.01,2013-04-20 22:48:00,
2013-04-20 18:49:00,51.1,27.6,30.07,WSW,257,8.0,13.0,40,0.00,,,0.10,VWS V14.01,2013-04-20 22:49:00,
2013-04-20 18:50:00,51.1,27.6,30.07,West,266,4.0,13.0,40,0.00,,,0.10,VWS V14.01,2013-04-20 22:50:00,
2013-04-20 18:51:00,51.1,27.6,30.07,West,266,4.0,13.0,40,0.00,,,0.10,VWS V14.01,2013-04-20 22:51:00,
2013-04-20 18:52:00,51.1,27.6,30.07,West,266,4.0,13.0,40,0.00,,,0.10,VWS V14.01,2013-04-20 22:52:00,
2013-04-20 18:53:00,51.0,27.5,30.07,WSW,250,0.0,5.0,40,0.00,,,0.10,VWS V14.01,2013-04-20 22:53:00,
2013-04-20 18:54:00,50.9,28.1,30.07,West,268,1.0,5.0,41,0.00,,,0.10,VWS V14.01,2013-04-20 22:54:00,
2013-04-20 18:55:00,50.9,28.1,30.07,West,267,4.0,7.0,41,0.00,,,0.10,VWS V14.01,2013-04-20 22:55:00,
2013-04-20 18:56:00,50.9,28.1,30.07,West,265,3.0,7.0,41,0.00,,,0.10,VWS V14.01,2013-04-20 22:56:00,
2013-04-20 18:57:00,50.9,28.1,30.07,West,265,3.0,7.0,41,0.00,,,0.10,VWS V14.01,2013-04-20 22:57:00,
2013-04-20 18:58:00,50.8,28.0,30.07,West,263,6.0,7.0,41,0.00,,,0.10,VWS V14.01,2013-04-20 22:58:00,
2013-04-20 18:59:00,50.8,27.4,30.07,SW,232,1.0,7.0,40,0.00,,,0.10,VWS V14.01,2013-04-20 22:59:00,
2013-04-20 19:00:00,50.7,27.9,30.08,SW,221,7.0,9.0,41,0.00,,,0.10,VWS V14.01,2013-04-20 23:00:00,
2013-04-20 19:01:00,50.7,27.3,30.08,West,276,7.0,10.0,40,0.00,,,0.10,VWS V14.01,2013-04-20 23:01:00,
2013-04-20 19:02:00,50.6,27.2,30.08,WSW,254,3.0,10.0,40,0.00,,,0.10,VWS V14.01,2013-04-20 23:02:00,
2013-04-20 19:03:00,50.6,27.2,30.08,WSW,256,5.0,10.0,40,0.00,,,0.10,VWS V14.01,2013-04-20 23:03:00,
2013-04-20 19:04:00,50.5,27.1,30.08,SW,229,8.0,12.0,40,0.00,,,0.10,VWS V14.01,2013-04-20 23:04:00,
2013-04-20 19:05:00,50.5,27.1,30.08,WSW,240,4.0,12.0,40,0.00,,,0.10,VWS V14.01,2013-04-20 23:05:00,
2013-04-20 19:06:00,50.5,27.7,30.08,WSW,257,5.0,12.0,41,0.00,,,0.10,VWS V14.01,2013-04-20 23:06:00,
2013-04-20 19:07:00,50.5,27.7,30.08,WSW,255,4.0,12.0,41,0.00,,,0.10,VWS V14.01,2013-04-20 23:07:00,
2013-04-20 19:08:00,50.4,27.6,30.08,SSE,155,2.0,12.0,41,0.00,,,0.10,VWS V14.01,2013-04-20 23:08:00,
2013-04-20 19:09:00,50.4,28.2,30.08,SSE,159,2.0,12.0,42,0.00,,,0.10,VWS V14.01,2013-04-20 23:09:00,
2013-04-20 19:10:00,50.4,28.2,30.08,West,277,2.0,12.0,42,0.00,,,0.10,VWS V14.01,2013-04-20 23:10:00,
2013-04-20 19:11:00,50.3,28.1,30.08,NW,314,3.0,7.0,42,0.00,,,0.10,VWS V14.01,2013-04-20 23:11:00,
2013-04-20 19:12:00,50.3,27.5,30.08,NW,309,3.0,7.0,41,0.00,,,0.10,VWS V14.01,2013-04-20 23:12:00,
2013-04-20 19:13:00,50.2,28.0,30.08,NW,308,3.0,7.0,42,0.00,,,0.10,VWS V14.01,2013-04-20 23:13:00,
2013-04-20 19:14:00,50.2,28.0,30.08,WNW,292,3.0,12.0,42,0.00,,,0.10,VWS V14.01,2013-04-20 23:14:00,
2013-04-20 19:15:00,50.2,28.0,30.09,West,271,9.0,13.0,42,0.00,,,0.10,VWS V14.01,2013-04-20 23:15:00,
2013-04-20 19:16:00,50.1,27.9,30.09,WNW,303,7.0,13.0,42,0.00,,,0.10,VWS V14.01,2013-04-20 23:16:00,
2013-04-20 19:17:00,50.1,27.9,30.09,WNW,303,7.0,13.0,42,0.00,,,0.10,VWS V14.01,2013-04-20 23:17:00,
2013-04-20 19:18:00,50.1,27.9,30.09,WNW,289,10.0,13.0,42,0.00,,,0.10,VWS V14.01,2013-04-20 23:18:00,
2013-04-20 19:19:00,50.0,27.8,30.09,WSW,238,1.0,13.0,42,0.00,,,0.10,VWS V14.01,2013-04-20 23:19:00,
2013-04-20 19:20:00,49.9,27.7,30.09,WSW,238,2.0,13.0,42,0.00,,,0.10,VWS V14.01,2013-04-20 23:20:00,
2013-04-20 19:21:00,49.9,28.3,30.09,WSW,238,0.0,0.0,43,0.00,,,0.10,VWS V14.01,2013-04-20 23:21:00,
2013-04-20 19:22:00,49.9,28.3,30.09,WSW,238,0.0,0.0,43,0.00,,,0.10,VWS V14.01,2013-04-20 23:22:00,
2013-04-20 19:23:00,49.9,28.3,30.09,SW,224,3.0,6.0,43,0.00,,,0.10,VWS V14.01,2013-04-20 23:23:00,
2013-04-20 19:24:00,49.9,28.3,30.09,West,280,2.0,7.0,43,0.00,,,0.10,VWS V14.01,2013-04-20 23:24:00,
2013-04-20 19:25:00,49.8,28.2,30.09,North,360,6.0,7.0,43,0.00,,,0.10,VWS V14.01,2013-04-20 23:25:00,
2013-04-20 19:26:00,49.8,28.2,30.09,WNW,298,5.0,7.0,43,0.00,,,0.10,VWS V14.01,2013-04-20 23:26:00,
2013-04-20 19:27:00,49.8,27.6,30.09,WNW,291,10.0,10.0,42,0.00,,,0.10,VWS V14.01,2013-04-20 23:27:00,
2013-04-20 19:28:00,49.7,27.6,30.09,SW,219,5.0,10.0,42,0.00,,,0.10,VWS V14.01,2013-04-20 23:28:00,
2013-04-20 19:29:00,49.7,28.1,30.09,SW,236,3.0,10.0,43,0.00,,,0.10,VWS V14.01,2013-04-20 23:29:00,
2013-04-20 19:30:00,49.7,28.7,30.11,WSW,250,3.0,15.0,44,0.00,,,0.10,VWS V14.01,2013-04-20 23:30:00,
2013-04-20 19:31:00,49.6,28.0,30.11,WSW,247,3.0,3.0,43,0.00,,,0.10,VWS V14.01,2013-04-20 23:31:00,
2013-04-20 19:32:00,49.6,28.0,30.11,WSW,246,8.0,8.0,43,0.00,,,0.10,VWS V14.01,2013-04-20 23:32:00,
2013-04-20 19:33:00,49.6,28.0,30.11,NW,309,5.0,8.0,43,0.00,,,0.10,VWS V14.01,2013-04-20 23:33:00,
2013-04-20 19:34:00,49.6,28.0,30.11,NW,306,0.0,8.0,43,0.00,,,0.10,VWS V14.01,2013-04-20 23:34:00,
2013-04-20 19:35:00,49.5,28.0,30.11,NW,306,1.0,8.0,43,0.00,,,0.10,VWS V14.01,2013-04-20 23:35:00,
2013-04-20 19:36:00,49.5,28.0,30.11,NW,306,1.0,8.0,43,0.00,,,0.10,VWS V14.01,2013-04-20 23:36:00,
2013-04-20 19:37:00,49.5,28.5,30.11,West,268,4.0,8.0,44,0.00,,,0.10,VWS V14.01,2013-04-20 23:37:00,
2013-04-20 19:38:00,49.5,28.5,30.11,NW,305,2.0,8.0,44,0.00,,,0.10,VWS V14.01,2013-04-20 23:38:00,
2013-04-20 19:39:00,49.5,28.5,30.11,West,261,5.0,8.0,44,0.00,,,0.10,VWS V14.01,2013-04-20 23:39:00,
2013-04-20 19:40:00,49.4,28.4,30.11,West,272,4.0,8.0,44,0.00,,,0.10,VWS V14.01,2013-04-20 23:40:00,
2013-04-20 19:41:00,49.4,28.4,30.11,West,272,4.0,8.0,44,0.00,,,0.10,VWS V14.01,2013-04-20 23:41:00,
2013-04-20 19:42:00,49.4,28.4,30.11,NW,321,2.0,8.0,44,0.00,,,0.10,VWS V14.01,2013-04-20 23:42:00,
2013-04-20 19:43:00,49.4,27.9,30.11,SSW,206,2.0,8.0,43,0.00,,,0.10,VWS V14.01,2013-04-20 23:43:00,
2013-04-20 19:44:00,49.3,27.8,30.11,SW,236,1.0,8.0,43,0.00,,,0.10,VWS V14.01,2013-04-20 23:44:00,
2013-04-20 19:45:00,49.3,28.3,30.12,NW,314,1.0,8.0,44,0.00,,,0.10,VWS V14.01,2013-04-20 23:45:00,
2013-04-20 19:46:00,49.3,28.3,30.12,NW,314,1.0,8.0,44,0.00,,,0.10,VWS V14.01,2013-04-20 23:46:00,
2013-04-20 19:47:00,49.2,28.2,30.12,SSW,211,0.0,8.0,44,0.00,,,0.10,VWS V14.01,2013-04-20 23:47:00,
2013-04-20 19:48:00,49.2,28.2,30.12,NW,306,2.0,8.0,44,0.00,,,0.10,VWS V14.01,2013-04-20 23:48:00,
2013-04-20 19:49:00,49.2,28.8,30.12,West,259,4.0,8.0,45,0.00,,,0.10,VWS V14.01,2013-04-20 23:49:00,
2013-04-20 19:50:00,49.1,28.1,30.12,WNW,290,3.0,8.0,44,0.00,,,0.10,VWS V14.01,2013-04-20 23:50:00,
2013-04-20 19:51:00,49.1,28.1,30.12,WNW,290,3.0,8.0,44,0.00,,,0.10,VWS V14.01,2013-04-20 23:51:00,
2013-04-20 19:52:00,49.0,28.0,30.12,WNW,290,1.0,3.0,44,0.00,,,0.10,VWS V14.01,2013-04-20 23:52:00,
2013-04-20 19:53:00,49.0,28.0,30.12,WNW,290,1.0,3.0,44,0.00,,,0.10,VWS V14.01,2013-04-20 23:53:00,
2013-04-20 19:54:00,49.0,28.0,30.12,WSW,244,4.0,4.0,44,0.00,,,0.10,VWS V14.01,2013-04-20 23:54:00,
2013-04-20 19:55:00,49.0,28.0,30.12,WNW,300,4.0,10.0,44,0.00,,,0.10,VWS V14.01,2013-04-20 23:55:00,
2013-04-20 19:56:00,49.0,28.0,30.12,WNW,300,4.0,10.0,44,0.00,,,0.10,VWS V14.01,2013-04-20 23:56:00,
2013-04-20 19:57:00,48.9,28.0,30.12,WSW,257,11.0,11.0,44,0.00,,,0.10,VWS V14.01,2013-04-20 23:57:00,
2013-04-20 19:58:00,48.9,28.0,30.12,West,263,6.0,11.0,44,0.00,,,0.10,VWS V14.01,2013-04-20 23:58:00,
2013-04-20 19:59:00,48.8,27.9,30.12,West,267,6.0,11.0,44,0.00,,,0.10,VWS V14.01,2013-04-20 23:59:00,
2013-04-20 20:00:00,48.8,27.9,30.14,WSW,240,5.0,11.0,44,0.00,,,0.10,VWS V14.01,2013-04-21 00:00:00,
2013-04-20 20:01:00,48.8,27.9,30.14,WNW,284,3.0,3.0,44,0.00,,,0.10,VWS V14.01,2013-04-21 00:01:00,
2013-04-20 20:02:00,48.8,27.9,30.14,NW,308,4.0,4.0,44,0.00,,,0.10,VWS V14.01,2013-04-21 00:02:00,
2013-04-20 20:03:00,48.8,27.9,30.14,NW,307,1.0,4.0,44,0.00,,,0.10,VWS V14.01,2013-04-21 00:03:00,
2013-04-20 20:04:00,48.7,27.8,30.14,West,263,1.0,6.0,44,0.00,,,0.10,VWS V14.01,2013-04-21 00:04:00,
2013-04-20 20:05:00,48.7,27.8,30.14,SSE,152,2.0,6.0,44,0.00,,,0.10,VWS V14.01,2013-04-21 00:05:00,
2013-04-20 20:06:00,48.7,27.8,30.14,SSE,152,2.0,6.0,44,0.00,,,0.10,VWS V14.01,2013-04-21 00:06:00,
2013-04-20 20:07:00,48.7,27.8,30.14,SSE,152,2.0,6.0,44,0.00,,,0.10,VWS V14.01,2013-04-21 00:07:00,
2013-04-20 20:08:00,48.7,27.8,30.14,SSE,152,2.0,6.0,44,0.00,,,0.10,VWS V14.01,2013-04-21 00:08:00,
2013-04-20 20:09:00,48.6,28.2,30.14,NE,49,0.0,6.0,45,0.00,,,0.10,VWS V14.01,2013-04-21 00:09:00,
2013-04-20 20:10:00,48.6,28.2,30.14,WNW,292,5.0,8.0,45,0.00,,,0.10,VWS V14.01,2013-04-21 00:10:00,
2013-04-20 20:11:00,48.6,27.7,30.14,West,259,5.0,5.0,44,0.00,,,0.10,VWS V14.01,2013-04-21 00:11:00,
2013-04-20 20:12:00,48.5,27.6,30.14,WNW,283,2.0,6.0,44,0.00,,,0.10,VWS V14.01,2013-04-21 00:12:00,
2013-04-20 20:13:00,48.5,28.1,30.14,WNW,301,7.0,9.0,45,0.00,,,0.10,VWS V14.01,2013-04-21 00:13:00,
2013-04-20 20:14:00,48.5,27.6,30.14,West,279,5.0,10.0,44,0.00,,,0.10,VWS V14.01,2013-04-21 00:14:00,
2013-04-20 20:15:00,48.5,28.1,30.15,West,277,2.0,10.0,45,0.00,,,0.10,VWS V14.01,2013-04-21 00:15:00,
2013-04-20 20:16:00,48.5,28.1,30.15,West,277,2.0,10.0,45,0.00,,,0.10,VWS V14.01,2013-04-21 00:16:00,
2013-04-20 20:17:00,48.5,28.1,30.15,West,277,2.0,10.0,45,0.00,,,0.10,VWS V14.01,2013-04-21 00:17:00,
2013-04-20 20:18:00,48.4,28.0,30.15,NW,306,2.0,10.0,45,0.00,,,0.10,VWS V14.01,2013-04-21 00:18:00,
2013-04-20 20:19:00,48.4,27.5,30.15,NW,306,1.0,10.0,44,0.00,,,0.10,VWS V14.01,2013-04-21 00:19:00,
2013-04-20 20:20:00,48.3,27.4,30.15,NW,317,1.0,10.0,44,0.00,,,0.10,VWS V14.01,2013-04-21 00:20:00,
2013-04-20 20:21:00,48.3,27.4,30.15,NW,317,1.0,10.0,44,0.00,,,0.10,VWS V14.01,2013-04-21 00:21:00,
2013-04-20 20:22:00,48.3,27.4,30.15,NW,317,1.0,10.0,44,0.00,,,0.10,VWS V14.01,2013-04-21 00:22:00,
2013-04-20 20:23:00,48.2,27.9,30.15,West,278,0.0,1.0,45,0.00,,,0.10,VWS V14.01,2013-04-21 00:23:00,
2013-04-20 20:24:00,48.2,28.4,30.15,West,278,0.0,1.0,46,0.00,,,0.10,VWS V14.01,2013-04-21 00:24:00,
2013-04-20 20:25:00,48.2,28.4,30.15,West,275,3.0,7.0,46,0.00,,,0.10,VWS V14.01,2013-04-21 00:25:00,
2013-04-20 20:26:00,48.2,28.4,30.15,West,275,3.0,7.0,46,0.00,,,0.10,VWS V14.01,2013-04-21 00:26:00,
2013-04-20 20:27:00,48.1,27.8,30.15,SW,235,3.0,7.0,45,0.00,,,0.10,VWS V14.01,2013-04-21 00:27:00,
2013-04-20 20:28:00,48.1,27.8,30.15,SW,236,0.0,7.0,45,0.00,,,0.10,VWS V14.01,2013-04-21 00:28:00,
2013-04-20 20:29:00,48.1,28.3,30.15,SW,231,1.0,7.0,46,0.00,,,0.10,VWS V14.01,2013-04-21 00:29:00,
2013-04-20 20:30:00,48.0,28.2,30.16,NNW,339,0.0,7.0,46,0.00,,,0.10,VWS V14.01,2013-04-21 00:30:00,
2013-04-20 20:31:00,48.0,27.7,30.16,NNW,339,1.0,7.0,45,0.00,,,0.10,VWS V14.01,2013-04-21 00:31:00,
2013-04-20 20:32:00,47.9,28.1,30.16,NW,305,0.0,1.0,46,0.00,,,0.10,VWS V14.01,2013-04-21 00:32:00,
2013-04-20 20:33:00,47.9,28.1,30.16,NW,308,0.0,1.0,46,0.00,,,0.10,VWS V14.01,2013-04-21 00:33:00,
2013-04-20 20:34:00,47.9,28.1,30.16,WNW,289,0.0,2.0,46,0.00,,,0.10,VWS V14.01,2013-04-21 00:34:00,
2013-04-20 20:35:00,47.9,28.1,30.16,WNW,288,2.0,2.0,46,0.00,,,0.10,VWS V14.01,2013-04-21 00:35:00,
2013-04-20 20:36:00,47.9,28.1,30.16,WNW,288,2.0,2.0,46,0.00,,,0.10,VWS V14.01,2013-04-21 00:36:00,
2013-04-20 20:37:00,47.8,28.0,30.16,South,191,0.0,2.0,46,0.00,,,0.10,VWS V14.01,2013-04-21 00:37:00,
2013-04-20 20:38:00,47.8,28.0,30.16,South,191,1.0,2.0,46,0.00,,,0.10,VWS V14.01,2013-04-21 00:38:00,
2013-04-20 20:39:00,47.8,28.0,30.16,South,191,0.0,2.0,46,0.00,,,0.10,VWS V14.01,2013-04-21 00:39:00,
2013-04-20 20:40:00,47.8,28.0,30.16,South,188,0.0,2.0,46,0.00,,,0.10,VWS V14.01,2013-04-21 00:40:00,
2013-04-20 20:41:00,47.8,28.0,30.16,South,188,0.0,2.0,46,0.00,,,0.10,VWS V14.01,2013-04-21 00:41:00,
2013-04-20 20:42:00,47.7,28.0,30.16,WNW,288,0.0,2.0,46,0.00,,,0.10,VWS V14.01,2013-04-21 00:42:00,
2013-04-20 20:43:00,47.7,28.0,30.16,SE,129,2.0,4.0,46,0.00,,,0.10,VWS V14.01,2013-04-21 00:43:00,
2013-04-20 20:44:00,47.6,28.4,30.16,NNW,338,11.0,11.0,47,0.00,,,0.10,VWS V14.01,2013-04-21 00:44:00,
2013-04-20 20:45:00,47.6,27.9,30.18,East,82,1.0,11.0,46,0.00,,,0.10,VWS V14.01,2013-04-21 00:45:00,
2013-04-20 20:46:00,47.6,27.9,30.18,East,81,0.0,11.0,46,0.00,,,0.10,VWS V14.01,2013-04-21 00:46:00,
2013-04-20 20:47:00,47.6,27.9,30.18,East,81,0.0,11.0,46,0.00,,,0.10,VWS V14.01,2013-04-21 00:47:00,
2013-04-20 20:48:00,47.5,27.8,30.18,NE,48,5.0,11.0,46,0.00,,,0.10,VWS V14.01,2013-04-21 00:48:00,
2013-04-20 20:49:00,47.4,27.7,30.18,ENE,61,8.0,11.0,46,0.00,,,0.10,VWS V14.01,2013-04-21 00:49:00,
2013-04-20 20:50:00,47.4,28.2,30.18,West,265,5.0,11.0,47,0.00,,,0.10,VWS V14.01,2013-04-21 00:50:00,
2013-04-20 20:51:00,47.4,28.2,30.18,West,265,5.0,11.0,47,0.00,,,0.10,VWS V14.01,2013-04-21 00:51:00,
2013-04-20 20:52:00,47.3,27.6,30.18,NW,304,0.0,5.0,46,0.00,,,0.10,VWS V14.01,2013-04-21 00:52:00,
2013-04-20 20:53:00,47.3,27.6,30.18,NW,304,0.0,5.0,46,0.00,,,0.10,VWS V14.01,2013-04-21 00:53:00,
2013-04-20 20:54:00,47.2,28.0,30.18,North,355,5.0,7.0,47,0.00,,,0.10,VWS V14.01,2013-04-21 00:54:00,
2013-04-20 20:55:00,47.2,27.5,30.18,NNW,338,5.0,11.0,46,0.00,,,0.10,VWS V14.01,2013-04-21 00:55:00,
2013-04-20 20:56:00,47.2,27.5,30.18,NNW,338,5.0,11.0,46,0.00,,,0.10,VWS V14.01,2013-04-21 00:56:00,
2013-04-20 20:57:00,47.1,27.9,30.18,NE,46,3.0,11.0,47,0.00,,,0.10,VWS V14.01,2013-04-21 00:57:00,
2013-04-20 20:58:00,47.0,27.8,30.18,NNE,22,8.0,11.0,47,0.00,,,0.10,VWS V14.01,2013-04-21 00:58:00,
2013-04-20 20:59:00,47.0,27.8,30.18,NW,305,13.0,13.0,47,0.00,,,0.10,VWS V14.01,2013-04-21 00:59:00,
2013-04-20 21:00:00,47.0,27.8,30.19,WSW,244,3.0,13.0,47,0.00,,,0.10,VWS V14.01,2013-04-21 01:00:00,
2013-04-20 21:01:00,47.0,27.8,30.19,WSW,244,3.0,13.0,47,0.00,,,0.10,VWS V14.01,2013-04-21 01:01:00,
2013-04-20 21:02:00,47.0,27.8,30.19,WSW,244,3.0,13.0,47,0.00,,,0.10,VWS V14.01,2013-04-21 01:02:00,
2013-04-20 21:03:00,47.0,27.8,30.19,WSW,244,3.0,13.0,47,0.00,,,0.10,VWS V14.01,2013-04-21 01:03:00,
2013-04-20 21:04:00,46.9,27.7,30.19,NNE,14,4.0,13.0,47,0.00,,,0.10,VWS V14.01,2013-04-21 01:04:00,
2013-04-20 21:05:00,46.8,27.6,30.19,WNW,290,5.0,13.0,47,0.00,,,0.10,VWS V14.01,2013-04-21 01:05:00,
2013-04-20 21:06:00,46.8,27.6,30.19,WNW,290,5.0,13.0,47,0.00,,,0.10,VWS V14.01,2013-04-21 01:06:00,
2013-04-20 21:07:00,46.8,27.6,30.19,WNW,290,5.0,13.0,47,0.00,,,0.10,VWS V14.01,2013-04-21 01:07:00,
2013-04-20 21:08:00,46.7,27.0,30.19,NW,315,1.0,13.0,46,0.00,,,0.10,VWS V14.01,2013-04-21 01:08:00,
2013-04-20 21:09:00,46.7,27.6,30.19,NW,318,3.0,13.0,47,0.00,,,0.10,VWS V14.01,2013-04-21 01:09:00,
2013-04-20 21:10:00,46.7,27.0,30.19,East,99,1.0,13.0,46,0.00,,,0.10,VWS V14.01,2013-04-21 01:10:00,
2013-04-20 21:11:00,46.7,27.0,30.19,East,99,1.0,13.0,46,0.00,,,0.10,VWS V14.01,2013-04-21 01:11:00,
2013-04-20 21:12:00,46.7,27.0,30.19,East,99,1.0,13.0,46,0.00,,,0.10,VWS V14.01,2013-04-21 01:12:00,
2013-04-20 21:13:00,46.6,26.9,30.19,North,5,9.0,13.0,46,0.00,,,0.10,VWS V14.01,2013-04-21 01:13:00,
2013-04-20 21:14:00,46.6,26.9,30.19,NE,35,2.0,13.0,46,0.00,,,0.10,VWS V14.01,2013-04-21 01:14:00,
2013-04-20 21:15:00,46.6,26.9,30.21,NE,36,0.0,13.0,46,0.00,,,0.10,VWS V14.01,2013-04-21 01:15:00,
2013-04-20 21:16:00,46.6,26.9,30.21,NE,36,0.0,13.0,46,0.00,,,0.10,VWS V14.01,2013-04-21 01:16:00,
2013-04-20 21:17:00,46.6,26.9,30.21,NE,36,0.0,13.0,46,0.00,,,0.10,VWS V14.01,2013-04-21 01:17:00,
2013-04-20 21:18:00,46.5,26.9,30.21,NNW,328,5.0,13.0,46,0.00,,,0.10,VWS V14.01,2013-04-21 01:18:00,
2013-04-20 21:19:00,46.5,26.9,30.21,NNE,32,1.0,13.0,46,0.00,,,0.10,VWS V14.01,2013-04-21 01:19:00,
2013-04-20 21:20:00,46.5,27.4,30.21,NE,54,0.0,13.0,47,0.00,,,0.10,VWS V14.01,2013-04-21 01:20:00,
2013-04-20 21:21:00,46.5,26.9,30.21,WSW,248,1.0,5.0,46,0.00,,,0.10,VWS V14.01,2013-04-21 01:21:00,
2013-04-20 21:22:00,46.5,26.9,30.21,WSW,248,1.0,5.0,46,0.00,,,0.10,VWS V14.01,2013-04-21 01:22:00,
2013-04-20 21:23:00,46.5,27.4,30.21,West,259,4.0,5.0,47,0.00,,,0.10,VWS V14.01,2013-04-21 01:23:00,
2013-04-20 21:24:00,46.4,27.3,30.21,WSW,247,1.0,5.0,47,0.00,,,0.10,VWS V14.01,2013-04-21 01:24:00,
2013-04-20 21:25:00,46.4,27.3,30.21,WNW,298,6.0,7.0,47,0.00,,,0.10,VWS V14.01,2013-04-21 01:25:00,
2013-04-20 21:26:00,46.4,27.3,30.21,WNW,298,6.0,7.0,47,0.00,,,0.10,VWS V14.01,2013-04-21 01:26:00,
2013-04-20 21:27:00,46.4,27.3,30.21,WNW,298,6.0,7.0,47,0.00,,,0.10,VWS V14.01,2013-04-21 01:27:00,
2013-04-20 21:28:00,46.3,27.2,30.21,West,265,7.0,8.0,47,0.00,,,0.10,VWS V14.01,2013-04-21 01:28:00,
2013-04-20 21:29:00,46.3,26.7,30.21,North,10,3.0,8.0,46,0.00,,,0.10,VWS V14.01,2013-04-21 01:29:00,
2013-04-20 21:30:00,46.3,26.7,30.22,WNW,302,2.0,9.0,46,0.00,,,0.10,VWS V14.01,2013-04-21 01:30:00,
2013-04-20 21:31:00,46.3,26.7,30.22,East,87,6.0,9.0,46,0.00,,,0.10,VWS V14.01,2013-04-21 01:31:00,
2013-04-20 21:32:00,46.3,26.7,30.22,East,87,6.0,9.0,46,0.00,,,0.10,VWS V14.01,2013-04-21 01:32:00,
2013-04-20 21:33:00,46.2,27.1,30.22,WSW,258,0.0,6.0,47,0.00,,,0.10,VWS V14.01,2013-04-21 01:33:00,
2013-04-20 21:34:00,46.2,27.1,30.22,WSW,258,0.0,6.0,47,0.00,,,0.10,VWS V14.01,2013-04-21 01:34:00,
2013-04-20 21:35:00,46.2,27.1,30.22,ENE,69,5.0,6.0,47,0.00,,,0.10,VWS V14.01,2013-04-21 01:35:00,
2013-04-20 21:36:00,46.2,27.6,30.22,ENE,72,4.0,6.0,48,0.00,,,0.10,VWS V14.01,2013-04-21 01:36:00,
2013-04-20 21:37:00,46.1,27.5,30.22,West,277,0.0,6.0,48,0.00,,,0.10,VWS V14.01,2013-04-21 01:37:00,
2013-04-20 21:38:00,46.1,27.5,30.22,West,277,0.0,6.0,48,0.00,,,0.10,VWS V14.01,2013-04-21 01:38:00,
2013-04-20 21:39:00,46.1,27.0,30.22,NNW,340,5.0,7.0,47,0.00,,,0.10,VWS V14.01,2013-04-21 01:39:00,
2013-04-20 21:40:00,46.0,26.9,30.22,North,349,0.0,7.0,47,0.00,,,0.10,VWS V14.01,2013-04-21 01:40:00,
2013-04-20 21:41:00,46.0,26.9,30.22,North,349,1.0,7.0,47,0.00,,,0.10,VWS V14.01,2013-04-21 01:41:00,
2013-04-20 21:42:00,46.0,27.4,30.22,NE,38,2.0,4.0,48,0.00,,,0.10,VWS V14.01,2013-04-21 01:42:00,
2013-04-20 21:43:00,45.9,27.3,30.22,WNW,290,4.0,4.0,48,0.00,,,0.10,VWS V14.01,2013-04-21 01:43:00,
2013-04-20 21:44:00,45.9,27.3,30.22,WNW,292,0.0,5.0,48,0.00,,,0.10,VWS V14.01,2013-04-21 01:44:00,
2013-04-20 21:45:00,45.8,27.2,30.24,NW,308,2.0,5.0,48,0.00,,,0.10,VWS V14.01,2013-04-21 01:45:00,
2013-04-20 21:46:00,45.8,27.2,30.24,NW,308,2.0,5.0,48,0.00,,,0.10,VWS V14.01,2013-04-21 01:46:00,
2013-04-20 21:47:00,45.7,27.1,30.24,NNW,342,2.0,5.0,48,0.00,,,0.10,VWS V14.01,2013-04-21 01:47:00,
2013-04-20 21:48:00,45.7,26.6,30.24,NNE,23,2.0,5.0,47,0.00,,,0.10,VWS V14.01,2013-04-21 01:48:00,
2013-04-20 21:49:00,45.6,27.1,30.24,North,355,1.0,5.0,48,0.00,,,0.10,VWS V14.01,2013-04-21 01:49:00,
2013-04-20 21:50:00,45.5,26.5,30.24,NW,312,1.0,5.0,47,0.00,,,0.10,VWS V14.01,2013-04-21 01:50:00,
2013-04-20 21:51:00,45.6,26.5,30.24,NW,313,1.0,5.0,47,0.00,,,0.10,VWS V14.01,2013-04-21 01:51:00,
2013-04-20 21:52:00,45.4,26.9,30.24,NE,40,0.0,1.0,48,0.00,,,0.10,VWS V14.01,2013-04-21 01:52:00,
2013-04-20 21:53:00,45.4,26.9,30.24,ESE,116,3.0,3.0,48,0.00,,,0.10,VWS V14.01,2013-04-21 01:53:00,
2013-04-20 21:54:00,45.3,26.8,30.24,WNW,302,2.0,7.0,48,0.00,,,0.10,VWS V14.01,2013-04-21 01:54:00,
2013-04-20 21:55:00,45.2,26.7,30.24,West,275,1.0,7.0,48,0.00,,,0.10,VWS V14.01,2013-04-21 01:55:00,
2013-04-20 21:56:00,45.2,26.7,30.24,West,275,1.0,7.0,48,0.00,,,0.10,VWS V14.01,2013-04-21 01:56:00,
2013-04-20 21:57:00,45.1,26.6,30.24,NNE,32,1.0,7.0,48,0.00,,,0.10,VWS V14.01,2013-04-21 01:57:00,
2013-04-20 21:58:00,45.1,26.6,30.24,NNE,32,1.0,7.0,48,0.00,,,0.10,VWS V14.01,2013-04-21 01:58:00,
2013-04-20 21:59:00,45.1,26.6,30.24,NNW,328,1.0,7.0,48,0.00,,,0.10,VWS V14.01,2013-04-21 01:59:00,
2013-04-20 22:00:00,45.0,26.5,30.25,WNW,287,0.0,7.0,48,0.00,,,0.10,VWS V14.01,2013-04-21 02:00:00,
2013-04-20 22:01:00,45.0,26.5,30.25,NE,36,2.0,3.0,48,0.00,,,0.10,VWS V14.01,2013-04-21 02:01:00,
2013-04-20 22:02:00,45.0,26.5,30.25,NE,36,3.0,3.0,48,0.00,,,0.10,VWS V14.01,2013-04-21 02:02:00,
2013-04-20 22:03:00,44.9,26.4,30.25,WNW,294,0.0,4.0,48,0.00,,,0.10,VWS V14.01,2013-04-21 02:03:00,
2013-04-20 22:04:00,44.8,26.3,30.25,ESE,111,0.0,4.0,48,0.00,,,0.10,VWS V14.01,2013-04-21 02:04:00,
2013-04-20 22:05:00,44.8,26.3,30.25,NNW,328,5.0,6.0,48,0.00,,,0.10,VWS V14.01,2013-04-21 02:05:00,
2013-04-20 22:06:00,44.8,26.3,30.25,NNW,328,5.0,6.0,48,0.00,,,0.10,VWS V14.01,2013-04-21 02:06:00,
2013-04-20 22:07:00,44.8,26.3,30.25,NNW,328,5.0,6.0,48,0.00,,,0.10,VWS V14.01,2013-04-21 02:07:00,
2013-04-20 22:08:00,44.7,26.2,30.25,South,183,1.0,6.0,48,0.00,,,0.10,VWS V14.01,2013-04-21 02:08:00,
2013-04-20 22:09:00,44.6,25.6,30.25,East,92,3.0,6.0,47,0.00,,,0.10,VWS V14.01,2013-04-21 02:09:00,
2013-04-20 22:10:00,44.6,25.6,30.25,SE,134,2.0,6.0,47,0.00,,,0.10,VWS V14.01,2013-04-21 02:10:00,
2013-04-20 22:11:00,44.6,25.6,30.25,SE,134,2.0,6.0,47,0.00,,,0.10,VWS V14.01,2013-04-21 02:11:00,
2013-04-20 22:12:00,44.6,25.6,30.25,SE,134,2.0,6.0,47,0.00,,,0.10,VWS V14.01,2013-04-21 02:12:00,
2013-04-20 22:13:00,44.6,25.6,30.25,SE,134,2.0,6.0,47,0.00,,,0.10,VWS V14.01,2013-04-21 02:13:00,
2013-04-20 22:14:00,44.4,26.0,30.25,NNW,346,0.0,2.0,48,0.00,,,0.10,VWS V14.01,2013-04-21 02:14:00,
2013-04-20 22:15:00,44.4,26.0,30.25,NNW,346,0.0,2.0,48,0.00,,,0.10,VWS V14.01,2013-04-21 02:15:00,
2013-04-20 22:16:00,44.4,26.0,30.25,NNW,346,0.0,2.0,48,0.00,,,0.10,VWS V14.01,2013-04-21 02:16:00,
2013-04-20 22:17:00,44.4,26.0,30.25,NNW,346,0.0,2.0,48,0.00,,,0.10,VWS V14.01,2013-04-21 02:17:00,
2013-04-20 22:18:00,44.3,25.9,30.25,NNW,348,0.0,2.0,48,0.00,,,0.10,VWS V14.01,2013-04-21 02:18:00,
2013-04-20 22:19:00,44.3,25.9,30.25,NNW,348,0.0,2.0,48,0.00,,,0.10,VWS V14.01,2013-04-21 02:19:00,
2013-04-20 22:20:00,44.2,26.3,30.25,WSW,247,2.0,6.0,49,0.00,,,0.10,VWS V14.01,2013-04-21 02:20:00,
2013-04-20 22:21:00,44.2,26.3,30.25,WNW,292,0.0,1.0,49,0.00,,,0.10,VWS V14.01,2013-04-21 02:21:00,
2013-04-20 22:22:00,44.2,26.3,30.25,WNW,292,0.0,2.0,49,0.00,,,0.10,VWS V14.01,2013-04-21 02:22:00,
2013-04-20 22:23:00,44.1,26.2,30.25,West,263,1.0,2.0,49,0.00,,,0.10,VWS V14.01,2013-04-21 02:23:00,
2013-04-20 22:24:00,44.1,26.2,30.25,WNW,296,1.0,6.0,49,0.00,,,0.10,VWS V14.01,2013-04-21 02:24:00,
2013-04-20 22:25:00,44.0,26.1,30.25,WNW,296,2.0,6.0,49,0.00,,,0.10,VWS V14.01,2013-04-21 02:25:00,
2013-04-20 22:26:00,44.0,26.1,30.25,WNW,300,1.0,6.0,49,0.00,,,0.10,VWS V14.01,2013-04-21 02:26:00,
2013-04-20 22:27:00,44.0,26.1,30.25,WNW,300,0.0,6.0,49,0.00,,,0.10,VWS V14.01,2013-04-21 02:27:00,
2013-04-20 22:28:00,43.9,26.0,30.25,WNW,292,0.0,6.0,49,0.00,,,0.10,VWS V14.01,2013-04-21 02:28:00,
2013-04-20 22:29:00,43.9,26.5,30.25,WNW,292,2.0,6.0,50,0.00,,,0.10,VWS V14.01,2013-04-21 02:29:00,
2013-04-20 22:30:00,43.8,26.4,30.26,NNW,330,4.0,6.0,50,0.00,,,0.10,VWS V14.01,2013-04-21 02:30:00,
2013-04-20 22:31:00,43.8,25.9,30.26,NNW,335,2.0,2.0,49,0.00,,,0.10,VWS V14.01,2013-04-21 02:31:00,
2013-04-20 22:32:00,43.8,25.9,30.26,NNW,335,1.0,2.0,49,0.00,,,0.10,VWS V14.01,2013-04-21 02:32:00,
2013-04-20 22:33:00,43.7,25.8,30.26,ENE,59,0.0,2.0,49,0.00,,,0.10,VWS V14.01,2013-04-21 02:33:00,
2013-04-20 22:34:00,43.7,25.8,30.26,NE,54,2.0,4.0,49,0.00,,,0.10,VWS V14.01,2013-04-21 02:34:00,
2013-04-20 22:35:00,43.7,26.3,30.26,NNW,343,0.0,4.0,50,0.00,,,0.10,VWS V14.01,2013-04-21 02:35:00,
2013-04-20 22:36:00,43.7,26.3,30.26,NNW,343,0.0,4.0,50,0.00,,,0.10,VWS V14.01,2013-04-21 02:36:00,
2013-04-20 22:37:00,43.6,25.2,30.26,NW,323,4.0,4.0,48,0.00,,,0.10,VWS V14.01,2013-04-21 02:37:00,
2013-04-20 22:38:00,43.5,25.1,30.26,North,355,2.0,4.0,48,0.00,,,0.10,VWS V14.01,2013-04-21 02:38:00,
2013-04-20 22:39:00,43.4,24.5,30.26,NNE,22,4.0,5.0,47,0.00,,,0.10,VWS V14.01,2013-04-21 02:39:00,
2013-04-20 22:40:00,43.4,25.0,30.26,NNE,27,4.0,5.0,48,0.00,,,0.10,VWS V14.01,2013-04-21 02:40:00,
2013-04-20 22:41:00,43.4,25.0,30.26,NNE,27,4.0,5.0,48,0.00,,,0.10,VWS V14.01,2013-04-21 02:41:00,
2013-04-20 22:42:00,43.3,24.9,30.26,WNW,300,5.0,5.0,48,0.00,,,0.10,VWS V14.01,2013-04-21 02:42:00,
2013-04-20 22:43:00,43.2,24.9,30.26,North,355,0.0,5.0,48,0.00,,,0.10,VWS V14.01,2013-04-21 02:43:00,
2013-04-20 22:44:00,43.1,24.8,30.26,North,355,1.0,5.0,48,0.00,,,0.10,VWS V14.01,2013-04-21 02:44:00,
2013-04-20 22:45:00,43.1,24.8,30.27,North,355,1.0,5.0,48,0.00,,,0.10,VWS V14.01,2013-04-21 02:45:00,
2013-04-20 22:46:00,43.1,24.8,30.27,North,355,1.0,5.0,48,0.00,,,0.10,VWS V14.01,2013-04-21 02:46:00,
2013-04-20 22:47:00,43.0,24.7,30.27,NNE,29,0.0,5.0,48,0.00,,,0.10,VWS V14.01,2013-04-21 02:47:00,
2013-04-20 22:48:00,43.0,25.2,30.27,NNE,28,0.0,5.0,49,0.00,,,0.10,VWS V14.01,2013-04-21 02:48:00,
2013-04-20 22:49:00,43.0,24.7,30.27,NNE,28,0.0,5.0,48,0.00,,,0.10,VWS V14.01,2013-04-21 02:49:00,
2013-04-20 22:50:00,42.9,24.6,30.27,NNW,328,3.0,5.0,48,0.00,,,0.10,VWS V14.01,2013-04-21 02:50:00,
2013-04-20 22:51:00,42.9,24.6,30.27,NNW,328,3.0,5.0,48,0.00,,,0.10,VWS V14.01,2013-04-21 02:51:00,
2013-04-20 22:52:00,42.8,24.0,30.27,ENE,59,2.0,5.0,47,0.00,,,0.10,VWS V14.01,2013-04-21 02:52:00,
2013-04-20 22:53:00,42.8,24.0,30.27,NNE,26,0.0,8.0,47,0.00,,,0.10,VWS V14.01,2013-04-21 02:53:00,
2013-04-20 22:54:00,42.7,23.9,30.27,North,9,4.0,8.0,47,0.00,,,0.10,VWS V14.01,2013-04-21 02:54:00,
2013-04-20 22:55:00,42.6,23.8,30.27,SE,135,2.0,8.0,47,0.00,,,0.10,VWS V14.01,2013-04-21 02:55:00,
2013-04-20 22:56:00,42.6,23.8,30.27,SE,135,2.0,8.0,47,0.00,,,0.10,VWS V14.01,2013-04-21 02:56:00,
2013-04-20 22:57:00,42.6,23.8,30.27,SE,135,2.0,8.0,47,0.00,,,0.10,VWS V14.01,2013-04-21 02:57:00,
2013-04-20 22:58:00,42.5,23.7,30.27,NW,317,1.0,8.0,47,0.00,,,0.10,VWS V14.01,2013-04-21 02:58:00,
2013-04-20 22:59:00,42.4,23.6,30.27,North,360,1.0,8.0,47,0.00,,,0.10,VWS V14.01,2013-04-21 02:59:00,
2013-04-20 23:00:00,42.4,23.6,30.27,ENE,57,3.0,8.0,47,0.00,,,0.10,VWS V14.01,2013-04-21 03:00:00,
2013-04-20 23:01:00,42.4,23.6,30.27,ENE,59,1.0,3.0,47,0.00,,,0.10,VWS V14.01,2013-04-21 03:01:00,
2013-04-20 23:02:00,42.3,24.0,30.27,WNW,297,2.0,3.0,48,0.00,,,0.10,VWS V14.01,2013-04-21 03:02:00,
2013-04-20 23:03:00,42.2,23.4,30.27,NE,44,4.0,7.0,47,0.00,,,0.10,VWS V14.01,2013-04-21 03:03:00,
2013-04-20 23:04:00,42.2,23.4,30.27,NNE,20,0.0,7.0,47,0.00,,,0.10,VWS V14.01,2013-04-21 03:04:00,
2013-04-20 23:05:00,42.1,23.8,30.27,North,5,3.0,7.0,48,0.00,,,0.10,VWS V14.01,2013-04-21 03:05:00,
2013-04-20 23:06:00,42.1,23.8,30.27,North,5,3.0,7.0,48,0.00,,,0.10,VWS V14.01,2013-04-21 03:06:00,
2013-04-20 23:07:00,42.1,23.3,30.27,WNW,286,1.0,7.0,47,0.00,,,0.10,VWS V14.01,2013-04-21 03:07:00,
2013-04-20 23:08:00,42.0,23.8,30.27,WNW,286,2.0,7.0,48,0.00,,,0.10,VWS V14.01,2013-04-21 03:08:00,
2013-04-20 23:09:00,42.0,23.8,30.27,SSE,164,1.0,7.0,48,0.00,,,0.10,VWS V14.01,2013-04-21 03:09:00,
2013-04-20 23:10:00,42.0,23.8,30.27,South,177,2.0,7.0,48,0.00,,,0.10,VWS V14.01,2013-04-21 03:10:00,
2013-04-20 23:11:00,42.0,23.8,30.27,South,177,2.0,7.0,48,0.00,,,0.10,VWS V14.01,2013-04-21 03:11:00,
2013-04-20 23:12:00,42.0,23.8,30.27,South,177,2.0,7.0,48,0.00,,,0.10,VWS V14.01,2013-04-21 03:12:00,
2013-04-20 23:13:00,42.0,23.8,30.27,South,177,2.0,7.0,48,0.00,,,0.10,VWS V14.01,2013-04-21 03:13:00,
2013-04-20 23:14:00,41.8,23.6,30.27,South,177,0.0,1.0,48,0.00,,,0.10,VWS V14.01,2013-04-21 03:14:00,
2013-04-20 23:15:00,41.8,23.6,30.29,South,177,2.0,2.0,48,0.00,,,0.10,VWS V14.01,2013-04-21 03:15:00,
2013-04-20 23:16:00,41.8,23.6,30.29,South,177,1.0,2.0,48,0.00,,,0.10,VWS V14.01,2013-04-21 03:16:00,
2013-04-20 23:17:00,41.8,23.6,30.29,South,177,1.0,2.0,48,0.00,,,0.10,VWS V14.01,2013-04-21 03:17:00,
2013-04-20 23:18:00,41.7,24.0,30.29,NE,35,0.0,2.0,49,0.00,,,0.10,VWS V14.01,2013-04-21 03:18:00,
2013-04-20 23:19:00,41.6,23.4,30.29,NE,35,1.0,3.0,48,0.00,,,0.10,VWS V14.01,2013-04-21 03:19:00,
2013-04-20 23:20:00,41.6,23.9,30.29,North,5,2.0,3.0,49,0.00,,,0.10,VWS V14.01,2013-04-21 03:20:00,
2013-04-20 23:21:00,41.6,23.9,30.29,NE,36,1.0,3.0,49,0.00,,,0.10,VWS V14.01,2013-04-21 03:21:00,
2013-04-20 23:22:00,41.5,23.8,30.29,ENE,57,4.0,7.0,49,0.00,,,0.10,VWS V14.01,2013-04-21 03:22:00,
2013-04-20 23:23:00,41.5,23.8,30.29,NE,35,2.0,7.0,49,0.00,,,0.10,VWS V14.01,2013-04-21 03:23:00,
2013-04-20 23:24:00,41.4,23.7,30.29,NE,34,8.0,8.0,49,0.00,,,0.10,VWS V14.01,2013-04-21 03:24:00,
2013-04-20 23:25:00,41.4,23.7,30.29,NNE,30,2.0,8.0,49,0.00,,,0.10,VWS V14.01,2013-04-21 03:25:00,
2013-04-20 23:26:00,41.4,24.2,30.29,NE,40,2.0,8.0,50,0.00,,,0.10,VWS V14.01,2013-04-21 03:26:00,
2013-04-20 23:27:00,41.4,24.2,30.29,NE,40,2.0,8.0,50,0.00,,,0.10,VWS V14.01,2013-04-21 03:27:00,
2013-04-20 23:28:00,41.3,23.6,30.29,NE,44,3.0,8.0,49,0.00,,,0.10,VWS V14.01,2013-04-21 03:28:00,
2013-04-20 23:29:00,41.3,24.1,30.29,NE,44,2.0,8.0,50,0.00,,,0.10,VWS V14.01,2013-04-21 03:29:00,
2013-04-20 23:30:00,41.3,24.1,30.29,NE,44,0.0,8.0,50,0.00,,,0.10,VWS V14.01,2013-04-21 03:30:00,
2013-04-20 23:31:00,41.2,24.0,30.29,NE,44,5.0,5.0,50,0.00,,,0.10,VWS V14.01,2013-04-21 03:31:00,
2013-04-20 23:32:00,41.2,24.5,30.29,NE,49,1.0,5.0,51,0.00,,,0.10,VWS V14.01,2013-04-21 03:32:00,
2013-04-20 23:33:00,41.1,24.4,30.29,NE,42,1.0,5.0,51,0.00,,,0.10,VWS V14.01,2013-04-21 03:33:00,
2013-04-20 23:34:00,41.1,24.4,30.29,NE,42,0.0,5.0,51,0.00,,,0.10,VWS V14.01,2013-04-21 03:34:00,
2013-04-20 23:35:00,41.1,24.4,30.29,NE,42,0.0,5.0,51,0.00,,,0.10,VWS V14.01,2013-04-21 03:35:00,
2013-04-20 23:36:00,41.0,24.7,30.29,NE,42,0.0,5.0,52,0.00,,,0.10,VWS V14.01,2013-04-21 03:36:00,
2013-04-20 23:37:00,41.0,24.7,30.29,NE,42,2.0,5.0,52,0.00,,,0.10,VWS V14.01,2013-04-21 03:37:00,
2013-04-20 23:38:00,41.0,24.7,30.29,NE,42,2.0,5.0,52,0.00,,,0.10,VWS V14.01,2013-04-21 03:38:00,
2013-04-20 23:39:00,40.9,24.6,30.29,NE,34,3.0,9.0,52,0.00,,,0.10,VWS V14.01,2013-04-21 03:39:00,
2013-04-20 23:40:00,40.9,24.2,30.29,NNE,32,3.0,9.0,51,0.00,,,0.10,VWS V14.01,2013-04-21 03:40:00,
2013-04-20 23:41:00,40.8,24.5,30.29,NNE,32,0.0,9.0,52,0.00,,,0.10,VWS V14.01,2013-04-21 03:41:00,
2013-04-20 23:42:00,40.7,24.5,30.29,NNE,32,1.0,3.0,52,0.00,,,0.10,VWS V14.01,2013-04-21 03:42:00,
2013-04-20 23:43:00,40.7,24.9,30.29,ESE,109,1.0,4.0,53,0.00,,,0.10,VWS V14.01,2013-04-21 03:43:00,
2013-04-20 23:44:00,40.6,24.4,30.29,NE,36,2.0,8.0,52,0.00,,,0.10,VWS V14.01,2013-04-21 03:44:00,
2013-04-20 23:45:00,40.6,24.4,30.31,NNE,28,1.0,8.0,52,0.00,,,0.10,VWS V14.01,2013-04-21 03:45:00,
2013-04-20 23:46:00,40.6,24.4,30.31,NNE,28,1.0,8.0,52,0.00,,,0.10,VWS V14.01,2013-04-21 03:46:00,
2013-04-20 23:47:00,40.5,24.3,30.31,NE,44,2.0,8.0,52,0.00,,,0.10,VWS V14.01,2013-04-21 03:47:00,
2013-04-20 23:48:00,40.4,24.2,30.31,NE,37,1.0,8.0,52,0.00,,,0.10,VWS V14.01,2013-04-21 03:48:00,
2013-04-20 23:49:00,40.4,24.2,30.31,NE,42,1.0,8.0,52,0.00,,,0.10,VWS V14.01,2013-04-21 03:49:00,
2013-04-20 23:50:00,40.3,24.1,30.31,NNE,18,5.0,8.0,52,0.00,,,0.10,VWS V14.01,2013-04-21 03:50:00,
2013-04-20 23:51:00,40.3,24.1,30.31,NNE,18,5.0,8.0,52,0.00,,,0.10,VWS V14.01,2013-04-21 03:51:00,
2013-04-20 23:52:00,40.1,23.9,30.31,NNE,32,0.0,5.0,52,0.00,,,0.10,VWS V14.01,2013-04-21 03:52:00,
2013-04-20 23:53:00,40.1,23.9,30.31,NNE,27,0.0,5.0,52,0.00,,,0.10,VWS V14.01,2013-04-21 03:53:00,
2013-04-20 23:54:00,40.1,23.4,30.31,NNW,338,2.0,5.0,51,0.00,,,0.10,VWS V14.01,2013-04-21 03:54:00,
2013-04-20 23:55:00,40.0,23.4,30.31,NW,322,1.0,5.0,51,0.00,,,0.10,VWS V14.01,2013-04-21 03:55:00,
2013-04-20 23:56:00,40.0,23.4,30.31,NW,323,1.0,5.0,51,0.00,,,0.10,VWS V14.01,2013-04-21 03:56:00,
2013-04-20 23:57:00,40.0,23.4,30.31,NW,323,1.0,5.0,51,0.00,,,0.10,VWS V14.01,2013-04-21 03:57:00,
2013-04-20 23:58:00,40.0,23.4,30.31,NW,323,1.0,5.0,51,0.00,,,0.10,VWS V14.01,2013-04-21 03:58:00,
2013-04-20 23:59:00,39.8,23.6,30.31,NNE,25,4.0,6.0,52,0.00,,,0.10,VWS V14.01,2013-04-21 03:59:00,